[[{"header":{"parameterUnit":"m.s-1","parameterCategory":1,"la1":30.6,"la2":29.2853,"lo1":-89.7004,"lo2":-87.6739,"dy":0.0162,"dx":0.0183,"nx":112,"ny":82,"refTime":"2024-03-21T06:00:00:Z","depth":0,"parameterNumber":2,"parameterNumberName":"U-component_of_WINDS"},"data":[0.0,0.0,0.0,0.0,0.0,0.0,0.0,0.0,0.0,0.0,0.0,0.0,0.0,0.0,0.0,0.0,0.0,0.0,0.0,0.0,0.0,0.0,0.0,0.0,0.0,0.0,0.0,0.0,0.0,0.0,0.0,0.0,0.0,0.0,0.0,0.0,0.0,0.0,0.0,0.0,0.0,0.0,0.0,0.0,0.0,0.0,0.0,0.0,0.0,0.0,0.0,0.0,0.0,0.0,0.0,0.0,0.0,0.0,0.0,0.0,0.0,0.0,0.0,0.0,0.0,0.0,0.0,0.0,0.0,0.0,0.0,0.0,0.0,0.0,0.0,0.0,0.0,0.0,0.0,0.0,0.0,0.0,0.0,0.0,0.0,0.0,0.0,0.0,0.0,0.0,-7.7304,-7.7304,-7.7304,-7.7304,-7.7304,-7.7304,-7.7304,-7.7304,0.0,0.0,0.0,0.0,0.0,0.0,0.0,0.0,0.0,0.0,0.0,0.0,0.0,0.0,0.0,0.0,0.0,0.0,0.0,0.0,0.0,0.0,0.0,0.0,0.0,0.0,0.0,0.0,0.0,0.0,0.0,0.0,0.0,0.0,0.0,0.0,0.0,0.0,0.0,0.0,0.0,0.0,0.0,0.0,0.0,0.0,0.0,0.0,0.0,0.0,0.0,0.0,0.0,0.0,0.0,0.0,0.0,0.0,0.0,0.0,0.0,0.0,0.0,0.0,0.0,0.0,0.0,0.0,0.0,0.0,0.0,0.0,0.0,0.0,0.0,0.0,0.0,0.0,0.0,0.0,0.0,0.0,0.0,0.0,0.0,0.0,0.0,0.0,0.0,0.0,0.0,0.0,0.0,0.0,0.0,0.0,0.0,0.0,0.0,0.0,0.0,0.0,0.0,0.0,-7.7304,-7.7304,-7.7304,-7.7304,-7.7304,-7.7304,-7.7304,-7.7304,0.0,0.0,0.0,0.0,0.0,0.0,0.0,0.0,0.0,0.0,0.0,0.0,0.0,0.0,0.0,0.0,0.0,0.0,0.0,0.0,0.0,0.0,0.0,0.0,0.0,0.0,0.0,0.0,0.0,0.0,0.0,0.0,0.0,0.0,0.0,0.0,0.0,0.0,0.0,0.0,0.0,0.0,0.0,0.0,0.0,0.0,0.0,0.0,0.0,0.0,0.0,0.0,0.0,0.0,0.0,0.0,0.0,0.0,0.0,0.0,0.0,0.0,0.0,0.0,0.0,0.0,0.0,0.0,0.0,0.0,0.0,0.0,0.0,0.0,0.0,0.0,0.0,0.0,0.0,0.0,0.0,0.0,0.0,0.0,0.0,0.0,0.0,0.0,0.0,0.0,0.0,0.0,0.0,0.0,0.0,0.0,0.0,0.0,0.0,0.0,0.0,0.0,0.0,-7.7275,-7.7304,-7.7304,-7.7304,-7.7304,-7.7304,-7.7304,-7.7304,-7.7304,-7.7304,0.0,0.0,0.0,0.0,0.0,0.0,0.0,0.0,0.0,0.0,0.0,0.0,0.0,0.0,0.0,0.0,0.0,0.0,0.0,0.0,0.0,0.0,0.0,0.0,0.0,0.0,0.0,0.0,0.0,0.0,0.0,0.0,0.0,0.0,0.0,0.0,0.0,0.0,0.0,0.0,0.0,0.0,0.0,0.0,0.0,0.0,0.0,0.0,0.0,0.0,0.0,0.0,0.0,0.0,0.0,0.0,0.0,0.0,0.0,0.0,0.0,0.0,0.0,0.0,0.0,0.0,0.0,0.0,0.0,0.0,0.0,0.0,0.0,0.0,0.0,0.0,0.0,0.0,0.0,0.0,0.0,0.0,0.0,0.0,0.0,0.0,0.0,0.0,0.0,0.0,0.0,0.0,0.0,0.0,0.0,0.0,0.0,0.0,0.0,0.0,0.0,0.0,-7.7304,-7.7304,-7.7304,-7.7304,-7.7304,-7.7304,-7.7304,-7.7304,-7.7304,-7.7304,0.0,0.0,0.0,0.0,0.0,0.0,0.0,0.0,0.0,0.0,0.0,0.0,0.0,0.0,0.0,0.0,0.0,0.0,0.0,0.0,0.0,0.0,0.0,0.0,0.0,0.0,0.0,0.0,0.0,0.0,0.0,0.0,0.0,0.0,0.0,0.0,0.0,0.0,0.0,0.0,0.0,0.0,0.0,0.0,0.0,0.0,0.0,0.0,0.0,0.0,0.0,0.0,0.0,0.0,0.0,0.0,0.0,0.0,0.0,0.0,0.0,0.0,0.0,0.0,0.0,0.0,0.0,0.0,0.0,0.0,0.0,0.0,0.0,0.0,0.0,0.0,0.0,0.0,0.0,0.0,0.0,0.0,0.0,0.0,0.0,0.0,0.0,0.0,0.0,0.0,0.0,0.0,0.0,0.0,0.0,0.0,0.0,0.0,0.0,0.0,0.0,0.0,-7.7304,-7.7304,-7.7304,-7.7304,-7.7304,-7.7304,-7.7304,-7.7304,-7.7304,-7.7304,0.0,0.0,0.0,0.0,0.0,0.0,0.0,0.0,0.0,0.0,0.0,0.0,0.0,0.0,0.0,0.0,0.0,0.0,0.0,0.0,0.0,0.0,0.0,0.0,0.0,0.0,0.0,0.0,0.0,0.0,0.0,0.0,0.0,0.0,0.0,0.0,0.0,0.0,0.0,0.0,0.0,0.0,0.0,0.0,0.0,0.0,0.0,0.0,0.0,0.0,0.0,0.0,0.0,0.0,0.0,0.0,0.0,0.0,0.0,0.0,0.0,0.0,0.0,0.0,0.0,0.0,0.0,0.0,0.0,0.0,0.0,0.0,0.0,0.0,0.0,0.0,0.0,0.0,0.0,0.0,0.0,0.0,0.0,0.0,0.0,0.0,0.0,0.0,0.0,0.0,0.0,0.0,0.0,0.0,0.0,0.0,0.0,0.0,0.0,0.0,0.0,0.0,-7.7304,-7.7304,-7.7304,-7.7304,-7.7304,-7.7304,-7.7304,-7.7304,-7.7304,0.0,0.0,0.0,0.0,0.0,0.0,0.0,0.0,0.0,0.0,0.0,0.0,0.0,0.0,0.0,0.0,0.0,0.0,0.0,0.0,0.0,0.0,0.0,0.0,0.0,0.0,0.0,0.0,0.0,0.0,0.0,0.0,0.0,0.0,0.0,0.0,0.0,0.0,0.0,0.0,0.0,0.0,0.0,0.0,0.0,0.0,0.0,0.0,0.0,0.0,0.0,0.0,0.0,0.0,0.0,0.0,0.0,0.0,0.0,0.0,0.0,0.0,0.0,0.0,0.0,0.0,0.0,0.0,0.0,0.0,0.0,0.0,0.0,0.0,0.0,0.0,0.0,0.0,0.0,0.0,0.0,0.0,0.0,0.0,0.0,0.0,0.0,0.0,0.0,0.0,0.0,0.0,0.0,0.0,0.0,0.0,0.0,0.0,0.0,0.0,0.0,0.0,-7.7304,-7.7304,-7.7304,-7.7304,-7.7304,-7.7304,-7.7304,-7.7304,-7.7304,-7.7304,0.0,0.0,0.0,0.0,0.0,0.0,0.0,0.0,0.0,0.0,0.0,0.0,0.0,0.0,0.0,0.0,0.0,0.0,0.0,0.0,0.0,0.0,0.0,0.0,0.0,0.0,0.0,0.0,0.0,0.0,0.0,0.0,0.0,0.0,0.0,0.0,0.0,0.0,0.0,0.0,0.0,0.0,0.0,0.0,0.0,0.0,0.0,0.0,0.0,0.0,0.0,0.0,0.0,0.0,0.0,0.0,0.0,0.0,0.0,0.0,0.0,0.0,0.0,0.0,0.0,0.0,0.0,0.0,0.0,0.0,0.0,0.0,0.0,0.0,0.0,0.0,0.0,0.0,0.0,0.0,0.0,0.0,0.0,0.0,0.0,0.0,0.0,0.0,0.0,0.0,0.0,0.0,0.0,0.0,0.0,0.0,0.0,0.0,0.0,0.0,0.0,0.0,-7.7304,-7.7304,-7.7304,-7.7304,-7.7304,-7.7304,-7.7304,-7.7304,-7.7304,0.0,0.0,0.0,0.0,0.0,0.0,0.0,0.0,0.0,0.0,0.0,0.0,0.0,0.0,0.0,0.0,0.0,0.0,0.0,0.0,0.0,0.0,0.0,0.0,0.0,0.0,0.0,0.0,0.0,0.0,0.0,0.0,0.0,0.0,0.0,0.0,0.0,0.0,0.0,0.0,0.0,0.0,0.0,0.0,0.0,0.0,0.0,0.0,0.0,0.0,0.0,0.0,0.0,0.0,0.0,0.0,0.0,0.0,0.0,0.0,0.0,0.0,0.0,0.0,0.0,0.0,0.0,0.0,0.0,0.0,0.0,0.0,0.0,0.0,0.0,0.0,0.0,0.0,0.0,0.0,0.0,0.0,0.0,0.0,0.0,0.0,0.0,0.0,0.0,0.0,0.0,0.0,0.0,0.0,0.0,0.0,0.0,0.0,0.0,0.0,0.0,0.0,0.0,-7.7304,-7.7304,-7.7304,-7.7304,-7.7304,-7.7304,-7.7304,-7.7304,-7.7304,-7.7304,0.0,0.0,0.0,0.0,0.0,0.0,0.0,0.0,0.0,0.0,0.0,0.0,0.0,0.0,0.0,0.0,0.0,0.0,0.0,0.0,0.0,0.0,0.0,0.0,0.0,0.0,0.0,0.0,0.0,0.0,0.0,0.0,0.0,0.0,0.0,0.0,0.0,0.0,0.0,0.0,0.0,0.0,0.0,0.0,0.0,0.0,0.0,0.0,0.0,0.0,0.0,0.0,0.0,0.0,0.0,0.0,0.0,0.0,0.0,0.0,0.0,0.0,0.0,0.0,0.0,0.0,0.0,0.0,0.0,0.0,0.0,0.0,0.0,0.0,0.0,0.0,0.0,0.0,0.0,0.0,0.0,0.0,0.0,0.0,0.0,0.0,0.0,0.0,0.0,0.0,0.0,0.0,0.0,0.0,0.0,0.0,0.0,0.0,0.0,0.0,0.0,0.0,-7.7304,-7.7304,-7.7304,-7.7304,-7.7304,-7.7304,-7.7304,-7.7304,-7.7304,-7.7304,0.0,0.0,0.0,0.0,0.0,0.0,0.0,0.0,0.0,0.0,0.0,0.0,0.0,0.0,0.0,0.0,0.0,0.0,0.0,0.0,0.0,0.0,0.0,0.0,0.0,0.0,0.0,0.0,0.0,0.0,0.0,0.0,0.0,0.0,0.0,0.0,0.0,0.0,0.0,0.0,0.0,0.0,0.0,0.0,0.0,0.0,0.0,0.0,0.0,0.0,0.0,0.0,0.0,0.0,0.0,0.0,0.0,0.0,0.0,0.0,0.0,0.0,0.0,0.0,0.0,0.0,0.0,0.0,0.0,0.0,0.0,0.0,0.0,0.0,0.0,0.0,0.0,0.0,0.0,0.0,0.0,0.0,0.0,0.0,0.0,0.0,0.0,0.0,0.0,0.0,0.0,0.0,0.0,0.0,0.0,0.0,0.0,0.0,0.0,0.0,0.0,0.0,-7.7304,-7.7304,-7.7304,-7.7304,-7.7304,-7.7304,-7.7304,-7.7304,-7.7304,-7.7304,0.0,0.0,0.0,0.0,0.0,0.0,0.0,0.0,0.0,0.0,0.0,0.0,0.0,0.0,0.0,0.0,0.0,0.0,0.0,0.0,0.0,0.0,0.0,0.0,0.0,0.0,0.0,0.0,0.0,0.0,0.0,0.0,0.0,0.0,0.0,0.0,0.0,0.0,0.0,0.0,0.0,0.0,0.0,0.0,0.0,0.0,0.0,0.0,0.0,0.0,0.0,0.0,0.0,0.0,0.0,0.0,0.0,0.0,0.0,0.0,-7.1779,-7.2496,0.0,0.0,0.0,0.0,0.0,0.0,0.0,0.0,0.0,0.0,0.0,0.0,0.0,0.0,0.0,0.0,0.0,0.0,0.0,0.0,0.0,0.0,0.0,0.0,0.0,0.0,0.0,0.0,0.0,0.0,0.0,0.0,0.0,0.0,0.0,0.0,0.0,0.0,0.0,0.0,-7.7304,-7.7304,-7.7304,-7.7304,-7.7304,-7.7304,-7.7304,-7.7304,-7.7304,-7.7304,-7.7304,0.0,0.0,0.0,0.0,0.0,0.0,0.0,0.0,0.0,0.0,0.0,0.0,0.0,0.0,0.0,0.0,0.0,0.0,0.0,0.0,0.0,0.0,0.0,0.0,0.0,0.0,0.0,0.0,0.0,0.0,0.0,0.0,0.0,0.0,0.0,0.0,0.0,0.0,0.0,0.0,0.0,0.0,0.0,0.0,0.0,0.0,0.0,0.0,0.0,0.0,0.0,0.0,0.0,0.0,0.0,0.0,0.0,0.0,0.0,-7.2102,-7.2496,0.0,0.0,0.0,0.0,0.0,0.0,0.0,0.0,0.0,0.0,0.0,0.0,0.0,0.0,0.0,0.0,0.0,0.0,0.0,0.0,0.0,0.0,0.0,0.0,0.0,0.0,0.0,0.0,0.0,0.0,0.0,0.0,0.0,0.0,0.0,0.0,0.0,0.0,0.0,0.0,-7.7304,-7.7304,-7.7304,-7.7304,-7.7304,-7.7304,-7.7304,-7.7304,-7.7304,-7.7304,-7.7304,0.0,0.0,0.0,0.0,0.0,0.0,0.0,0.0,0.0,0.0,0.0,0.0,0.0,0.0,0.0,0.0,0.0,0.0,0.0,0.0,0.0,0.0,0.0,0.0,0.0,0.0,0.0,0.0,0.0,0.0,0.0,0.0,0.0,0.0,0.0,0.0,0.0,0.0,0.0,0.0,0.0,0.0,0.0,0.0,0.0,0.0,0.0,0.0,0.0,0.0,0.0,0.0,0.0,-7.2496,-7.2496,-7.2496,-7.2496,-7.2496,-7.2496,-7.2496,-7.2496,-7.2496,-7.2496,0.0,0.0,0.0,0.0,0.0,0.0,0.0,0.0,0.0,0.0,0.0,0.0,0.0,0.0,0.0,0.0,0.0,0.0,0.0,0.0,0.0,0.0,-7.7304,-7.7304,-7.7304,-7.7304,-7.7304,0.0,0.0,0.0,0.0,0.0,0.0,0.0,0.0,0.0,0.0,0.0,-7.7304,-7.7304,-7.7304,-7.7304,-7.7304,-7.7304,-7.7304,-7.7304,-7.7304,-7.7304,-7.7304,-7.7304,0.0,0.0,0.0,0.0,0.0,0.0,0.0,0.0,0.0,0.0,0.0,0.0,0.0,0.0,0.0,0.0,0.0,0.0,0.0,0.0,0.0,0.0,0.0,0.0,0.0,0.0,0.0,0.0,0.0,0.0,0.0,0.0,-6.6634,-6.8472,0.0,0.0,0.0,0.0,0.0,0.0,0.0,0.0,0.0,0.0,0.0,0.0,0.0,-7.061,-7.2705,-7.2907,-7.2794,-7.2496,-7.2496,-7.2496,-7.2496,-7.2496,-7.2496,-7.2496,-7.2496,0.0,-7.2496,-7.2496,0.0,0.0,0.0,0.0,0.0,0.0,0.0,0.0,0.0,0.0,0.0,0.0,0.0,0.0,0.0,0.0,0.0,0.0,0.0,0.0,0.0,0.0,-7.7304,-7.7304,-7.7304,-7.7304,-7.7304,-7.7304,-7.7304,-7.7304,-7.7304,-7.7304,0.0,0.0,0.0,0.0,0.0,0.0,-7.7304,-7.7304,-7.7304,-7.7304,-7.7304,-7.7304,-7.7304,-7.7304,-7.7304,-7.7304,-7.7304,-7.7304,-7.7304,-7.7304,0.0,0.0,0.0,0.0,0.0,0.0,0.0,0.0,0.0,0.0,0.0,0.0,0.0,0.0,0.0,0.0,0.0,0.0,0.0,0.0,0.0,0.0,0.0,0.0,0.0,0.0,0.0,0.0,0.0,-6.6956,-6.7985,-6.9187,-6.9768,-7.0247,0.0,0.0,0.0,0.0,0.0,0.0,0.0,0.0,0.0,-6.9341,-6.8726,-6.8823,-6.9778,-7.1594,-7.2496,-7.2496,-7.2496,-7.2496,-7.2496,-7.2496,-7.2496,-7.2496,-7.2496,-7.2496,-7.2496,-7.2496,-7.2511,-7.282,0.0,0.0,0.0,0.0,-7.7304,-7.7304,-7.7304,-7.7304,-7.7304,-7.7304,0.0,0.0,0.0,0.0,0.0,0.0,0.0,-7.7304,-7.7304,-7.7304,-7.7304,-7.7304,-7.7304,-7.7304,-7.7304,-7.7304,-7.7304,-7.7304,-7.7304,-7.7304,-7.7304,-7.7304,0.0,0.0,0.0,-7.7304,-7.7304,-7.7304,-7.7304,-7.7304,-7.7304,-7.7304,-7.7304,-7.7304,-7.7304,-7.7304,-7.7304,-7.7304,-7.7304,-7.7304,-7.7304,0.0,0.0,0.0,0.0,0.0,0.0,0.0,0.0,0.0,0.0,0.0,0.0,0.0,0.0,0.0,0.0,0.0,0.0,0.0,0.0,0.0,0.0,0.0,0.0,0.0,0.0,0.0,0.0,-6.7969,-6.8776,-6.9404,-7.0157,-7.0425,0.0,0.0,0.0,0.0,0.0,0.0,-6.9712,-6.9174,-6.8877,-6.8877,-6.8088,-6.8128,-6.8935,-7.1301,-7.2496,-7.2496,-7.2496,-7.2496,-7.2496,-7.2496,-7.2496,-7.2496,-7.2496,-7.2496,-7.2496,-7.2496,-7.2511,-7.2783,-7.5588,-7.6935,-7.7279,-7.7268,-7.7304,-7.7304,-7.7304,-7.7304,-7.7304,-7.7304,-7.7304,-7.7304,-7.7304,0.0,0.0,0.0,0.0,-7.7304,-7.7304,-7.7304,-7.7304,-7.7304,-7.7304,-7.7304,-7.7304,-7.7304,-7.7304,-7.7304,-7.7304,-7.7304,-7.7304,-7.7304,0.0,-7.7304,-7.7304,-7.7304,-7.7304,-7.7304,-7.7304,-7.7304,-7.7304,-7.7304,-7.7304,-7.7304,-7.7304,-7.7304,-7.7304,-7.7304,-7.7304,-7.7304,-7.7304,-7.7304,0.0,0.0,0.0,0.0,0.0,0.0,0.0,0.0,0.0,0.0,0.0,0.0,0.0,0.0,0.0,0.0,0.0,0.0,0.0,0.0,0.0,0.0,0.0,0.0,0.0,0.0,0.0,0.0,0.0,-6.8788,-6.8869,0.0,0.0,0.0,0.0,-6.9806,-7.0436,-7.0836,-7.0798,-6.8874,-6.7777,-6.7777,-6.7707,-6.9155,-7.2208,-7.2406,-7.2496,-7.2496,-7.2496,-7.2496,-7.2496,-7.2496,-7.2496,-7.2496,-7.2496,-7.2496,-7.2496,-7.2496,-7.2511,-7.2673,-7.4345,-7.5933,-7.7279,-7.7268,-7.7304,-7.7304,-7.7304,-7.7304,-7.7304,-7.7304,-7.7304,-7.7304,-7.7304,-7.7304,0.0,0.0,-7.7304,-7.7304,-7.7304,-7.7304,-7.7304,-7.7304,-7.7304,-7.7304,-7.7304,-7.7304,-7.7304,-7.7304,-7.7304,-7.7304,-7.7304,0.0,-7.7304,-7.7304,-7.7304,-7.7304,-7.7304,-7.7304,-7.7304,-7.7304,-7.7304,-7.7304,-7.7304,-7.7304,-7.7304,-7.7304,-7.7304,-7.7304,-7.7304,-7.7304,-7.7304,-7.7304,-7.7304,0.0,0.0,0.0,0.0,0.0,0.0,0.0,0.0,0.0,0.0,0.0,0.0,0.0,0.0,0.0,0.0,0.0,0.0,0.0,0.0,0.0,0.0,0.0,0.0,0.0,0.0,0.0,0.0,-6.997,-6.9722,0.0,-6.9313,-6.9434,-6.9228,-6.8494,-6.8666,-6.8823,-6.8823,-6.8104,-6.7687,-6.7687,-6.7707,-6.9228,-7.2484,-7.2537,-7.2496,-7.2496,-7.2496,-7.2496,-7.2496,-7.2496,-7.2496,-7.2496,-7.2496,-7.2496,-7.2496,-7.2496,-7.2532,-7.2658,-7.4294,-7.5249,-7.5896,-7.6937,-7.7304,-7.7304,-7.7304,-7.7304,-7.7304,-7.7304,-7.7304,-7.7304,-7.7304,-7.7304,-7.7304,-7.7304,-7.7304,-7.7304,-7.7304,-7.7304,-7.7304,-7.7304,-7.7304,-7.7304,-7.7304,-7.7304,-7.7304,-7.7304,-7.7304,-7.7304,-7.7304,-7.7304,-7.7304,-7.7304,-7.7304,-7.7304,-7.7304,-7.7304,-7.7304,-7.7304,-7.7304,-7.7304,-7.7304,-7.7304,-7.7304,-7.7304,-7.7304,-7.7304,-7.7304,-7.7304,-7.7304,-7.7304,-7.7304,-7.7304,0.0,0.0,0.0,0.0,0.0,0.0,0.0,0.0,0.0,0.0,0.0,0.0,0.0,0.0,0.0,0.0,0.0,0.0,0.0,0.0,0.0,0.0,0.0,0.0,0.0,-6.8408,-6.8932,-7.0383,-7.0103,-6.9508,-6.8838,-6.8743,-6.8457,-6.7741,-6.7687,-6.7687,-6.7687,-6.7687,-6.7687,-6.7687,-6.7671,-6.9247,-7.2484,-7.2112,-7.2165,-7.2496,-7.2496,-7.2496,-7.2496,-7.2496,-7.2496,-7.2496,-7.2496,-7.2496,-7.2496,-7.2496,-7.2496,-7.2642,-7.3964,-7.4661,-7.5065,-7.6423,-7.7084,-7.7304,-7.7304,-7.7304,-7.7304,-7.7304,-7.7304,-7.7304,-7.7304,-7.7304,-7.7304,-7.7304,-7.7304,-7.7304,-7.7304,-7.7304,-7.7304,-7.7304,-7.7304,-7.7304,-7.7304,-7.7304,-7.7304,-7.7304,-7.7304,-7.7304,-7.7304,-7.7304,-7.7304,-7.7304,-7.7304,-7.7304,-7.7304,-7.7304,-7.7304,-7.7304,-7.7304,-7.7304,-7.7304,-7.7304,-7.7304,-7.7304,-7.7304,-7.7304,-7.7304,-7.7304,-7.7304,-7.7304,-7.7304,-7.7304,-7.7304,0.0,0.0,0.0,0.0,0.0,0.0,0.0,0.0,0.0,0.0,0.0,0.0,0.0,0.0,0.0,0.0,0.0,0.0,0.0,0.0,0.0,0.0,0.0,-6.8203,-6.9104,-6.9683,-6.9818,-6.979,-6.9247,-6.7933,-6.7756,-6.7691,-6.7704,-6.7687,-6.7687,-6.7687,-6.7687,-6.7687,-6.7687,-6.7689,-6.9229,-7.2411,-7.1414,-7.1411,-7.2496,-7.2496,-7.2496,-7.2496,-7.2496,-7.2496,-7.2496,-7.2496,-7.2496,-7.2496,-7.2496,-7.2496,-7.2569,-7.3377,-7.4184,-7.5028,-7.5799,-7.6607,-7.7304,-7.7304,-7.7304,-7.7304,-7.7304,-7.7304,-7.7304,-7.7304,-7.7304,-7.7304,-7.7304,-7.7304,-7.7304,-7.7304,-7.7304,-7.7304,-7.7304,-7.7304,-7.7304,-7.7304,-7.7304,-7.7304,-7.7304,-7.7304,-7.7304,-7.7304,-7.7304,-7.7304,-7.7304,-7.7304,0.0,-7.7304,-7.7304,-7.7304,-7.7304,-7.7304,-7.7304,-7.7304,-7.7304,-7.7304,-7.7304,-7.7304,-7.7304,-7.7304,-7.7304,-7.7304,-7.7304,-7.7304,-7.7304,-7.7304,0.0,0.0,0.0,0.0,0.0,0.0,0.0,0.0,0.0,0.0,0.0,0.0,0.0,0.0,0.0,0.0,0.0,0.0,0.0,0.0,0.0,-6.6616,-6.7475,-6.8287,-6.7801,-6.8181,-7.0345,-6.9195,-6.8711,-6.9901,-6.8593,-6.7691,-6.7704,-6.7687,-6.7687,-6.7687,-6.7687,-6.7687,-6.7687,-6.7689,-6.8697,-7.0716,-7.0881,-7.1411,-7.2496,-7.2496,-7.2496,-7.2496,-7.2496,-7.2496,-7.2496,-7.2496,-7.2496,-7.2496,-7.2496,-7.2496,-7.2569,-7.3377,-7.4184,-7.5028,-7.5799,-7.6607,-7.7304,-7.7304,-7.7304,-7.7304,-7.7304,-7.7304,-7.7304,-7.7304,-7.7304,-7.7304,-7.7304,-7.7304,-7.7304,-7.7304,-7.7304,-7.7304,-7.7304,-7.7304,-7.7304,-7.7304,-7.7304,-7.7304,-7.7304,-7.7304,-7.7304,-7.7304,-7.7304,-7.7304,-7.7304,-7.7304,-7.7304,-7.7304,-7.7304,-7.7304,-7.7304,-7.7304,-7.7304,-7.7304,-7.7304,-7.7304,-7.7304,-7.7304,-7.7304,-7.7304,-7.7304,-7.7304,-7.7304,-7.7304,-7.7304,0.0,0.0,0.0,0.0,0.0,0.0,0.0,0.0,0.0,0.0,0.0,0.0,0.0,0.0,0.0,0.0,0.0,0.0,0.0,0.0,0.0,0.0,-6.6635,-6.7441,-6.8281,-6.7983,-6.8425,-7.064,-6.9801,-6.9169,-6.9504,-6.8452,-6.7719,-6.772,-6.7687,-6.7687,-6.7687,-6.7687,-6.7687,-6.7687,-6.7707,-6.8477,-7.0073,-7.044,-7.1248,-7.2496,-7.2496,-7.2496,-7.2496,-7.2496,-7.2496,-7.2496,-7.2496,-7.2496,-7.2496,-7.2496,-7.2496,-7.2569,0.0,0.0,0.0,0.0,-7.69,-7.7304,-7.7304,-7.7304,-7.7304,-7.7304,-7.7304,-7.7304,-7.7304,-7.7304,-7.7304,-7.7304,-7.7304,-7.7304,-7.7304,-7.7304,-7.7304,-7.7304,-7.7304,-7.7304,-7.7304,-7.7304,-7.7304,-7.7304,-7.751,0.0,-7.7365,-7.7304,-7.7304,-7.7304,-7.7304,-7.7304,-7.7304,-7.7304,-7.7304,-7.7304,-7.7304,-7.7304,-7.7304,-7.7304,0.0,0.0,0.0,-7.7304,-7.7304,-7.7304,0.0,0.0,0.0,-7.7304,-7.7304,-7.7304,0.0,0.0,-7.7304,-7.7304,0.0,0.0,0.0,0.0,0.0,0.0,0.0,0.0,0.0,0.0,0.0,0.0,0.0,0.0,0.0,0.0,-6.6393,-6.6912,-6.7967,-6.882,-6.9783,-7.0783,-7.0898,-7.008,-6.7917,-6.7914,-6.7985,-6.772,-6.7794,-6.7794,-6.7687,-6.7687,0.0,0.0,0.0,-6.8421,-6.9963,-7.0036,-7.0844,-7.2386,-7.2459,-7.2496,-7.2496,-7.2496,-7.2496,-7.2496,-7.2496,-7.2496,-7.2496,-7.2496,-7.2496,-7.2532,-7.2716,-7.3634,-7.5102,-7.6717,-7.7304,-7.7304,-7.7304,0.0,0.0,-7.7304,-7.7304,-7.7304,-7.7304,-7.7304,-7.7304,-7.7304,-7.7304,-7.7304,-7.7426,-7.7365,-7.7304,-7.745,-7.745,-7.7389,-7.751,-7.751,-7.751,-7.751,-7.7979,-7.82,-7.7592,-7.745,-7.7426,-7.7426,-7.7365,-7.7304,-7.7426,-7.7365,-7.7304,-7.7304,-7.7365,0.0,-7.7426,-7.745,-7.751,-7.7426,-7.7365,-7.7304,-7.7304,-7.7304,-7.7304,-7.7304,-7.7304,-7.7304,-7.7304,-7.7304,-7.7304,-7.7304,-7.7304,-7.7304,0.0,0.0,0.0,0.0,0.0,0.0,0.0,0.0,0.0,0.0,0.0,0.0,0.0,0.0,0.0,-6.6234,-6.6605,-6.6733,-6.6444,-6.8783,-7.0667,-7.086,-7.0898,-7.008,-6.7917,-6.9247,-6.9542,-6.781,-6.8245,-6.8346,-6.7741,-6.7687,-6.7687,-6.7687,-6.7687,-6.8164,-6.9119,-6.9779,-7.0587,-7.1541,-7.2202,0.0,-7.2496,-7.2496,-7.2496,-7.2496,-7.2496,-7.2496,-7.2496,-7.2496,-7.2496,-7.2642,-7.3927,-7.4625,-7.5102,-7.6717,-7.7304,-7.7304,-7.7304,-7.7304,-7.7304,-7.7304,-7.7304,-7.7304,-7.7304,-7.7304,0.0,-7.7304,-7.7304,-7.7426,-7.796,-7.771,-7.757,-7.8602,-7.8447,-7.8255,-7.8716,-7.8816,-7.8816,-7.8816,-7.8914,-7.8962,-7.8865,-7.8432,-7.8128,-7.8128,-7.7651,-7.751,-7.8072,-7.7592,-7.7304,-7.7304,-7.7768,-7.8128,-7.8128,-7.8551,-7.8653,-7.8146,-7.7629,-7.7304,-7.7304,-7.7304,-7.7304,-7.7304,-7.7304,-7.7304,-7.7304,-7.7304,-7.7304,-7.7304,-7.7304,-7.7304,0.0,0.0,0.0,0.0,0.0,0.0,0.0,0.0,0.0,0.0,0.0,-6.1754,-6.3706,0.0,-6.5883,-6.6558,-6.678,-6.7262,-6.8239,-6.9832,-7.0898,-7.0898,-7.0898,-7.0478,-6.9397,-6.9918,-6.9816,-6.8605,-6.8586,-6.848,-6.8097,-6.7863,-6.7687,-6.7687,-6.7687,-6.8091,-6.8898,-6.9706,-7.0513,-7.1321,-7.2129,-7.2496,-7.2496,-7.2496,-7.2496,-7.2496,-7.2496,-7.2496,-7.2496,-7.2496,-7.2496,-7.2606,-7.3817,-7.4551,-7.5065,-7.6276,-7.7179,-7.7768,-7.7426,-7.751,-7.7768,-7.7426,-7.7304,-7.7304,-7.7304,-7.7304,-7.7304,-7.7304,-7.7304,-7.745,-7.809,-7.8072,-7.8035,-7.8962,-7.8962,-7.8853,-7.9152,-7.9198,-7.9198,-7.9198,-7.9425,-7.9556,-7.9244,-7.9198,-7.9105,-7.8804,-7.8447,-7.8341,-7.8704,-7.8447,-7.8272,-7.8272,-7.8551,-7.8754,-7.8754,-7.901,-7.8914,-7.8363,-7.8016,-7.7651,-7.7304,-7.7304,-7.7304,-7.7304,-7.7304,-7.7304,-7.7304,-7.7304,-7.7304,-7.7304,-7.7304,-7.7304,0.0,0.0,0.0,0.0,0.0,0.0,0.0,-5.8481,-6.5403,-6.5841,-6.4176,-6.3154,-6.4812,-6.5853,-6.6603,-6.6875,-6.6884,-6.7825,-7.0533,-7.0883,-7.0898,-7.0898,-7.0898,-7.0911,-7.0921,-7.0348,-6.9801,-6.9353,-6.8978,-6.875,-6.8511,-6.8097,-6.781,-6.7687,-6.7687,-6.8017,-6.8678,-6.9449,-7.0257,-7.1101,-7.1872,-7.2349,-7.2496,-7.2496,-7.2496,-7.2496,-7.263,-7.2686,-7.2686,-7.2816,-7.2871,-7.289,-7.3442,-7.4233,-7.5132,-7.5859,-7.7008,-7.82,-7.7651,-7.7903,-7.8379,-7.7846,-7.7651,-7.7651,-7.7651,-7.7651,-7.7651,-7.751,-7.7533,-7.7789,-7.8325,-7.8484,-7.8653,-7.938,-7.9469,-7.9425,-7.9513,-7.9556,-7.9556,-7.9556,-7.9929,-8.0125,-7.968,-7.9969,-8.0086,-7.9469,-7.929,-7.9244,-7.938,-7.929,-7.9198,-7.9198,-7.929,-7.9425,-7.9556,-7.9425,-7.9152,-7.8653,-7.8432,-7.8072,-7.751,-7.7365,-7.7304,-7.7304,-7.7304,-7.7304,-7.7304,-7.7304,-7.7304,-7.7304,-7.7304,-7.7304,-0.6936,-2.0017,-3.2915,-4.6009,-4.6895,-4.5812,0.0,-5.7424,-6.3675,-6.5497,-6.5651,-6.5529,-6.5761,-6.6371,-6.6848,-6.6887,-6.6907,-6.786,-7.0525,-7.0922,-7.0898,-7.0898,-7.0898,-7.0911,-7.0921,-7.0831,-7.0362,-6.9393,-6.9701,-6.9511,-6.8521,-6.8464,-6.8161,-6.7741,-6.7687,-6.7724,-6.7834,-6.8641,-6.9449,-7.022,-7.1064,-7.1835,-7.2496,-7.2496,-7.2496,-7.2553,-7.3066,-7.329,-7.3341,-7.3888,-7.4117,-7.4026,-7.3616,-7.4369,-7.575,-7.6,-7.7008,-7.8309,-7.82,-7.8551,-7.9105,-7.901,-7.901,-7.901,-7.901,-7.901,-7.8865,-7.8325,-7.8551,-7.901,-7.9058,-7.9105,-7.938,-8.0608,-8.0427,-8.0163,-8.075,-8.0888,-8.0888,-8.0888,-8.0959,-8.0959,-8.0888,-8.0959,-8.075,-8.0125,-7.9556,-7.938,-7.9929,-7.9513,-7.9198,-7.9198,-7.9685,-8.024,-8.0855,-8.0352,-7.9969,-7.9888,-7.8902,-7.8255,-7.82,-7.7629,-7.7304,-7.7304,-7.7304,-7.7304,-7.7304,-7.7304,-7.7304,-7.7304,-7.7304,-7.7304,-1.2288,-2.4389,-3.4675,-4.4071,-4.9017,-5.2723,-5.7021,-6.0487,-6.3372,-6.5464,-6.5902,-6.589,-6.5878,-6.6446,-6.6908,-6.6911,-6.6883,-6.7848,-7.0526,-7.0911,-7.0899,-7.0887,-7.0898,-7.092,-7.0891,-7.0892,-7.0681,-7.0266,-7.0129,-6.9775,-6.9021,-6.866,-6.8368,-6.8161,-6.7863,-6.7863,-6.8161,-6.8673,-6.9302,-7.011,-7.0917,-7.1913,-7.2997,-7.2686,-7.2496,-7.2553,-7.3119,-7.3391,-7.3442,-7.4072,-7.4293,-7.4249,-7.4026,-7.4948,-7.6316,-7.6101,-7.7154,-7.8853,-7.8853,-7.9198,-7.9642,-7.9335,-7.9198,-7.9198,-7.9198,-7.9198,-7.9152,-7.8865,-7.901,-7.929,-7.9642,-7.9727,-7.9929,-8.0888,-8.0888,-8.075,-8.1061,-8.1093,-8.1093,-8.1093,-8.1093,-8.1093,-8.1093,-8.1093,-8.0991,-8.0716,-8.0463,-8.039,-8.0643,-8.0463,-8.0277,-8.0277,-8.0537,-8.0822,-8.1093,-8.0855,-8.0499,-8.0125,-7.96,-7.9198,-7.8853,-7.8255,-7.7846,-7.7846,-7.7846,-7.7846,-7.7846,-7.8218,-7.8394,-7.8394,-7.8394,-7.8394,-1.7157,-2.7949,-3.6362,-4.1698,-5.0501,-5.8517,-6.0865,-6.2124,-6.3238,-6.4738,-6.5483,-6.5904,-6.5887,-6.6465,-6.6917,-6.6911,-6.6891,-6.782,-7.0525,-7.0908,-7.0921,-7.0914,-7.0898,-7.0898,-7.0898,-7.0898,-7.0898,-7.0898,-7.0524,-7.0095,-6.955,-6.9021,-6.8705,-6.8705,-6.821,-6.8097,-6.8511,-6.8689,-6.9151,-6.9779,-7.0587,-7.1709,-7.3056,-7.3045,-7.2997,-7.305,-7.3602,-7.385,-7.3897,-7.4547,-7.4749,-7.4749,-7.4588,-7.5338,-7.6582,-7.6442,-7.771,-7.9469,-7.9469,-7.9847,-8.0315,-7.9847,-7.9723,-7.9723,-7.9723,-7.9723,-7.968,-7.9513,-7.9556,-7.9765,-8.0008,-8.0239,-8.0499,-8.0991,-8.1093,-8.1093,-8.1093,-8.1093,-8.1093,-8.1093,-8.1093,-8.1093,-8.1093,-8.1093,-8.1093,-8.1093,-8.1093,-8.1093,-8.1093,-8.1093,-8.1093,-8.1093,-8.1093,-8.1093,-8.1093,-8.1093,-8.0888,-8.0427,-8.0201,-7.9888,-7.9469,-7.8902,-7.8588,-7.8588,-7.8588,-7.8588,-7.8588,-7.8962,-7.9198,-7.9198,-7.9198,-7.9198,-1.9139,-3.013,-4.013,-4.2387,-5.0513,-5.7936,-5.8033,-6.05,-6.2815,-6.2857,-6.4465,-6.5904,-6.5887,-6.6465,-6.6917,-6.6911,-6.6891,-6.782,-7.0525,-7.0908,-7.0921,-7.0914,-7.0898,-7.0898,-7.0898,-7.0898,-7.0898,-7.0898,-7.0898,-7.0652,-7.0095,-6.9588,-6.9272,-6.9272,-6.875,-6.8511,-6.8511,-6.8548,-6.8655,-6.8972,-6.9743,-7.086,-7.2286,-7.3605,-7.4249,-7.4293,-7.479,-7.5054,-7.5091,-7.5686,-7.5947,-7.5917,-7.5306,-7.5588,-7.6389,-7.7303,-7.8675,-8.0048,-8.0048,-8.0499,-8.1061,-8.1061,-8.1061,-8.1061,-8.1061,-8.1061,-8.0888,-8.0277,-8.0535,-8.0888,-8.0239,-8.0608,-8.1061,-8.1093,-8.1093,-8.1093,-8.1093,-8.1093,-8.1093,-8.1093,-8.1093,-8.1093,-8.1093,-8.1093,-8.1093,-8.1093,-8.1093,-8.1093,-8.1093,-8.1093,-8.1093,-8.1093,-8.1093,-8.1093,-8.1093,-8.1093,-8.1093,-8.1061,-8.0463,-8.0087,-8.0048,-7.9513,-7.9152,-7.9152,-7.9152,-7.9152,-7.9152,-7.9198,-7.9198,-7.9198,-7.9198,-7.9198,-2.0142,-2.7643,-3.538,-4.1463,-5.053,-5.7859,-5.7924,-6.0482,-6.2817,-6.2815,-6.445,-6.5497,-6.4112,-6.5507,-6.6888,-6.6897,-6.7883,-6.9,-7.0091,-7.0759,-7.1141,-7.1115,-7.0953,-7.0898,-7.0898,-7.0898,-7.0898,-7.0898,-7.0898,-7.0652,-7.0129,-6.9918,-6.9811,-6.9811,-6.9313,-6.919,-6.9588,-6.9231,-6.9347,-6.9985,-7.1783,-7.2741,-7.3032,-7.4271,-7.467,-7.4336,-7.4866,-7.5091,-7.5127,-7.5749,-7.6015,-7.5976,-7.5787,-7.6223,-7.7067,-7.7943,-7.8908,-7.9982,-8.0558,-8.0888,-8.1093,-8.1093,-8.1093,-8.1093,-8.1093,-8.1093,-8.1061,-8.0822,-8.0926,-8.1061,-8.0822,-8.0959,-8.1093,-8.1093,-8.1093,-8.1093,-8.1093,-8.1093,-8.1093,-8.1093,-8.1093,-8.1093,-8.1093,-8.1093,-8.1093,-8.1093,-8.1093,-8.1093,-8.1093,-8.1093,-8.1093,-8.1093,-8.1093,-8.1093,-8.1093,-8.1093,-8.1093,-8.1093,-8.0888,-8.075,-8.075,-8.0125,-7.9806,-7.9806,-7.9806,-7.9806,-7.9806,-8.024,-8.0463,-8.0463,-8.0463,-8.0463,-1.9022,-2.5691,-3.3587,-4.1146,-4.9252,-5.5906,-5.7536,-5.9541,-6.106,-6.1074,-6.2091,-6.301,-6.28,-6.4654,-6.6535,-6.7658,-6.8742,-6.9722,-7.0453,-7.0959,-7.1295,-7.1203,-7.1029,-7.0898,-7.0898,-7.0898,-7.0898,-7.0898,-7.0898,-7.0748,-7.0394,-7.0195,-7.0162,-7.0362,-6.9847,-6.9738,-7.0095,-6.9775,-6.9888,-7.0516,-7.2509,-7.3497,-7.362,-7.4866,-7.5236,-7.4943,-7.5271,-7.5413,-7.5446,-7.5848,-7.6015,-7.6015,-7.6015,-7.6322,-7.6976,-7.8092,-7.8861,-7.9515,-8.0708,-8.1093,-8.1093,-8.1093,-8.1093,-8.1093,-8.1093,-8.1093,-8.1093,-8.1093,-8.1093,-8.1093,-8.1093,-8.1093,-8.1093,-8.1093,-8.1093,-8.1093,-8.1093,-8.1093,-8.1093,-8.1093,-8.1093,-8.1093,-8.1093,-8.1093,-8.1093,-8.1093,-8.1093,-8.1093,-8.1093,-8.1093,-8.1093,-8.1093,-8.1093,-8.1093,-8.1093,-8.1093,-8.1093,-8.1093,-8.1093,-8.1093,-8.1093,-8.0716,-8.0463,-8.0463,-8.0463,-8.0463,-8.0463,-8.0888,-8.1093,-8.1093,-8.1093,-8.1093,-1.6126,-2.4466,-3.4675,-4.1114,-4.6824,-5.2129,-5.6597,-5.77,-5.7878,-5.7927,-5.798,-5.9009,-6.2138,-6.3886,-6.5804,-6.8783,-6.9327,-6.9918,-7.1396,-7.1438,-7.1295,-7.1223,-7.1053,-7.0898,-7.0898,-7.0898,-7.0898,-7.0898,-7.0898,-7.0898,-7.0898,-7.0432,-7.0362,-7.0898,-7.0432,-7.0129,-7.0129,-7.0129,-7.0266,-7.0561,-7.1975,-7.3105,-7.3947,-7.5372,-7.6015,-7.6015,-7.6015,-7.6015,-7.6015,-7.6015,-7.6015,-7.6015,-7.6015,-7.6015,-7.6207,-7.7861,-7.8477,-7.8746,-8.0516,-8.1093,-8.1093,-8.1093,-8.1093,-8.1093,-8.1093,-8.1093,-8.1093,-8.1093,-8.1093,-8.1093,-8.1093,-8.1093,-8.1093,-8.1093,-8.1093,-8.1093,-8.1093,-8.1093,-8.1093,-8.1093,-8.1093,-8.1093,-8.1093,-8.1093,-8.1093,-8.1093,-8.1093,-8.1093,-8.1093,-8.1093,-8.1093,-8.1093,-8.1093,-8.1093,-8.1093,-8.1093,-8.1093,-8.1093,-8.1093,-8.1093,-8.1093,-8.1093,-8.1093,-8.1093,-8.1093,-8.1093,-8.1093,-8.1093,-8.1093,-8.1093,-8.1093,-8.1093,-1.9395,-2.5297,-3.1642,-3.6927,-4.3233,-4.8995,-5.2208,-5.5525,-5.7883,-5.7912,-5.892,-6.0114,-6.139,-6.2974,-6.4583,-6.5881,-6.795,-6.9531,-6.9996,-7.0862,-7.1418,-7.1412,-7.1092,-7.0898,-7.0898,-7.0898,-7.0898,-7.0898,-7.0898,-7.0898,-7.0898,-7.0777,-7.0777,-7.0898,-7.0777,-7.0681,-7.0681,-7.0681,-7.0853,-7.1102,-7.2576,-7.352,-7.3947,-7.5372,-7.6015,-7.6015,-7.6015,-7.6015,-7.6015,-7.6015,-7.6015,-7.6015,-7.6015,-7.6015,-7.6207,-7.7861,-7.8477,-7.8746,-8.0516,-8.1093,-8.1093,-8.1093,-8.1093,-8.1093,-8.1093,-8.1093,-8.1093,-8.1093,-8.1093,-8.1093,-8.1093,-8.1093,-8.1093,-8.1093,-8.1093,-8.1093,-8.1093,-8.1093,-8.1093,-8.1093,-8.1093,-8.1093,-8.1093,-8.1093,-8.1093,-8.1093,-8.1093,-8.1093,-8.1093,-8.1093,-8.1093,-8.1093,-8.1093,-8.1093,-8.1093,-8.1093,-8.1093,-8.1093,-8.1093,-8.1093,-8.1093,-8.1093,-8.1093,-8.1093,-8.1093,-8.1093,-8.1093,-8.1093,-8.1093,-8.1093,-8.1093,-8.1093,-2.1123,-2.6291,-3.1719,-3.6166,-4.2574,-4.8369,-5.0719,-5.3155,-5.5215,-5.6236,-5.7499,-5.8909,-6.0629,-6.2142,-6.3854,-6.6166,-6.8073,-6.9603,-7.0468,-7.1156,-7.156,-7.1485,-7.1203,-7.0979,-7.0925,-7.0898,-7.0898,-7.0898,-7.0898,-7.0898,-7.0898,-7.0898,-7.0898,-7.0898,-7.0898,-7.0898,-7.0898,-7.0898,-7.0979,-7.1121,-7.2361,-7.3206,-7.3756,-7.4896,-7.563,-7.6015,-7.6015,-7.6015,-7.6015,-7.6015,-7.6015,-7.6015,-7.6015,-7.6015,-7.6169,-7.7476,-7.8207,-7.8669,-8.0054,-8.0785,-8.1093,-8.1093,-8.1093,-8.1093,-8.1093,-8.1093,-8.1093,-8.1093,-8.1093,-8.1093,-8.1093,-8.1093,-8.1093,-8.1093,-8.1093,-8.1093,-8.1093,-8.1093,-8.1093,-8.1093,-8.1093,-8.1093,-8.1093,-8.1093,-8.1093,-8.1093,-8.1093,-8.1093,-8.1093,-8.1093,-8.1093,-8.1093,-8.1093,-8.1093,-8.1093,-8.1093,-8.1093,-8.1093,-8.1093,-8.1093,-8.1093,-8.1093,-8.1093,-8.1093,-8.1093,-8.1093,-8.1093,-8.1093,-8.1093,-8.1093,-8.1093,-8.1285,-2.2167,-2.7286,-3.3476,-3.721,-4.315,-4.852,-5.0225,-5.1083,-5.2027,-5.4179,-5.53,-5.6913,-6.0107,-6.1631,-6.3763,-6.7801,-6.8963,-6.9962,-7.1601,-7.1737,-7.1651,-7.1498,-7.1335,-7.1115,-7.0925,-7.0898,-7.0898,-7.0898,-7.0898,-7.0898,-7.0898,-7.0898,-7.0898,-7.0898,-7.0898,-7.0898,-7.0898,-7.0898,-7.0898,-7.0898,-7.1783,-7.2668,-7.3553,-7.4322,-7.5168,-7.6015,-7.6015,-7.6015,-7.6015,-7.6015,-7.6015,-7.6015,-7.6015,-7.6015,-7.6092,-7.6976,-7.7784,-7.8631,-7.9515,-8.0362,-8.1093,-8.1093,-8.1093,-8.1093,-8.1093,-8.1093,-8.1093,-8.1093,-8.1093,-8.1093,-8.1093,-8.1093,-8.1093,-8.1093,-8.1093,-8.1093,-8.1093,-8.1093,-8.1093,-8.1093,-8.1093,-8.1093,-8.1093,-8.1093,-8.1093,-8.1093,-8.1093,-8.1093,-8.1093,-8.1093,-8.1093,-8.1093,-8.1093,-8.1093,-8.1093,-8.1093,-8.1093,-8.1093,-8.1093,-8.1093,-8.1093,-8.1093,-8.1093,-8.1093,-8.1093,-8.1093,-8.1093,-8.1093,-8.1093,-8.1093,-8.1093,-8.1516,-2.3779,-2.8369,-3.3516,-3.721,-4.184,-4.5767,-4.7438,-5.0301,-5.2947,-5.4282,-5.5929,-5.7959,-6.0873,-6.2887,-6.4888,-6.7236,-6.9104,-7.0431,-7.0859,-7.1386,-7.1651,-7.1498,-7.1335,-7.1115,-7.0925,-7.0898,-7.0898,-7.0898,-7.0898,-7.0898,-7.0898,-7.0898,-7.0898,-7.0898,-7.0898,-7.0898,-7.0898,-7.0898,-7.0898,-7.0898,-7.1783,-7.2668,-7.3553,-7.4322,-7.5168,-7.6015,-7.6015,-7.6015,-7.6015,-7.6015,-7.6015,-7.6015,-7.6015,-7.6015,-7.6092,-7.6976,-7.7784,-7.8631,-7.9515,-8.0362,-8.1093,-8.1093,-8.1093,-8.1093,-8.1093,-8.1093,-8.1093,-8.1093,-8.1093,-8.1093,-8.1093,-8.1093,-8.1093,-8.1093,-8.1093,-8.1093,-8.1093,-8.1093,-8.1093,-8.1093,-8.1093,-8.1093,-8.1093,-8.1093,-8.1093,-8.1093,-8.1093,-8.1093,-8.1093,-8.1093,-8.1093,-8.1093,-8.1093,-8.1093,-8.1093,-8.1093,-8.1093,-8.1093,-8.1093,-8.1093,-8.1093,-8.1093,-8.1093,-8.1093,-8.1093,-8.1093,-8.1093,-8.1093,-8.1093,-8.1093,-8.1093,-8.1516,-2.5845,-3.0766,-3.6132,-3.8729,-4.2695,-4.6338,-4.7909,-5.0199,-5.2305,-5.3483,-5.5249,-5.7529,-6.0769,-6.2803,-6.4958,-6.8062,-6.9322,-7.0236,-7.1104,-7.1601,-7.1786,-7.1511,-7.1397,-7.1223,-7.0914,-7.0898,-7.0898,-7.0898,-7.0898,-7.0898,-7.0898,-7.0898,-7.0898,-7.0898,-7.0898,-7.0898,-7.0898,-7.0898,-7.0898,-7.0898,-7.1321,-7.2206,-7.3514,-7.3899,-7.4784,-7.6015,-7.6015,-7.6015,-7.6015,-7.6015,-7.6015,-7.6015,-7.6015,-7.6015,-7.6053,-7.6476,-7.74,-7.8554,-7.8977,-7.9977,-8.1093,-8.1093,-8.1093,-8.1093,-8.1093,-8.1093,-8.1093,-8.1093,-8.1093,-8.1093,-8.1093,-8.1093,-8.1093,-8.1093,-8.1093,-8.1093,-8.1093,-8.1093,-8.1093,-8.1093,-8.1093,-8.1093,-8.1093,-8.1093,-8.1093,-8.1093,-8.1093,-8.1093,-8.1093,-8.1093,-8.1093,-8.1093,-8.1093,-8.1093,-8.1093,-8.1093,-8.1093,-8.1093,-8.1093,-8.1093,-8.1093,-8.1093,-8.1093,-8.1093,-8.1093,-8.1093,-8.1093,-8.1093,-8.1093,-8.1093,-8.1516,-8.217,-2.7198,-3.2871,-3.8535,-3.9985,-4.3682,-4.7503,-4.8865,-5.0191,-5.1542,-5.2989,-5.4663,-5.7037,-6.0809,-6.2871,-6.5217,-6.8868,-6.9536,-7.0039,-7.1351,-7.1768,-7.1827,-7.1524,-7.1485,-7.1353,-7.094,-7.0898,-7.0898,-7.0898,-7.0898,-7.0898,-7.0898,-7.0898,-7.0898,-7.0898,-7.0898,-7.0898,-7.0898,-7.0898,-7.0898,-7.0898,-7.0898,-7.1706,-7.3245,-7.3399,-7.4322,-7.5745,-7.5938,-7.6015,-7.6015,-7.6015,-7.6015,-7.6015,-7.6015,-7.6015,-7.6015,-7.6015,-7.6938,-7.8246,-7.8438,-7.9515,-8.0862,-8.1054,-8.1093,-8.1093,-8.1093,-8.1093,-8.1093,-8.1093,-8.1093,-8.1093,-8.1093,-8.1093,-8.1093,-8.1093,-8.1093,-8.1093,-8.1093,-8.1093,-8.1093,-8.1093,-8.1093,-8.1093,-8.1093,-8.1093,-8.1093,-8.1093,-8.1093,-8.1093,-8.1093,-8.1093,-8.1093,-8.1093,-8.1093,-8.1093,-8.1093,-8.1093,-8.1093,-8.1093,-8.1093,-8.1093,-8.1093,-8.1093,-8.1093,-8.1093,-8.1093,-8.1093,-8.1093,-8.1093,-8.1093,-8.1131,-8.1939,-8.2747,-2.6777,-3.2871,-3.8535,-3.9985,-4.3682,-4.7531,-4.8894,-5.022,-5.1819,-5.3999,-5.5645,-5.7871,-6.1905,-6.4276,-6.6281,-6.8542,-6.9655,-7.0444,-7.0912,-7.1408,-7.1677,-7.1497,-7.1485,-7.1353,-7.094,-7.0898,-7.0898,-7.0898,-7.0898,-7.0898,-7.0898,-7.0898,-7.0898,-7.0898,-7.0898,-7.0898,-7.0898,-7.0898,-7.0898,-7.0898,-7.0898,-7.1398,-7.236,-7.3129,-7.3976,-7.4861,-7.5668,-7.6015,-7.6015,-7.6015,-7.6015,-7.6015,-7.6015,-7.6015,-7.6015,-7.6015,-7.6592,-7.7515,-7.8246,-7.9131,-8.0054,-8.0823,-8.1093,-8.1093,-8.1093,-8.1093,-8.1093,-8.1093,-8.1093,-8.1093,-8.1093,-8.1093,-8.1093,-8.1093,-8.1093,-8.1093,-8.1093,-8.1093,-8.1093,-8.1093,-8.1093,-8.1093,-8.1093,-8.1093,-8.1093,-8.1093,-8.1093,-8.1093,-8.1093,-8.1093,-8.1093,-8.1093,-8.1093,-8.1093,-8.1093,-8.1093,-8.1093,-8.1093,-8.1093,-8.1093,-8.1093,-8.1093,-8.1093,-8.1093,-8.1093,-8.1093,-8.1093,-8.1093,-8.1093,-8.1131,-8.1939,-8.2747,-2.6903,-3.2941,-3.8748,-4.0894,-4.4304,-4.7735,-4.9902,-5.0822,-5.2002,-5.4708,-5.6543,-5.8819,-6.2736,-6.4982,-6.666,-6.8352,-6.9322,-7.0105,-7.0529,-7.1239,-7.159,-7.1347,-7.1432,-7.1353,-7.094,-7.0898,-7.0898,-7.0898,-7.0898,-7.0898,-7.0898,-7.0898,-7.0898,-7.0898,-7.0898,-7.0898,-7.0898,-7.0898,-7.0898,-7.0898,-7.0898,-7.136,-7.2206,-7.3091,-7.3937,-7.4745,-7.563,-7.6015,-7.6015,-7.6015,-7.6015,-7.6015,-7.6015,-7.6015,-7.6015,-7.6015,-7.6553,-7.74,-7.8207,-7.9054,-7.9939,-8.0823,-8.1093,-8.1093,-8.1093,-8.1093,-8.1093,-8.1093,-8.1093,-8.1093,-8.1093,-8.1093,-8.1093,-8.1093,-8.1093,-8.1093,-8.1093,-8.1093,-8.1093,-8.1093,-8.1093,-8.1093,-8.1093,-8.1093,-8.1093,-8.1093,-8.1093,-8.1093,-8.1093,-8.1093,-8.1093,-8.1093,-8.1093,-8.1093,-8.1093,-8.1093,-8.1093,-8.1093,-8.1093,-8.1093,-8.1093,-8.1093,-8.1093,-8.1093,-8.1093,-8.1093,-8.1093,-8.1093,-8.1362,-8.1823,-8.267,-8.3555,-2.7703,-3.3414,-3.8961,-4.2213,-4.4758,-4.7299,-5.0508,-5.1169,-5.2002,-5.5058,-5.725,-5.9734,-6.3225,-6.5242,-6.6837,-6.8023,-6.9001,-6.968,-7.0094,-7.1003,-7.1558,-7.1307,-7.1447,-7.1412,-7.1029,-7.0914,-7.0898,-7.0898,-7.0898,-7.0898,-7.0898,-7.0898,-7.0898,-7.0898,-7.0898,-7.0898,-7.0898,-7.0898,-7.0898,-7.0898,-7.0898,-7.1206,-7.186,-7.2976,-7.3822,-7.4399,-7.5515,-7.6015,-7.6015,-7.6015,-7.6015,-7.6015,-7.6015,-7.6015,-7.6015,-7.6015,-7.6399,-7.7053,-7.813,-7.89,-7.9592,-8.0746,-8.1093,-8.1093,-8.1093,-8.1093,-8.1093,-8.1093,-8.1093,-8.1093,-8.1093,-8.1093,-8.1093,-8.1093,-8.1093,-8.1093,-8.1093,-8.1093,-8.1093,-8.1093,-8.1093,-8.1093,-8.1093,-8.1093,-8.1093,-8.1093,-8.1093,-8.1093,-8.1093,-8.1093,-8.1093,-8.1093,-8.1093,-8.1093,-8.1093,-8.1093,-8.1093,-8.1093,-8.1093,-8.1093,-8.1093,-8.1093,-8.1093,-8.1093,-8.1093,-8.1093,-8.1093,-8.1323,-8.1747,-8.2324,-8.3439,-8.4439,-2.9069,-3.4245,-3.9196,-4.363,-4.489,-4.6083,-5.0287,-5.102,-5.1789,-5.5026,-5.7846,-6.0613,-6.3392,-6.5242,-6.6677,-6.7542,-6.8614,-6.9398,-6.9569,-7.0689,-7.1487,-7.1483,-7.1616,-7.1555,-7.1223,-7.1029,-7.0898,-7.0898,-7.0898,-7.0898,-7.0898,-7.0898,-7.0898,-7.0898,-7.0898,-7.0898,-7.0898,-7.0898,-7.0898,-7.0898,-7.0898,-7.0898,-7.0975,-7.2706,-7.3514,-7.363,-7.5284,-7.6015,-7.6015,-7.6015,-7.6015,-7.6015,-7.6015,-7.6015,-7.6015,-7.6015,-7.6015,-7.6245,-7.79,-7.8515,-7.8784,-8.0554,-8.1093,-8.1093,-8.1093,-8.1093,-8.1093,-8.1093,-8.1093,-8.1093,-8.1093,-8.1093,-8.1093,-8.1093,-8.1093,-8.1093,-8.1093,-8.1093,-8.1093,-8.1093,-8.1093,-8.1093,-8.1093,-8.1093,-8.1093,-8.1093,-8.1093,-8.1093,-8.1093,-8.1093,-8.1093,-8.1093,-8.1093,-8.1093,-8.1093,-8.1093,-8.1093,-8.1093,-8.1093,-8.1093,-8.1093,-8.1093,-8.1093,-8.1093,-8.1093,-8.1093,-8.1093,-8.19,-8.2285,-8.2324,-8.4093,-8.5324,-2.7769,-3.3434,-3.8748,-4.1104,-4.4033,-4.6991,-4.9259,-5.1113,-5.3028,-5.5834,-5.8675,-6.1502,-6.4129,-6.6127,-6.7506,-6.8161,-6.884,-6.9512,-7.0064,-7.0792,-7.1285,-7.1272,-7.1223,-7.1137,-7.1004,-7.094,-7.0898,-7.0898,-7.0898,-7.0898,-7.0898,-7.0898,-7.0898,-7.0898,-7.0898,-7.0898,-7.0898,-7.0898,-7.0898,-7.0898,-7.0898,-7.0898,-7.0975,-7.2706,-7.3514,-7.3591,-7.5284,-7.6015,-7.6015,-7.6015,-7.6015,-7.6015,-7.6015,-7.6015,-7.6015,-7.6015,-7.6015,-7.6169,-7.7284,-7.8015,-7.8669,-7.9823,-8.0631,-8.1093,-8.1093,-8.1093,-8.1093,-8.1093,-8.1093,-8.1093,-8.1093,-8.1093,-8.1093,-8.1093,-8.1093,-8.1093,-8.1093,-8.1093,-8.1093,-8.1093,-8.1093,-8.1093,-8.1093,-8.1093,-8.1093,-8.1093,-8.1093,-8.1093,-8.1093,-8.1093,-8.1093,-8.1093,-8.1093,-8.1093,-8.1093,-8.1093,-8.1093,-8.1093,-8.1093,-8.1093,-8.1093,-8.1093,-8.1093,-8.1093,-8.1093,-8.1093,-8.1093,-8.19,-8.2901,-8.4093,-8.5209,-8.5863,-2.8748,-3.4017,-3.8771,-4.1403,-4.4219,-4.6861,-4.9242,-5.1301,-5.3615,-5.6453,-5.9512,-6.2319,-6.4226,-6.627,-6.7915,-6.8416,-6.8935,-6.955,-7.0287,-7.0868,-7.1239,-7.1308,-7.1144,-7.1004,-7.1004,-7.094,-7.0898,-7.0898,-7.0898,-7.0898,-7.0898,-7.0898,-7.0898,-7.0898,-7.0898,-7.0898,-7.0898,-7.0898,-7.0898,-7.0898,-7.0898,-7.0898,-7.0937,-7.236,-7.3206,-7.3591,-7.4938,-7.5707,0.0,-7.6015,-7.6015,-7.6015,-7.6015,-7.6015,-7.6015,-7.6015,-7.6015,-7.613,-7.6976,-7.7823,-7.8631,-7.9515,-8.04,-8.1093,-8.1093,-8.1093,-8.1093,-8.1093,-8.1093,-8.1093,-8.1093,-8.1093,-8.1093,-8.1093,-8.1093,-8.1093,-8.1093,-8.1093,-8.1093,-8.1093,-8.1093,-8.1093,-8.1093,-8.1093,-8.1093,-8.1093,-8.1093,-8.1093,-8.1093,-8.1093,-8.1093,-8.1093,-8.1093,-8.1093,-8.1093,-8.1093,-8.1093,-8.1093,-8.1093,-8.1093,-8.1093,-8.1093,-8.1093,-8.1093,-8.1093,-8.1246,-8.1554,-8.2708,-8.3978,-8.5363,-8.5863,-8.6094,0.0,-3.5554,-3.9242,-4.3559,-4.4941,-4.6106,-4.9772,-5.1667,0.0,-5.6726,-6.0249,-6.3073,-6.3789,-6.6003,-6.793,-6.8464,-6.9021,-6.9623,-7.0371,-7.0912,-7.1289,-7.1433,-7.1299,-7.118,-7.118,-7.1004,-7.0898,-7.0898,-7.0898,-7.0898,-7.0898,-7.0898,-7.0898,-7.0898,-7.0898,-7.0898,-7.0898,-7.0898,-7.0898,-7.0898,-7.0898,-7.0898,-7.0937,-7.1783,-7.2668,-7.3553,-7.4361,-7.5207,-7.6015,-7.6015,-7.6015,-7.6015,-7.6015,-7.6015,-7.6015,-7.6015,-7.6015,-7.613,-7.6938,-7.7746,-7.8631,-7.9592,-8.0439,-8.1093,-8.1093,-8.1093,-8.1093,-8.1093,-8.1093,-8.1093,-8.1093,-8.1093,-8.1093,-8.1093,-8.1093,-8.1093,-8.1093,-8.1093,-8.1093,-8.1093,-8.1093,-8.1093,-8.1093,-8.1093,-8.1093,-8.1093,-8.1093,-8.1093,-8.1093,-8.1093,-8.1093,-8.1093,-8.1093,-8.1093,-8.1093,-8.1093,-8.1093,-8.1093,-8.1093,-8.1093,-8.1093,-8.1093,-8.1093,-8.1093,-8.117,-8.1593,-8.2477,-8.4132,-8.5324,-8.6094,-8.6094,-8.6094,-3.3669,0.0,-3.8794,-4.1004,-4.408,-4.7039,0.0,-5.1788,-5.4717,-5.6953,-6.0249,-6.3073,-6.3789,-6.6316,-6.8511,-6.9021,-6.9693,-7.0398,-7.1162,-7.1361,-7.1329,-7.107,-7.1004,-7.0992,-7.0992,-7.0952,-7.0898,-7.0898,-7.0898,-7.0898,-7.0898,-7.0898,-7.0898,-7.0898,-7.0898,-7.0898,-7.0898,-7.0898,-7.0898,-7.0898,-7.0898,-7.0898,-7.0937,-7.1783,-7.2668,-7.3553,-7.4361,-7.5207,-7.6015,-7.6015,-7.6015,-7.6015,-7.6015,-7.6015,-7.6015,-7.6015,-7.6015,-7.6015,-7.6245,-7.7284,-7.8746,-8.0285,-8.0939,-8.1093,-8.1093,-8.1093,-8.1093,-8.1093,-8.1093,-8.1093,-8.1093,-8.1093,-8.1093,-8.1093,-8.1093,-8.1093,-8.1093,-8.1093,-8.1093,-8.1093,-8.1093,-8.1093,-8.1093,-8.1093,-8.1093,-8.1093,-8.1093,-8.1093,-8.1093,-8.1093,-8.1093,-8.1093,-8.1093,-8.1093,-8.1093,-8.1093,-8.1093,-8.1093,-8.1093,-8.1093,-8.1093,-8.1093,-8.1093,-8.1093,-8.1708,-8.2785,-8.4286,-8.4709,-8.5324,-8.6094,-8.6094,-8.6094,-3.4451,-3.6893,-3.8912,-4.1914,-4.4862,-4.7724,-4.994,-5.2622,-5.5231,-5.77,-6.0323,-6.2586,-6.3572,-6.5828,-6.7864,-6.9046,-6.9299,-6.9711,-7.0775,-7.1314,-7.1432,-7.1085,-7.1053,-7.1004,-7.0925,-7.0898,-7.0898,-7.0898,-7.0898,-7.0898,-7.0898,-7.0898,-7.0898,-7.0898,-7.0898,-7.0898,-7.0898,-7.0898,-7.0898,-7.0898,-7.0898,-7.0898,-7.0937,-7.1398,-7.2283,-7.3514,-7.3976,-7.4861,-7.6015,-7.6015,-7.6015,-7.6015,-7.6015,-7.6015,-7.6015,-7.6015,-7.6015,-7.6015,-7.6015,-7.7092,-7.8707,-8.0054,-8.0785,-8.1093,-8.1093,-8.1093,-8.1093,-8.1093,-8.1093,-8.1093,-8.1093,-8.1093,-8.1093,-8.1093,-8.1093,-8.1093,-8.1093,-8.1093,-8.1093,-8.1093,-8.1093,-8.1093,-8.1093,-8.1093,-8.1093,-8.1093,-8.1167,-8.1186,-8.1124,-8.1167,-8.1186,-8.1124,-8.1093,-8.1093,-8.1093,-8.1093,-8.1093,-8.1093,-8.1093,-8.1093,-8.1093,-8.1093,-8.1285,-8.1631,-8.2862,-8.3978,-8.4901,-8.5286,-8.567,-8.6094,-8.6094,-8.6094,-3.4943,-3.7546,-4.008,-4.3997,-4.6083,-4.7998,-5.1697,-5.3553,-5.5505,-5.8496,-6.0428,-6.201,-6.3364,-6.5148,-6.7005,-6.8652,-6.8562,-6.867,-6.9844,-7.0855,-7.1338,-7.1028,-7.1081,-7.1085,-7.0925,-7.0898,-7.0898,-7.0898,-7.0898,-7.0898,-7.0898,-7.0898,-7.0898,-7.0898,-7.0898,-7.0898,-7.0898,-7.0898,-7.0898,-7.0898,-7.0898,-7.0898,-7.0898,-7.0898,-7.186,-7.3514,-7.3514,-7.4437,-7.6015,-7.6015,-7.6015,-7.6015,-7.6015,-7.6015,-7.6015,-7.6015,-7.6015,-7.6015,-7.613,-7.7207,-7.8631,-7.9515,-8.04,-8.1093,-8.1093,-8.1093,-8.1093,-8.1093,-8.1093,-8.1093,-8.1093,-8.1093,-8.1093,-8.1093,-8.1093,-8.1093,-8.1093,-8.1093,-8.1093,-8.1093,-8.1093,-8.1093,-8.1093,-8.1093,-8.1124,-8.1146,-8.1311,-8.1374,-8.1186,-8.1298,-8.1349,-8.1137,-8.1124,-8.1093,-8.1093,-8.1093,-8.1093,-8.1093,-8.1093,-8.1093,-8.1093,-8.1208,-8.167,-8.2477,-8.4093,-8.4978,-8.5093,-8.5786,-8.6094,-8.6094,-8.6094,-8.6094,-3.641,-4.0554,-4.3666,-4.4728,-4.6083,-4.7998,-5.1697,-5.3553,-5.5505,-5.8496,-6.0428,-6.2045,-6.3511,-6.55,-6.7279,-6.8127,-6.8667,-6.9035,-6.9089,-6.9862,-7.0316,-6.9976,-7.0516,-7.0914,-7.0898,-7.0898,-7.0898,-7.0898,-7.0898,-7.0898,-7.0898,-7.0898,-7.0898,-7.0898,-7.0898,-7.0898,-7.0898,-7.0898,-7.0898,-7.0898,-7.0898,-7.0898,-7.0898,-7.0898,-7.186,-7.3514,-7.3514,-7.4437,-7.6015,-7.6015,-7.6015,-7.6015,-7.6015,-7.6015,-7.6015,-7.6015,-7.6015,-7.6092,-7.6823,-7.7707,-7.8631,-7.9515,-8.04,-8.1093,-8.1093,-8.1093,-8.1093,-8.1093,-8.1093,-8.1093,-8.1093,-8.1093,-8.1093,-8.1093,-8.1093,-8.1093,-8.1093,-8.1093,-8.1093,-8.1093,-8.1093,-8.1093,-8.1093,-8.1093,-8.1176,-8.1324,-8.1383,-8.1436,-8.16,-8.1501,-8.1383,-8.1335,-8.1224,-8.1093,-8.1093,-8.1093,-8.1093,-8.1093,-8.1093,-8.1093,-8.1093,-8.1747,-8.2516,-8.3362,-8.4401,-8.5247,-8.594,-8.6055,-8.6094,-8.6094,-8.6094,-8.6094,-3.732,-4.1379,-4.5076,-4.6696,-4.8837,-5.1478,-5.4848,-5.6426,-5.7981,-6.0404,-6.1472,-6.25,-6.395,-6.5155,-6.6266,-6.7292,-6.8502,-6.9101,-6.8453,-6.9119,-6.9708,-6.9817,-7.0135,-7.0488,-7.0848,-7.0898,-7.0898,-7.0898,-7.0898,-7.0898,-7.0898,-7.0898,-7.0898,-7.0898,-7.0898,-7.094,-7.1062,-7.0966,-7.0898,-7.0898,-7.0898,-7.0898,-7.0898,-7.0898,-7.186,-7.3514,-7.3514,-7.4437,-7.6015,-7.6015,-7.6015,-7.6015,-7.6015,-7.6015,-7.6015,-7.6015,-7.6015,-7.6053,-7.6476,-7.7438,-7.8554,-7.8977,-8.0015,-8.1093,-8.1093,-8.1093,-8.1093,-8.1093,-8.1093,-8.1093,-8.1093,-8.1093,-8.1093,-8.1093,-8.1093,-8.1093,-8.1093,-8.1093,-8.1093,-8.1093,-8.1093,-8.1093,-8.1093,-8.1093,-8.1167,-8.1359,-8.1501,-8.16,-8.1664,-8.1636,-8.1504,-8.143,-8.1214,-8.1093,-8.1093,-8.1093,-8.1093,-8.1093,-8.1093,-8.1285,-8.1747,-8.2554,-8.3401,-8.4286,-8.5132,-8.5747,-8.6094,-8.6094,-8.6094,-8.6094,-8.6094,-8.6094,-3.8585,-4.2438,-4.6441,-4.9078,-5.1481,-5.4228,-5.7467,-5.8857,-6.0081,-6.2168,-6.2593,-6.3083,-6.4551,-6.5118,-6.5693,-6.666,-6.789,-6.8463,-6.7656,-6.8241,-6.8903,-6.9206,-6.9607,-7.0058,-7.0579,-7.0783,-7.0898,-7.0898,-7.0898,-7.0898,-7.0898,-7.094,-7.0992,-7.0992,-7.1029,-7.1092,-7.1262,-7.1092,-7.1029,-7.0992,-7.0925,-7.0898,-7.0898,-7.0898,-7.186,-7.3514,-7.3514,-7.4437,-7.6015,-7.6015,-7.6015,-7.6015,-7.6015,-7.6015,-7.6015,-7.6015,-7.6015,-7.6015,-7.6015,-7.7092,-7.8477,-7.8477,-7.9669,-8.1093,-8.1093,-8.1093,-8.1093,-8.1093,-8.1093,-8.1093,-8.1093,-8.1093,-8.1093,-8.1093,-8.1093,-8.1093,-8.1093,-8.1093,-8.1093,-8.1093,-8.1093,-8.1093,-8.1093,-8.1093,-8.1196,-8.1414,-8.1618,-8.1725,-8.1844,-8.1739,-8.1653,-8.1501,-8.1269,-8.1093,-8.1093,-8.1093,-8.117,-8.1362,-8.1362,-8.167,-8.2285,-8.3324,-8.4209,-8.4901,-8.5709,-8.6094,-8.6094,-8.6094,-8.6094,-8.6094,-8.6094,-8.6209,-4.1128,-4.5418,-4.9175,-5.1576,-5.2193,-5.3279,-5.7259,-5.8857,-6.016,-6.2595,-6.3185,-6.3748,-6.5247,-6.6215,-6.6747,-6.6634,-6.6718,-6.6713,-6.654,-6.7115,-6.7464,-6.732,-6.8732,-6.9732,-6.9783,-7.0475,-7.0898,-7.0898,-7.0898,-7.0898,-7.0898,-7.1085,-7.118,-7.118,-7.137,-7.1442,-7.1457,-7.1442,-7.1348,-7.118,-7.0979,-7.0898,-7.0898,-7.0898,-7.186,-7.3514,-7.3514,-7.4437,-7.6015,-7.6015,-7.6015,-7.6015,-7.6015,-7.6015,-7.6015,-7.6015,-7.6015,-7.6015,-7.6015,-7.7092,-7.8477,-7.8477,-7.9669,-8.1093,-8.1093,-8.1093,-8.1093,-8.1093,-8.1093,-8.1093,-8.1093,-8.1093,-8.1093,-8.1093,-8.1093,-8.1093,-8.1093,-8.1093,-8.1093,-8.1093,-8.1093,-8.1093,-8.1093,-8.1093,-8.1242,-8.1636,-8.168,-8.1844,-8.2219,-8.1919,-8.168,-8.1664,-8.1349,-8.1093,-8.1093,-8.1093,-8.14,-8.217,-8.2208,-8.2247,-8.2285,-8.3901,-8.4863,-8.4901,-8.5709,-8.6094,-8.6094,-8.6094,-8.6094,-8.6094,-8.6094,-8.6517,-4.1742,-4.6031,-4.9991,-5.1994,-5.471,-5.7569,-5.9974,-6.1168,-6.2261,-6.3993,-6.4514,-6.4884,-6.5652,-6.6414,-6.6874,-6.6789,-6.6797,-6.6683,-6.6423,-6.6645,-6.6842,-6.7089,-6.7667,-6.8513,-6.959,-6.9975,-7.036,-7.086,-7.1029,-7.1085,-7.1085,-7.128,-7.1403,-7.1403,-7.1442,-7.1536,-7.1624,-7.1536,-7.1498,-7.151,-7.1348,-7.1137,-7.0898,-7.1053,-7.1993,-7.3514,-7.3514,-7.4437,-7.6005,-7.6109,-7.6121,-7.6015,-7.6015,-7.6015,-7.6015,-7.6015,-7.6015,-7.6015,-7.6015,-7.6784,-7.7823,-7.8323,-7.9323,-8.04,-8.0939,-8.1093,-8.1093,-8.1093,-8.1093,-8.1093,-8.1093,-8.1093,-8.1093,-8.1093,-8.1093,-8.1093,-8.1093,-8.1093,-8.1093,-8.1093,-8.1093,-8.1093,-8.1093,-8.1186,-8.1383,-8.167,-8.1819,-8.1984,-8.2265,-8.1967,-8.168,-8.168,-8.1349,-8.1093,-8.1093,-8.1554,-8.1977,-8.2285,-8.2285,-8.2785,-8.3862,-8.4555,-8.5132,-8.5632,-8.594,-8.6094,-8.6094,-8.6094,-8.6094,-8.6094,-8.6094,-8.6555,-4.3713,-4.7688,-5.1328,-5.3688,-5.6867,-5.9929,-6.2045,-6.3035,-6.3877,-6.5129,-6.5604,-6.5851,-6.6073,-6.6566,-6.6875,-6.683,-6.6797,-6.6727,-6.6423,-6.6334,-6.6394,-6.6704,-6.6936,-6.7667,-6.9167,-6.9552,-7.0014,-7.0821,-7.1085,-7.1221,-7.1221,-7.1442,-7.156,-7.156,-7.1604,-7.1706,-7.1802,-7.1706,-7.1651,-7.1689,-7.1651,-7.1457,-7.1108,-7.1223,-7.2014,-7.3215,-7.3446,-7.4357,-7.562,-7.6103,-7.6219,-7.6106,-7.6034,-7.6015,-7.6015,-7.6015,-7.6015,-7.6015,-7.6015,-7.6553,-7.7438,-7.8246,-7.9092,-7.9977,-8.0823,-8.1093,-8.1093,-8.1093,-8.1093,-8.1093,-8.1093,-8.1093,-8.1093,-8.1093,-8.1146,-8.1196,-8.1196,-8.1231,-8.1311,-8.1311,-8.1242,-8.1214,-8.1285,-8.1374,-8.1501,-8.1739,-8.1899,-8.2065,-8.2265,-8.1967,-8.1631,-8.1504,-8.1258,-8.1208,-8.1477,-8.1977,-8.2516,-8.3093,-8.3131,-8.367,-8.4863,-8.5132,-8.5555,-8.6094,-8.6094,-8.6094,-8.6094,-8.6094,-8.6094,-8.6094,-8.6094,-8.6709,-4.7531,-5.0631,-5.3461,-5.7257,-5.8245,-5.9249,-6.3023,-6.4143,-6.4723,-6.587,-6.636,-6.6616,-6.6616,-6.6784,-6.6833,-6.6628,-6.6601,-6.6549,-6.6412,-6.6228,-6.6049,-6.5909,-6.659,-6.7436,-6.8321,-6.9167,-7.0014,-7.0821,-7.1085,-7.1182,-7.1182,-7.1521,-7.1689,-7.1689,-7.1906,-7.1992,-7.1992,-7.1992,-7.1906,-7.1696,-7.1908,-7.1802,-7.1485,-7.1485,-7.187,-7.2538,-7.3351,-7.4099,-7.4774,-7.5871,-7.6295,-7.6273,-7.6079,-7.6015,-7.6015,-7.6015,-7.6015,-7.6015,-7.6015,-7.6553,-7.74,-7.8246,-7.9092,-7.9939,-8.0823,-8.1093,-8.1093,-8.1093,-8.1093,-8.1093,-8.1093,-8.1093,-8.1093,-8.1093,-8.1231,-8.1407,-8.1407,-8.1563,-8.168,-8.168,-8.1524,-8.148,-8.1687,-8.1524,-8.1524,-8.1958,-8.1992,-8.2065,-8.2265,-8.1967,-8.1543,-8.1146,-8.1093,-8.1439,-8.2247,-8.2324,-8.3054,-8.4786,-8.4901,-8.4901,-8.4901,-8.567,-8.6094,-8.6094,-8.6094,-8.6094,-8.6094,-8.6094,-8.6094,-8.6094,-8.6094,-8.7055,-4.7387,-5.1448,-5.4874,-5.7535,-6.0094,-6.2339,-6.361,-6.3992,-6.4486,-6.5989,-6.6478,-6.6634,-6.6787,-6.6873,-6.6875,-6.6832,-6.6797,-6.6738,-6.6588,-6.6423,-6.6228,-6.6069,-6.6159,-6.6821,-6.8282,-6.8629,-6.936,-7.0783,-7.1203,-7.1397,-7.1397,-7.1721,-7.1908,-7.1908,-7.1952,-7.1992,-7.1992,-7.1992,-7.1952,-7.1908,-7.1952,-7.1802,-7.1485,-7.1604,-7.1989,-7.2702,-7.3374,-7.4176,-7.4973,-7.5902,-7.6381,-7.651,-7.6273,-7.6121,-7.6015,-7.6015,-7.6015,-7.6015,-7.6015,-7.6169,-7.663,-7.8054,-7.8669,-7.9169,-8.0631,-8.1093,-8.1093,-8.1093,-8.1093,-8.1093,-8.1093,-8.1186,-8.1298,-8.1298,-8.1374,-8.1436,-8.1582,-8.167,-8.168,-8.168,-8.1631,-8.1653,-8.168,-8.1792,-8.1867,-8.1984,-8.212,-8.2125,-8.1899,-8.1753,-8.1543,-8.1146,-8.1093,-8.1439,-8.2247,-8.2862,-8.3708,-8.4824,-8.544,-8.5747,-8.5747,-8.5978,-8.6094,-8.6094,-8.6094,-8.6094,-8.6094,-8.6094,-8.6094,-8.6094,-8.6748,-8.7632,-4.9935,-5.3938,-5.7187,-5.9561,-6.1798,-6.3671,-6.4546,-6.4843,-6.5202,-6.627,-6.661,-6.6742,-6.6875,-6.6914,-6.6914,-6.6914,-6.6914,-6.6832,-6.6628,-6.6488,-6.632,-6.6146,-6.5974,-6.6436,-6.7744,-6.8205,-6.8989,-7.0387,-7.1141,-7.1511,-7.1583,-7.185,-7.1992,-7.1992,-7.1992,-7.1992,-7.1992,-7.1992,-7.1992,-7.1992,-7.1992,-7.1903,-7.1698,-7.1792,-7.2002,-7.2339,-7.3296,-7.4461,-7.5788,-7.6147,-7.6475,-7.6702,-7.64,-7.6219,-7.6095,-7.6034,-7.6015,-7.6015,-7.6015,-7.6015,-7.6207,-7.7592,-7.8246,-7.8746,-8.0169,-8.0823,-8.1093,-8.1093,-8.1093,-8.1124,-8.1224,-8.1298,-8.1407,-8.1407,-8.1504,-8.1687,-8.1767,-8.1878,-8.1958,-8.1958,-8.1878,-8.1855,-8.1909,-8.1976,-8.2046,-8.2115,-8.2221,-8.2168,-8.1739,-8.168,-8.1543,-8.1146,-8.14,-8.19,-8.2747,-8.3632,-8.4478,-8.5324,-8.5824,-8.6094,-8.6094,-8.6094,-8.6094,-8.6094,-8.6094,-8.6094,-8.6094,-8.6094,-8.6094,-8.6132,-8.6978,-8.7863,-5.3777,-5.7065,-5.9812,-6.2446,-6.3238,-6.3842,-6.571,-6.626,-6.6435,-6.6557,-6.6745,-6.6914,-6.6914,-6.6914,-6.6914,-6.6914,-6.6914,-6.6833,-6.6639,-6.6498,-6.6347,-6.6161,-6.6024,-6.6266,-6.7075,-6.7923,-6.8853,-6.9847,-7.093,-7.1572,-7.1689,-7.1906,-7.1992,-7.1992,-7.1992,-7.1992,-7.1992,-7.1992,-7.1992,-7.1992,-7.1992,-7.1992,-7.1992,-7.1992,-7.1984,-7.1995,-7.3223,-7.4942,-7.6864,-7.651,-7.6552,-7.6864,-7.651,-7.6338,-7.6289,-7.6068,-7.6005,-7.6015,-7.6015,-7.6015,-7.613,-7.7015,-7.7823,-7.8669,-7.9554,-8.04,-8.1093,-8.1154,-8.1116,-8.1167,-8.1359,-8.1436,-8.1458,-8.1458,-8.171,-8.1992,-8.2,-8.2171,-8.2304,-8.2304,-8.2168,-8.211,-8.2265,-8.2168,-8.2071,-8.2265,-8.2304,-8.2168,-8.1739,-8.168,-8.1582,-8.1261,-8.1862,-8.267,-8.3632,-8.4439,-8.5247,-8.6055,-8.6094,-8.6094,-8.6094,-8.6094,-8.6094,-8.6094,-8.6094,-8.6094,-8.6094,-8.6094,-8.6094,-8.6132,-8.7094,-8.794,-5.163,-5.6084,-6.0262,-6.254,-6.4215,-6.5486,-6.6173,-6.6361,-6.6435,-6.6557,-6.6745,-6.6914,-6.6914,-6.6914,-6.6914,-6.6914,-6.6914,-6.6875,-6.6833,-6.6678,-6.6541,-6.6516,-6.6387,-6.661,-6.7425,-6.828,-6.915,-7.009,-7.1076,-7.1667,-7.1689,-7.1906,-7.1992,-7.1992,-7.1992,-7.1992,-7.1992,-7.1992,-7.1992,-7.1992,-7.1992,-7.1992,-7.1992,-7.1992,-7.2645,-7.375,-7.4051,-7.5191,-7.6872,-7.6829,-7.6839,-7.6872,-7.679,-7.6567,-7.6295,-7.6266,-7.6147,-7.6015,-7.6015,-7.6015,-7.613,-7.7015,-7.7823,-7.8669,-7.9554,-8.04,-8.1116,-8.1311,-8.1349,-8.1383,-8.1582,-8.1739,-8.1867,-8.1867,-8.1958,-8.2053,-8.2217,-8.2265,-8.2304,-8.2304,-8.2265,-8.2264,-8.2304,-8.2265,-8.2264,-8.2304,-8.2304,-8.2168,-8.1739,-8.168,-8.1776,-8.2032,-8.2208,-8.2939,-8.4478,-8.4786,-8.5247,-8.6055,-8.6094,-8.6094,-8.6094,-8.6094,-8.6094,-8.6094,-8.6094,-8.6094,-8.6094,-8.6094,-8.6094,-8.6132,-8.7709,-8.8517,-5.2803,-5.6592,-6.0012,-6.3015,-6.4824,-6.599,-6.6305,-6.6387,-6.6457,-6.6687,-6.6832,-6.6914,-6.6914,-6.6914,-6.6914,-6.6914,-6.6914,-6.6914,-6.6914,-6.6738,-6.6616,-6.6616,-6.6478,-6.6543,-6.6971,-6.8177,-6.9149,-6.9684,-7.0957,-7.1747,-7.1854,-7.195,-7.1992,-7.1992,-7.1992,-7.1992,-7.1992,-7.1992,-7.1992,-7.1992,-7.1992,-7.1992,-7.1992,-7.1992,-7.2888,-7.4432,-7.4357,-7.5339,-7.7048,-7.6939,-7.6945,-7.7048,-7.6939,-7.677,-7.6552,-7.6361,-7.6219,-7.6147,-7.6034,-7.6015,-7.6053,-7.6515,-7.7476,-7.8584,-7.9169,-8.0227,-8.1285,-8.1501,-8.1543,-8.16,-8.1805,-8.1909,-8.2007,-8.212,-8.2129,-8.2171,-8.2265,-8.2304,-8.2304,-8.2304,-8.2304,-8.2304,-8.2304,-8.2304,-8.2304,-8.2304,-8.2304,-8.2168,-8.1739,-8.168,-8.1854,-8.2263,-8.267,-8.3478,-8.4786,-8.5247,-8.567,-8.6055,-8.6094,-8.6094,-8.6094,-8.6094,-8.6094,-8.6094,-8.6094,-8.6094,-8.6094,-8.6094,-8.6324,-8.6748,-8.8055,-8.8902,-5.4124,-5.7604,-6.0237,-6.3551,-6.5137,-6.599,-6.6299,-6.6361,-6.6507,-6.6787,-6.6874,-6.6914,-6.6914,-6.6914,-6.6914,-6.6914,-6.6914,-6.6914,-6.6914,-6.6742,-6.6639,-6.6639,-6.6533,-6.6507,-6.6507,-6.8026,-6.9089,-6.921,-7.0816,-7.1811,-7.1992,-7.1992,-7.1992,-7.1992,-7.1992,-7.1992,-7.1992,-7.1992,-7.1992,-7.1992,-7.1992,-7.1992,-7.1992,-7.1992,-7.2969,-7.4609,-7.4427,-7.5447,-7.7187,-7.7005,-7.7052,-7.7187,-7.7005,-7.6933,-7.6864,-7.6544,-7.6379,-7.6289,-7.6095,-7.6034,-7.6015,-7.6062,-7.7207,-7.8574,-7.8812,-8.0063,-8.1501,-8.1719,-8.1739,-8.1819,-8.1992,-8.2053,-8.2071,-8.2264,-8.2304,-8.2304,-8.2304,-8.2304,-8.2304,-8.2304,-8.2304,-8.2304,-8.2304,-8.2304,-8.2304,-8.2304,-8.2304,-8.2168,-8.1739,-8.1836,-8.2087,-8.2494,-8.3285,-8.417,-8.5016,-8.5709,-8.6094,-8.6094,-8.6094,-8.6094,-8.6094,-8.6094,-8.6094,-8.6094,-8.6094,-8.6094,-8.6094,-8.6094,-8.6555,-8.7401,-8.8286,-8.9133,-5.1543,-5.7351,-6.2806,-6.4065,-6.5137,-6.5919,-6.609,-6.6275,-6.6435,-6.6616,-6.6787,-6.6914,-6.6914,-6.6914,-6.6914,-6.6914,-6.6914,-6.6914,-6.6914,-6.6874,-6.6873,-6.6873,-6.6833,-6.6832,-6.6832,-6.8394,-6.941,-6.9373,-7.0975,-7.1952,-7.1992,-7.1992,-7.1992,-7.1992,-7.1992,-7.1992,-7.1992,-7.1992,-7.1992,-7.1992,-7.1992,-7.1992,-7.1992,-7.1992,-7.2969,-7.4609,-7.4569,-7.5546,-7.7187,-7.7187,-7.7187,-7.7187,-7.7187,-7.7052,-7.688,-7.6847,-7.6582,-7.6273,-7.625,-7.6173,-7.6034,-7.6195,-7.7411,-7.8812,-7.8997,-8.0287,-8.168,-8.1899,-8.1967,-8.1992,-8.2219,-8.2264,-8.2265,-8.2304,-8.2304,-8.2304,-8.2304,-8.2304,-8.2304,-8.2304,-8.2304,-8.2304,-8.2304,-8.2304,-8.2304,-8.2304,-8.2304,-8.2168,-8.1739,-8.238,-8.296,-8.338,-8.4209,-8.5055,-8.5863,-8.6055,-8.6094,-8.6094,-8.6094,-8.6094,-8.6094,-8.6094,-8.6094,-8.6094,-8.6094,-8.6094,-8.6094,-8.6094,-8.6555,-8.7401,-8.8286,-8.9133,-5.3108,-5.8809,-6.3313,-6.418,-6.5137,-6.5958,-6.6089,-6.6161,-6.632,-6.6549,-6.6683,-6.6784,-6.6875,-6.6914,-6.6914,-6.6914,-6.6914,-6.6914,-6.6914,-6.6914,-6.6914,-6.6914,-6.6914,-6.6914,-6.6914,-6.8437,-6.9414,-6.9414,-7.1015,-7.1992,-7.1992,-7.1992,-7.1992,-7.1992,-7.1992,-7.1992,-7.1992,-7.1992,-7.1992,-7.1992,-7.1992,-7.1992,-7.1992,-7.1992,-7.2969,-7.4609,-7.4609,-7.5586,-7.7187,-7.7187,-7.7187,-7.7187,-7.7187,-7.7145,-7.7052,-7.6939,-7.678,-7.6636,-7.6527,-7.64,-7.6359,-7.6438,-7.7601,-7.9014,-7.922,-8.0513,-8.1899,-8.2115,-8.2171,-8.2178,-8.2265,-8.2304,-8.2304,-8.2304,-8.2304,-8.2304,-8.2304,-8.2304,-8.2304,-8.2304,-8.2304,-8.2304,-8.2304,-8.2304,-8.2304,-8.2304,-8.2304,-8.2217,-8.1899,-8.2518,-8.3213,-8.3707,-8.4451,-8.5247,-8.6017,-8.6094,-8.6094,-8.6094,-8.6094,-8.6094,-8.6094,-8.6094,-8.6094,-8.6094,-8.6094,-8.6094,-8.6094,-8.6094,-8.6786,-8.8132,-8.8517,-8.9402,-5.4323,-5.931,-6.2843,-6.3831,-6.4862,-6.5756,-6.5986,-6.607,-6.6179,-6.6418,-6.6541,-6.6634,-6.6789,-6.6874,-6.6914,-6.6914,-6.6914,-6.6914,-6.6914,-6.6914,-6.6914,-6.6914,-6.6914,-6.6914,-6.6914,-6.8437,-6.9414,-6.9414,-7.1015,-7.1992,-7.1992,-7.1992,-7.1992,-7.1992,-7.1992,-7.1992,-7.1992,-7.1992,-7.1992,-7.1992,-7.1992,-7.1992,-7.1992,-7.1992,-7.2812,-7.4297,-7.4492,-7.5469,-7.6875,-7.7109,-7.7187,-7.7187,-7.7187,-7.7187,-7.7187,-7.7048,-7.6939,-7.6864,-7.6727,-7.6624,-7.6597,-7.6677,-7.7819,-7.922,-7.9431,-8.0699,-8.2115,-8.2264,-8.2304,-8.2304,-8.2304,-8.2304,-8.2304,-8.2304,-8.2304,-8.2304,-8.2304,-8.2304,-8.2304,-8.2304,-8.2304,-8.2304,-8.2304,-8.2304,-8.2304,-8.2304,-8.2304,-8.23,-8.2319,-8.2922,-8.3523,-8.418,-8.4841,-8.544,-8.6055,-8.6094,-8.6094,-8.6094,-8.6094,-8.6094,-8.6094,-8.6094,-8.6094,-8.6094,-8.6094,-8.6094,-8.6094,-8.6324,-8.7209,-8.8709,-8.8902,-8.9787,-5.3196,-5.7432,-6.1495,-6.2851,-6.4143,-6.5291,-6.5769,-6.6003,-6.6109,-6.6108,-6.6373,-6.6616,-6.6622,-6.6784,-6.6914,-6.6914,-6.6914,-6.6914,-6.6914,-6.6914,-6.6914,-6.6914,-6.6914,-6.6914,-6.6914,-6.8476,-6.9492,-6.9492,-7.1055,-7.1992,-7.1992,-7.1992,-7.1992,-7.1992,-7.1992,-7.1992,-7.1992,-7.1992,-7.1992,-7.1992,-7.1992,-7.1992,-7.1992,-7.1992,-7.25,-7.3398,-7.4258,-7.5117,-7.6015,-7.6875,-7.7187,-7.7187,-7.7187,-7.7187,-7.7187,-7.7187,-7.7055,-7.688,-7.6872,-7.676,-7.6611,-7.6839,-7.8004,-7.9431,-7.9604,-8.0898,-8.2304,-8.2304,-8.2304,-8.2304,-8.2304,-8.2304,-8.2304,-8.2304,-8.2304,-8.2304,-8.2304,-8.2304,-8.2304,-8.2304,-8.2304,-8.2304,-8.2304,-8.2304,-8.2304,-8.2304,-8.2304,-8.2534,-8.3139,-8.378,-8.4378,-8.5033,-8.5689,-8.6055,-8.6094,-8.6094,-8.6094,-8.6094,-8.6094,-8.6094,-8.6094,-8.6094,-8.6094,-8.6094,-8.6094,-8.6094,-8.6094,-8.694,-8.7786,-8.8709,-8.9479,-9.0325,-5.4195,-5.7637,-6.0669,-6.2254,-6.348,-6.4537,-6.5222,-6.5692,-6.6019,-6.607,-6.632,-6.6498,-6.6564,-6.6745,-6.6914,-6.6914,-6.6914,-6.6914,-6.6914,-6.6914,-6.6914,-6.6914,-6.6914,-6.7109,-6.7695,-6.8789,-6.9687,-7.0234,-7.1328,-7.1992,-7.1992,-7.1992,-7.1992,-7.1992,-7.1992,-7.1992,-7.1992,-7.1992,-7.1992,-7.1992,-7.1992,-7.1992,-7.1992,-7.1992,-7.2187,-7.2539,-7.3984,-7.5078,-7.5976,-7.6836,-7.7187,-7.7187,-7.7187,-7.7187,-7.7187,-7.7187,-7.7147,-7.71,-7.71,-7.7052,-7.6995,-7.7055,-7.8233,-7.9602,-7.9687,-8.0937,-8.2304,-8.2304,-8.2304,-8.2304,-8.2304,-8.2304,-8.2304,-8.2304,-8.2304,-8.2304,-8.2304,-8.2304,-8.2304,-8.2304,-8.2304,-8.2304,-8.2304,-8.2304,-8.2304,-8.2304,-8.2304,-8.2534,-8.321,-8.3845,-8.4456,-8.5149,-8.5767,-8.6094,-8.6094,-8.6094,-8.6094,-8.6094,-8.6094,-8.6094,-8.6094,-8.6094,-8.6094,-8.6094,-8.6094,-8.6094,-8.6094,-8.6978,-8.7863,-8.8709,-8.9517,-9.0364,-5.437,-5.72,-5.9503,-6.1171,-6.2519,-6.3606,-6.4468,-6.5184,-6.5705,-6.6003,-6.6183,-6.6334,-6.6407,-6.6603,-6.6781,-6.6875,-6.6914,-6.6914,-6.6914,-6.6914,-6.6914,-6.6914,-6.6914,-6.7226,-6.8125,-6.8945,-6.9805,-7.0625,-7.1523,-7.1992,-7.1992,-7.1992,-7.1992,-7.1992,-7.1992,-7.1992,-7.1992,-7.1992,-7.1992,-7.1992,-7.1992,-7.1992,-7.1992,-7.1992,-7.1992,-7.2109,-7.3828,-7.4922,-7.5547,-7.6719,-7.7187,-7.7187,-7.7187,-7.7187,-7.7187,-7.7187,-7.7187,-7.7187,-7.7187,-7.7187,-7.7187,-7.7187,-7.832,-7.9687,-7.9687,-8.0937,-8.2304,-8.2304,-8.2304,-8.2304,-8.2304,-8.2304,-8.2304,-8.2304,-8.2304,-8.2304,-8.2304,-8.2304,-8.2304,-8.2304,-8.2304,-8.2304,-8.2304,-8.2304,-8.2304,-8.2304,-8.2304,-8.2651,-8.36,-8.4,-8.4572,-8.5536,-8.5921,-8.6094,-8.6094,-8.6094,-8.6094,-8.6094,-8.6094,-8.6094,-8.6094,-8.6094,-8.6094,-8.6094,-8.6401,-8.6555,-8.6555,-8.7401,-8.8286,-8.9133,-8.994,-9.0671,0.0,0.0,0.0,-5.944,-6.1115,-6.2583,-6.361,-6.4468,-6.5192,-6.5781,-6.5981,-6.607,-6.6109,-6.626,-6.6527,-6.6832,-6.6875,-6.6875,-6.6875,-6.6875,-6.6875,-6.6875,-6.6914,-6.7265,-6.8125,-6.9023,-6.9883,-7.0664,-7.1523,-7.1992,-7.1992,-7.1992,-7.1992,-7.1992,-7.1992,-7.1992,-7.1992,-7.1992,-7.1992,-7.1992,-7.1992,-7.1992,-7.1992,-7.1992,-7.1992,-7.2109,-7.3828,-7.4609,-7.4726,-7.6484,-7.7187,-7.7187,-7.7187,-7.7187,-7.7187,-7.7187,-7.7187,-7.7187,-7.7187,-7.7187,-7.7187,-7.7187,-7.832,-7.9687,-7.9687,-8.0937,-8.2304,-8.2304,-8.2304,-8.2304,-8.2304,-8.2304,-8.2304,-8.2304,-8.2304,-8.2304,-8.2304,-8.2304,-8.2304,-8.2304,-8.2304,-8.2304,-8.2304,-8.2304,-8.2304,-8.2304,-8.2304,-8.2885,-8.438,-8.439,-8.4844,-8.635,-8.6268,-8.6094,-8.6094,-8.6094,-8.6094,-8.6094,-8.6094,-8.6094,-8.6094,-8.6094,-8.6094,-8.6094,-8.6978,-8.7401,-8.744,-8.8286,-8.9133,-8.994,-9.0787,-9.121,-5.3498,0.0,0.0,0.0,0.0,0.0,-6.2461,-6.327,-6.3992,-6.5092,-6.5448,-6.5727,-6.6032,-6.626,-6.6412,-6.6537,-6.6546,-6.658,-6.6678,-6.6596,-6.658,-6.6678,-6.7234,-6.7976,-6.8835,-6.98,-7.0703,-7.1562,-7.1875,-7.1992,-7.1992,-7.1992,-7.1992,-7.1992,-7.1992,-7.1992,-7.1992,-7.1992,-7.1992,-7.1992,-7.1992,-7.1992,-7.1992,-7.1992,-7.1992,-7.2109,-7.3828,-7.4609,-7.4726,-7.6484,-7.7187,-7.7187,-7.7187,-7.7187,-7.7187,-7.7187,-7.7187,-7.7187,-7.7187,-7.7187,-7.7187,-7.7187,-7.832,-7.9687,-7.9687,-8.0937,-8.2304,-8.2304,-8.2304,-8.2304,-8.2304,-8.2304,-8.2304,-8.2304,-8.2304,-8.2304,-8.2304,-8.2304,-8.2304,-8.2304,-8.2304,-8.2304,-8.2304,-8.2304,-8.2304,-8.2304,-8.2851,-8.3499,-8.4195,-8.4809,-8.5427,-8.6152,-8.612,-8.6094,-8.6094,-8.6094,-8.6094,-8.6094,-8.6094,-8.6094,-8.6094,-8.6094,-8.6094,-8.6094,-8.6978,-8.7709,-8.8325,-8.9171,-8.9671,-8.994,-9.0787,-9.121,-5.3444,-5.5084,-5.6014,-5.8106,0.0,0.0,-6.1792,-6.266,-6.3525,-6.5123,-6.5536,-6.5702,-6.5981,-6.6109,-6.6165,-6.6165,-6.6165,-6.6283,-6.6488,-6.6446,-6.6423,-6.6507,-6.7257,-6.8115,-6.8973,-6.9926,-7.086,-7.1822,-7.1864,-7.1908,-7.1992,-7.1992,-7.1992,-7.1992,-7.1992,-7.1992,-7.1992,-7.1992,-7.1992,-7.1992,-7.1992,-7.1992,-7.1992,-7.1992,-7.1992,-7.2109,-7.3828,-7.4609,-7.4726,-7.6484,-7.7187,-7.7187,-7.7187,-7.7187,-7.7187,-7.7187,-7.7187,-7.7187,-7.7187,-7.7187,-7.7187,-7.7187,-7.832,-7.9687,-7.9687,-8.0937,-8.2304,-8.2304,-8.2304,-8.2304,-8.2304,-8.2304,-8.2304,-8.2304,-8.2304,-8.2304,-8.2304,-8.2304,-8.2304,-8.2304,-8.2304,-8.2304,-8.2304,-8.2304,-8.2304,-8.2304,-8.3047,-8.3769,-8.4163,-8.4971,-8.5639,-8.6076,-8.6094,-8.6094,-8.6094,-8.6094,-8.6094,-8.6094,-8.6094,-8.6094,-8.6094,-8.6094,-8.6286,-8.6632,-8.7517,-8.8517,-8.9748,-8.9863,-9.0094,-9.0441,-9.0979,-9.121,-5.3271,-5.4589,-5.5166,-5.7372,-5.8458,0.0,-6.119,-6.2144,-6.3201,-6.5116,-6.5503,-6.5569,-6.569,-6.5755,-6.5755,-6.5755,-6.5781,-6.5951,-6.6305,-6.6347,-6.6373,-6.6517,-6.7256,-6.8059,-6.8928,-6.9837,-7.0731,-7.1643,-7.1741,-7.1811,-7.1992,-7.1992,-7.1992,-7.1992,-7.1992,-7.1992,-7.1992,-7.1992,-7.1992,-7.1992,-7.1992,-7.1992,-7.1992,-7.1992,-7.1992,-7.2109,-7.3828,-7.4609,-7.4726,-7.6484,-7.7187,-7.7187,-7.7187,-7.7187,-7.7187,-7.7187,-7.7187,-7.7187,-7.7187,-7.7187,-7.7187,-7.7187,-7.832,-7.9687,-7.9687,-8.0937,-8.2304,-8.2304,-8.2304,-8.2304,-8.2304,-8.2304,-8.2304,-8.2304,-8.2304,-8.2304,-8.2304,-8.2304,-8.2304,-8.2304,-8.2304,-8.2304,-8.2304,-8.2304,-8.2304,-8.2304,-8.3125,-8.3847,-8.4163,-8.5049,-8.5755,-8.6076,-8.6094,-8.6094,-8.6094,-8.6094,-8.6094,-8.6094,-8.6094,-8.6094,-8.6094,-8.6094,-8.6517,-8.7363,-8.8325,-8.9594,-9.121,-9.0441,-9.0441,-9.121,-9.121,-9.121,-5.3561,-5.4589,-5.5166,-5.7372,-5.8027,0.0,-5.9399,-5.9749,-6.0499,-6.263,-6.3082,-6.3382,-6.448,-6.4699,-6.4699,-6.4699,-6.5003,-6.5444,-6.607,-6.6088,-6.6295,-6.7115,-6.7966,-6.8819,-6.9633,-7.0642,-7.1354,-7.1682,-7.1858,-7.1951,-7.1992,-7.1992,-7.1992,-7.1992,-7.1992,-7.1992,-7.1992,-7.1992,-7.1992,-7.1992,-7.1992,-7.1992,-7.1992,-7.1992,-7.1992,-7.2109,-7.3828,-7.4609,-7.4726,-7.6484,-7.7187,-7.7187,-7.7187,-7.7187,-7.7187,-7.7187,-7.7187,-7.7187,-7.7187,-7.7187,-7.7187,-7.7187,-7.832,-7.9687,-7.9687,-8.0937,-8.2304,-8.2304,-8.2304,-8.2304,-8.2304,-8.2304,-8.2304,-8.2304,-8.2304,-8.2304,-8.2304,-8.2304,-8.2304,-8.2304,-8.2304,-8.2304,-8.2304,-8.2304,-8.2304,-8.2304,-8.3633,-8.455,-8.4241,-8.5555,-8.6436,-8.6153,-8.6094,-8.6094,-8.6094,-8.6094,-8.6094,-8.6094,-8.6094,-8.6094,-8.6094,-8.6094,-8.6517,-8.7363,-8.8902,-9.0171,-9.121,-9.1018,-9.1018,-9.121,-9.121,-9.121,-5.3593,-5.4589,-5.5166,-5.7372,-5.7881,0.0,0.0,-5.9523,-5.9982,-6.1755,-6.2144,-6.2339,-6.3022,-6.3476,-6.3753,-6.3753,-6.4853,-6.5772,-6.5868,-6.6216,-6.6704,-6.7193,-6.8413,-6.934,-6.9764,-7.0634,-7.1296,-7.1583,-7.1747,-7.1906,-7.1992,-7.1992,-7.1992,-7.1992,-7.1992,-7.1992,-7.1992,-7.1992,-7.1992,-7.1992,-7.1992,-7.1992,-7.1992,-7.1992,-7.2226,-7.2734,-7.4023,-7.4844,-7.5351,-7.664,-7.7187,-7.7187,-7.7187,-7.7187,-7.7187,-7.7187,-7.7187,-7.7187,-7.7187,-7.7187,-7.7187,-7.7187,-7.832,-7.9687,-7.9687,-8.0937,-8.2304,-8.2304,-8.2304,-8.2304,-8.2304,-8.2304,-8.2304,-8.2304,-8.2304,-8.2304,-8.2304,-8.2304,-8.2304,-8.2304,-8.2304,-8.2304,-8.2304,-8.2304,-8.2304,-8.2304,-8.3789,-8.4745,-8.4241,-8.571,-8.663,-8.6153,-8.6094,-8.6094,-8.6094,-8.6094,-8.6094,-8.6094,-8.6094,-8.6094,-8.6094,-8.6517,-8.7363,-8.8632,-8.9902,-9.0748,-9.121,-9.121,-9.121,-9.121,-9.121,-9.121,-5.3765,-5.4589,-5.5166,-5.7372,-5.7881,-5.8212,0.0,0.0,0.0,-6.1082,-6.1349,-6.1402,-6.1594,-6.212,-6.2576,-6.2604,-6.4437,-6.5726,-6.5272,-6.6412,-6.7323,-6.7407,-6.8767,-6.9744,-6.9937,-7.0529,-7.1108,-7.1397,-7.1614,-7.1758,-7.1911,-7.1992,-7.1992,-7.1992,-7.1992,-7.1992,-7.1992,-7.1992,-7.1992,-7.1992,-7.1992,-7.1992,-7.1992,-7.1992,-7.2461,-7.3359,-7.4219,-7.5078,-7.5976,-7.6836,-7.7187,-7.7187,-7.7187,-7.7187,-7.7187,-7.7187,-7.7187,-7.7187,-7.7187,-7.7187,-7.7187,-7.7187,-7.832,-7.9765,-8.0117,-8.1172,-8.2304,-8.2304,-8.2304,-8.2304,-8.2304,-8.2304,-8.2304,-8.2304,-8.2304,-8.2304,-8.2304,-8.2304,-8.2304,-8.2304,-8.2304,-8.2304,-8.2304,-8.2304,-8.2304,-8.2304,-8.3789,-8.4749,-8.4338,-8.5743,-8.6651,-8.6208,-8.6126,-8.6094,-8.6094,-8.6094,-8.6094,-8.6094,-8.6094,-8.6094,-8.6094,-8.7094,-8.8363,-8.9863,-9.0748,-9.121,-9.121,-9.121,-9.121,-9.121,-9.121,-9.121,-5.4253,-5.4589,-5.5166,-5.7372,-5.7881,-5.7954,-5.8103,0.0,-5.839,-5.9273,0.0,-5.9628,-6.0413,0.0,0.0,-6.0702,-6.2508,-6.3928,-6.3861,-6.6172,-6.8034,-6.8564,-6.9241,-6.9975,-7.0706,-7.1023,-7.1201,-7.1223,-7.1521,-7.1696,-7.1741,-7.1908,-7.1992,-7.1992,-7.1992,-7.1992,-7.1992,-7.1992,-7.1992,-7.1992,-7.1992,-7.1992,-7.1992,-7.1992,-7.2461,-7.3359,-7.4219,-7.5078,-7.5976,-7.6836,-7.7187,-7.7187,-7.7187,-7.7187,-7.7187,-7.7187,-7.7187,-7.7187,-7.7187,-7.7187,-7.7187,-7.7187,-7.832,-8.0,-8.1523,-8.2148,-8.2304,-8.2304,-8.2304,-8.2304,-8.2304,-8.2304,-8.2304,-8.2304,-8.2304,-8.2304,-8.2304,-8.2304,-8.2304,-8.2304,-8.2304,-8.2304,-8.2304,-8.2304,-8.2304,-8.2304,-8.3789,-8.4836,-8.4598,-8.5871,-8.671,-8.6455,-8.6238,-8.6094,-8.6094,-8.6094,-8.6094,-8.6094,-8.6094,-8.6094,-8.6094,-8.7671,-8.8979,-8.9902,-9.0748,-9.121,-9.121,-9.121,-9.121,-9.121,-9.121,-9.121,-5.4084,-5.4955,-5.5693,-5.7446,-5.8246,-5.8494,-5.8027,-5.7881,-5.8027,-5.8317,0.0,0.0,0.0,0.0,0.0,0.0,-6.369,-6.5631,-6.53,-6.7298,-6.8675,-6.8338,-6.9013,-6.9713,-7.0394,-7.0537,-7.0748,-7.1162,-7.1137,-7.1303,-7.1682,-7.1906,-7.1992,-7.1992,-7.1992,-7.1992,-7.1992,-7.1992,-7.1992,-7.1992,-7.1992,-7.1992,-7.2031,-7.2539,-7.3242,-7.4101,-7.4961,-7.5859,-7.668,-7.7031,-7.7187,-7.7187,-7.7187,-7.7187,-7.7187,-7.7187,-7.7187,-7.7187,-7.7187,-7.7187,-7.7344,-7.832,-7.914,-8.0039,-8.1758,-8.2304,-8.2304,-8.2304,-8.2304,-8.2304,-8.2304,-8.2304,-8.2304,-8.2304,-8.2304,-8.2304,-8.2304,-8.2304,-8.2304,-8.2304,-8.2304,-8.2304,-8.2304,-8.2304,-8.2304,-8.2304,-8.3789,-8.4753,-8.4389,-8.5774,-8.6671,-8.6317,-8.6153,-8.6094,-8.6094,-8.6094,-8.6094,-8.6094,-8.6555,-8.7094,-8.7594,-8.8748,-8.9787,-9.0633,-9.1018,-9.121,-9.121,-9.121,-9.121,-9.121,-9.121,-9.121,-5.4955,-5.5817,-5.6554,-5.7668,-5.8317,-5.8633,-5.7993,-5.7881,-5.7881,-5.7881,-5.8051,0.0,0.0,0.0,-6.1235,-6.1219,0.0,-6.586,-6.5495,-6.7197,-6.8414,-6.8157,-6.8813,-6.9472,-6.9847,-6.9883,-7.0151,-7.085,-7.0699,-7.0893,-7.1544,-7.1741,-7.19,-7.1908,-7.191,-7.195,-7.1992,-7.1992,-7.1992,-7.1992,-7.1992,-7.1992,-7.2031,-7.289,-7.3789,-7.4648,-7.5508,-7.6406,-7.7187,-7.7187,-7.7187,-7.7187,-7.7187,-7.7187,-7.7187,-7.7187,-7.7187,-7.7187,-7.7187,-7.7344,-7.7773,-7.9219,-7.9844,-8.0351,-8.1836,-8.2304,-8.2304,-8.2304,-8.2304,-8.2304,-8.2304,-8.2304,-8.2304,-8.2304,-8.2304,-8.2304,-8.2304,-8.2304,-8.2304,-8.2304,-8.2304,-8.2304,-8.2304,-8.2304,-8.2304,-8.2304,-8.3789,-8.4749,-8.4351,-8.5804,-8.669,-8.6268,-8.6215,-8.6184,-8.6094,-8.6094,-8.6094,-8.6094,-8.6901,-8.7786,-8.8671,-8.9479,-9.0325,-9.1171,-9.121,-9.121,-9.121,-9.121,-9.121,-9.121,-9.121,-9.121,-5.7364,-5.7437,-5.7471,-5.7814,-5.7881,-5.7954,-5.7881,-5.7881,-5.7881,-5.7881,-5.8457,-5.8964,-5.8964,-5.9648,-6.0149,-6.022,-6.1641,0.0,0.0,-6.49,-6.7028,-6.8342,-6.8978,-6.9313,-6.9313,-6.9313,-6.955,-7.0057,-7.0316,-7.0657,-7.1182,-7.1397,-7.1572,-7.1689,-7.1696,-7.1807,-7.1992,-7.1992,-7.1992,-7.1992,-7.1992,-7.1992,-7.2031,-7.289,-7.3789,-7.4648,-7.5508,-7.6406,-7.7187,-7.7187,-7.7187,-7.7187,-7.7187,-7.7187,-7.7187,-7.7187,-7.7187,-7.7187,-7.7187,-7.7734,-7.8594,-7.9414,-8.0273,-8.1133,-8.2031,-8.2304,-8.2304,-8.2304,-8.2304,-8.2304,-8.2304,-8.2304,-8.2304,-8.2304,-8.2304,-8.2304,-8.2304,-8.2304,-8.2304,-8.2304,-8.2304,-8.2304,-8.2304,-8.2304,-8.2304,-8.2304,-8.3789,-8.4839,-8.4615,-8.6042,-8.6949,-8.6529,-8.6494,-8.6362,-8.6126,-8.6094,-8.6094,-8.6094,-8.6901,-8.7786,-8.8671,-8.9479,-9.0325,-9.1171,-9.121,-9.121,-9.121,-9.121,-9.121,-9.121,-9.121,-9.121,-5.7979,-5.8695,-5.8994,-5.8737,-5.9145,-5.9279,-5.8137,-5.7881,-5.7881,-5.7881,-5.8084,-5.8423,-5.893,-6.0091,-6.1183,-6.1708,-6.317,-6.4407,0.0,-6.6374,-6.7451,-6.793,-6.8464,-6.8795,-6.8795,-6.9106,-6.9511,-7.0061,-7.0316,-7.0632,-7.1162,-7.1459,-7.1651,-7.1689,-7.1815,-7.191,-7.1992,-7.1992,-7.1992,-7.1992,-7.1992,-7.2305,-7.289,-7.375,-7.4648,-7.5508,-7.6367,-7.6914,-7.7187,-7.7187,-7.7187,-7.7187,-7.7187,-7.7187,-7.7187,-7.7187,-7.7187,-7.7187,-7.7187,-7.7773,-7.8633,-7.9453,-8.0273,-8.1172,-8.2031,-8.2304,-8.2304,-8.2304,-8.2304,-8.2304,-8.2304,-8.2304,-8.2304,-8.2304,-8.2304,-8.2304,-8.2304,-8.2304,-8.2304,-8.2304,-8.2304,-8.2304,-8.2304,-8.2304,-8.25,-8.3086,-8.414,-8.5034,-8.5356,-8.6402,-8.6962,-8.6553,-8.6519,-8.6362,-8.6126,-8.6094,-8.6094,-8.6094,-8.744,-8.8402,-8.8671,-9.0017,-9.0902,-9.121,-9.121,-9.121,-9.121,-9.121,-9.121,-9.121,-9.121,-9.121,-5.9289,-6.0104,-6.0356,-5.9698,-5.996,-6.0023,-5.8633,-5.8317,-5.8353,-5.8565,-5.8665,-5.9217,-6.0625,-6.1431,-6.2196,-6.3136,-6.3764,-6.4495,0.0,-6.6368,-6.6988,-6.7596,-6.8033,-6.8308,-6.8511,-6.884,-6.9313,-7.0061,-7.0202,-7.0525,-7.1047,-7.1314,-7.1459,-7.1521,-7.1721,-7.185,-7.1906,-7.1952,-7.1992,-7.1992,-7.2305,-7.2773,-7.3359,-7.4531,-7.5351,-7.5937,-7.6836,-7.7187,-7.7187,-7.7187,-7.7187,-7.7187,-7.7187,-7.7187,-7.7187,-7.7187,-7.7187,-7.7187,-7.7187,-7.7969,-7.9023,-7.9531,-8.0508,-8.1562,-8.2148,-8.2304,-8.2226,-8.1914,-8.207,-8.2226,-8.1914,-8.207,-8.2304,-8.2304,-8.2304,-8.2304,-8.2304,-8.2304,-8.2304,-8.2304,-8.2304,-8.2304,-8.2304,-8.2304,-8.2617,-8.3476,-8.4336,-8.5112,-8.5707,-8.6627,-8.7058,-8.6553,-8.6537,-8.648,-8.6126,-8.6094,-8.6247,-8.6555,-8.7902,-8.8825,-8.9094,-9.0479,-9.1364,-9.1672,-9.1364,-9.1364,-9.1672,-9.1364,-9.121,-9.121,-9.121,-9.121]},{"header":{"parameterUnit":"m.s-1","parameterCategory":1,"la1":30.6,"la2":29.2853,"lo1":-89.7004,"lo2":-87.6739,"dy":0.0162,"dx":0.0183,"nx":112,"ny":82,"refTime":"2024-03-21T06:00:00:Z","depth":0,"parameterNumber":3,"parameterNumberName":"V-component_of_WINDS"},"data":[0.0,0.0,0.0,0.0,0.0,0.0,0.0,0.0,0.0,0.0,0.0,0.0,0.0,0.0,0.0,0.0,0.0,0.0,0.0,0.0,0.0,0.0,0.0,0.0,0.0,0.0,0.0,0.0,0.0,0.0,0.0,0.0,0.0,0.0,0.0,0.0,0.0,0.0,0.0,0.0,0.0,0.0,0.0,0.0,0.0,0.0,0.0,0.0,0.0,0.0,0.0,0.0,0.0,0.0,0.0,0.0,0.0,0.0,0.0,0.0,0.0,0.0,0.0,0.0,0.0,0.0,0.0,0.0,0.0,0.0,0.0,0.0,0.0,0.0,0.0,0.0,0.0,0.0,0.0,0.0,0.0,0.0,0.0,0.0,0.0,0.0,0.0,0.0,0.0,0.0,2.8136,2.8136,2.8136,2.8136,2.8136,2.8136,2.8136,2.8136,0.0,0.0,0.0,0.0,0.0,0.0,0.0,0.0,0.0,0.0,0.0,0.0,0.0,0.0,0.0,0.0,0.0,0.0,0.0,0.0,0.0,0.0,0.0,0.0,0.0,0.0,0.0,0.0,0.0,0.0,0.0,0.0,0.0,0.0,0.0,0.0,0.0,0.0,0.0,0.0,0.0,0.0,0.0,0.0,0.0,0.0,0.0,0.0,0.0,0.0,0.0,0.0,0.0,0.0,0.0,0.0,0.0,0.0,0.0,0.0,0.0,0.0,0.0,0.0,0.0,0.0,0.0,0.0,0.0,0.0,0.0,0.0,0.0,0.0,0.0,0.0,0.0,0.0,0.0,0.0,0.0,0.0,0.0,0.0,0.0,0.0,0.0,0.0,0.0,0.0,0.0,0.0,0.0,0.0,0.0,0.0,0.0,0.0,0.0,0.0,0.0,0.0,0.0,0.0,2.8136,2.8136,2.8136,2.8136,2.8136,2.8136,2.8136,2.8136,0.0,0.0,0.0,0.0,0.0,0.0,0.0,0.0,0.0,0.0,0.0,0.0,0.0,0.0,0.0,0.0,0.0,0.0,0.0,0.0,0.0,0.0,0.0,0.0,0.0,0.0,0.0,0.0,0.0,0.0,0.0,0.0,0.0,0.0,0.0,0.0,0.0,0.0,0.0,0.0,0.0,0.0,0.0,0.0,0.0,0.0,0.0,0.0,0.0,0.0,0.0,0.0,0.0,0.0,0.0,0.0,0.0,0.0,0.0,0.0,0.0,0.0,0.0,0.0,0.0,0.0,0.0,0.0,0.0,0.0,0.0,0.0,0.0,0.0,0.0,0.0,0.0,0.0,0.0,0.0,0.0,0.0,0.0,0.0,0.0,0.0,0.0,0.0,0.0,0.0,0.0,0.0,0.0,0.0,0.0,0.0,0.0,0.0,0.0,0.0,0.0,0.0,0.0,2.8892,2.8136,2.8136,2.8136,2.8136,2.8136,2.8136,2.8136,2.8136,2.8136,0.0,0.0,0.0,0.0,0.0,0.0,0.0,0.0,0.0,0.0,0.0,0.0,0.0,0.0,0.0,0.0,0.0,0.0,0.0,0.0,0.0,0.0,0.0,0.0,0.0,0.0,0.0,0.0,0.0,0.0,0.0,0.0,0.0,0.0,0.0,0.0,0.0,0.0,0.0,0.0,0.0,0.0,0.0,0.0,0.0,0.0,0.0,0.0,0.0,0.0,0.0,0.0,0.0,0.0,0.0,0.0,0.0,0.0,0.0,0.0,0.0,0.0,0.0,0.0,0.0,0.0,0.0,0.0,0.0,0.0,0.0,0.0,0.0,0.0,0.0,0.0,0.0,0.0,0.0,0.0,0.0,0.0,0.0,0.0,0.0,0.0,0.0,0.0,0.0,0.0,0.0,0.0,0.0,0.0,0.0,0.0,0.0,0.0,0.0,0.0,0.0,0.0,2.8136,2.8136,2.8136,2.8136,2.8136,2.8136,2.8136,2.8136,2.8136,2.8136,0.0,0.0,0.0,0.0,0.0,0.0,0.0,0.0,0.0,0.0,0.0,0.0,0.0,0.0,0.0,0.0,0.0,0.0,0.0,0.0,0.0,0.0,0.0,0.0,0.0,0.0,0.0,0.0,0.0,0.0,0.0,0.0,0.0,0.0,0.0,0.0,0.0,0.0,0.0,0.0,0.0,0.0,0.0,0.0,0.0,0.0,0.0,0.0,0.0,0.0,0.0,0.0,0.0,0.0,0.0,0.0,0.0,0.0,0.0,0.0,0.0,0.0,0.0,0.0,0.0,0.0,0.0,0.0,0.0,0.0,0.0,0.0,0.0,0.0,0.0,0.0,0.0,0.0,0.0,0.0,0.0,0.0,0.0,0.0,0.0,0.0,0.0,0.0,0.0,0.0,0.0,0.0,0.0,0.0,0.0,0.0,0.0,0.0,0.0,0.0,0.0,0.0,2.8136,2.8136,2.8136,2.8136,2.8136,2.8136,2.8136,2.8136,2.8136,2.8136,0.0,0.0,0.0,0.0,0.0,0.0,0.0,0.0,0.0,0.0,0.0,0.0,0.0,0.0,0.0,0.0,0.0,0.0,0.0,0.0,0.0,0.0,0.0,0.0,0.0,0.0,0.0,0.0,0.0,0.0,0.0,0.0,0.0,0.0,0.0,0.0,0.0,0.0,0.0,0.0,0.0,0.0,0.0,0.0,0.0,0.0,0.0,0.0,0.0,0.0,0.0,0.0,0.0,0.0,0.0,0.0,0.0,0.0,0.0,0.0,0.0,0.0,0.0,0.0,0.0,0.0,0.0,0.0,0.0,0.0,0.0,0.0,0.0,0.0,0.0,0.0,0.0,0.0,0.0,0.0,0.0,0.0,0.0,0.0,0.0,0.0,0.0,0.0,0.0,0.0,0.0,0.0,0.0,0.0,0.0,0.0,0.0,0.0,0.0,0.0,0.0,0.0,2.8136,2.8136,2.8136,2.8136,2.8136,2.8136,2.8136,2.8136,2.8136,0.0,0.0,0.0,0.0,0.0,0.0,0.0,0.0,0.0,0.0,0.0,0.0,0.0,0.0,0.0,0.0,0.0,0.0,0.0,0.0,0.0,0.0,0.0,0.0,0.0,0.0,0.0,0.0,0.0,0.0,0.0,0.0,0.0,0.0,0.0,0.0,0.0,0.0,0.0,0.0,0.0,0.0,0.0,0.0,0.0,0.0,0.0,0.0,0.0,0.0,0.0,0.0,0.0,0.0,0.0,0.0,0.0,0.0,0.0,0.0,0.0,0.0,0.0,0.0,0.0,0.0,0.0,0.0,0.0,0.0,0.0,0.0,0.0,0.0,0.0,0.0,0.0,0.0,0.0,0.0,0.0,0.0,0.0,0.0,0.0,0.0,0.0,0.0,0.0,0.0,0.0,0.0,0.0,0.0,0.0,0.0,0.0,0.0,0.0,0.0,0.0,0.0,2.8136,2.8136,2.8136,2.8136,2.8136,2.8136,2.8136,2.8136,2.8136,2.8136,0.0,0.0,0.0,0.0,0.0,0.0,0.0,0.0,0.0,0.0,0.0,0.0,0.0,0.0,0.0,0.0,0.0,0.0,0.0,0.0,0.0,0.0,0.0,0.0,0.0,0.0,0.0,0.0,0.0,0.0,0.0,0.0,0.0,0.0,0.0,0.0,0.0,0.0,0.0,0.0,0.0,0.0,0.0,0.0,0.0,0.0,0.0,0.0,0.0,0.0,0.0,0.0,0.0,0.0,0.0,0.0,0.0,0.0,0.0,0.0,0.0,0.0,0.0,0.0,0.0,0.0,0.0,0.0,0.0,0.0,0.0,0.0,0.0,0.0,0.0,0.0,0.0,0.0,0.0,0.0,0.0,0.0,0.0,0.0,0.0,0.0,0.0,0.0,0.0,0.0,0.0,0.0,0.0,0.0,0.0,0.0,0.0,0.0,0.0,0.0,0.0,0.0,2.8136,2.8136,2.8136,2.8136,2.8136,2.8136,2.8136,2.8136,2.8136,0.0,0.0,0.0,0.0,0.0,0.0,0.0,0.0,0.0,0.0,0.0,0.0,0.0,0.0,0.0,0.0,0.0,0.0,0.0,0.0,0.0,0.0,0.0,0.0,0.0,0.0,0.0,0.0,0.0,0.0,0.0,0.0,0.0,0.0,0.0,0.0,0.0,0.0,0.0,0.0,0.0,0.0,0.0,0.0,0.0,0.0,0.0,0.0,0.0,0.0,0.0,0.0,0.0,0.0,0.0,0.0,0.0,0.0,0.0,0.0,0.0,0.0,0.0,0.0,0.0,0.0,0.0,0.0,0.0,0.0,0.0,0.0,0.0,0.0,0.0,0.0,0.0,0.0,0.0,0.0,0.0,0.0,0.0,0.0,0.0,0.0,0.0,0.0,0.0,0.0,0.0,0.0,0.0,0.0,0.0,0.0,0.0,0.0,0.0,0.0,0.0,0.0,0.0,2.8136,2.8136,2.8136,2.8136,2.8136,2.8136,2.8136,2.8136,2.8136,2.8136,0.0,0.0,0.0,0.0,0.0,0.0,0.0,0.0,0.0,0.0,0.0,0.0,0.0,0.0,0.0,0.0,0.0,0.0,0.0,0.0,0.0,0.0,0.0,0.0,0.0,0.0,0.0,0.0,0.0,0.0,0.0,0.0,0.0,0.0,0.0,0.0,0.0,0.0,0.0,0.0,0.0,0.0,0.0,0.0,0.0,0.0,0.0,0.0,0.0,0.0,0.0,0.0,0.0,0.0,0.0,0.0,0.0,0.0,0.0,0.0,0.0,0.0,0.0,0.0,0.0,0.0,0.0,0.0,0.0,0.0,0.0,0.0,0.0,0.0,0.0,0.0,0.0,0.0,0.0,0.0,0.0,0.0,0.0,0.0,0.0,0.0,0.0,0.0,0.0,0.0,0.0,0.0,0.0,0.0,0.0,0.0,0.0,0.0,0.0,0.0,0.0,0.0,2.8136,2.8136,2.8136,2.8136,2.8136,2.8136,2.8136,2.8136,2.8136,2.8136,0.0,0.0,0.0,0.0,0.0,0.0,0.0,0.0,0.0,0.0,0.0,0.0,0.0,0.0,0.0,0.0,0.0,0.0,0.0,0.0,0.0,0.0,0.0,0.0,0.0,0.0,0.0,0.0,0.0,0.0,0.0,0.0,0.0,0.0,0.0,0.0,0.0,0.0,0.0,0.0,0.0,0.0,0.0,0.0,0.0,0.0,0.0,0.0,0.0,0.0,0.0,0.0,0.0,0.0,0.0,0.0,0.0,0.0,0.0,0.0,0.0,0.0,0.0,0.0,0.0,0.0,0.0,0.0,0.0,0.0,0.0,0.0,0.0,0.0,0.0,0.0,0.0,0.0,0.0,0.0,0.0,0.0,0.0,0.0,0.0,0.0,0.0,0.0,0.0,0.0,0.0,0.0,0.0,0.0,0.0,0.0,0.0,0.0,0.0,0.0,0.0,0.0,2.8136,2.8136,2.8136,2.8136,2.8136,2.8136,2.8136,2.8136,2.8136,2.8136,0.0,0.0,0.0,0.0,0.0,0.0,0.0,0.0,0.0,0.0,0.0,0.0,0.0,0.0,0.0,0.0,0.0,0.0,0.0,0.0,0.0,0.0,0.0,0.0,0.0,0.0,0.0,0.0,0.0,0.0,0.0,0.0,0.0,0.0,0.0,0.0,0.0,0.0,0.0,0.0,0.0,0.0,0.0,0.0,0.0,0.0,0.0,0.0,0.0,0.0,0.0,0.0,0.0,0.0,0.0,0.0,0.0,0.0,0.0,0.0,2.7195,2.6386,0.0,0.0,0.0,0.0,0.0,0.0,0.0,0.0,0.0,0.0,0.0,0.0,0.0,0.0,0.0,0.0,0.0,0.0,0.0,0.0,0.0,0.0,0.0,0.0,0.0,0.0,0.0,0.0,0.0,0.0,0.0,0.0,0.0,0.0,0.0,0.0,0.0,0.0,0.0,0.0,2.8136,2.8136,2.8136,2.8136,2.8136,2.8136,2.8136,2.8136,2.8136,2.8136,2.8136,0.0,0.0,0.0,0.0,0.0,0.0,0.0,0.0,0.0,0.0,0.0,0.0,0.0,0.0,0.0,0.0,0.0,0.0,0.0,0.0,0.0,0.0,0.0,0.0,0.0,0.0,0.0,0.0,0.0,0.0,0.0,0.0,0.0,0.0,0.0,0.0,0.0,0.0,0.0,0.0,0.0,0.0,0.0,0.0,0.0,0.0,0.0,0.0,0.0,0.0,0.0,0.0,0.0,0.0,0.0,0.0,0.0,0.0,0.0,2.6779,2.6386,0.0,0.0,0.0,0.0,0.0,0.0,0.0,0.0,0.0,0.0,0.0,0.0,0.0,0.0,0.0,0.0,0.0,0.0,0.0,0.0,0.0,0.0,0.0,0.0,0.0,0.0,0.0,0.0,0.0,0.0,0.0,0.0,0.0,0.0,0.0,0.0,0.0,0.0,0.0,0.0,2.8136,2.8136,2.8136,2.8136,2.8136,2.8136,2.8136,2.8136,2.8136,2.8136,2.8136,0.0,0.0,0.0,0.0,0.0,0.0,0.0,0.0,0.0,0.0,0.0,0.0,0.0,0.0,0.0,0.0,0.0,0.0,0.0,0.0,0.0,0.0,0.0,0.0,0.0,0.0,0.0,0.0,0.0,0.0,0.0,0.0,0.0,0.0,0.0,0.0,0.0,0.0,0.0,0.0,0.0,0.0,0.0,0.0,0.0,0.0,0.0,0.0,0.0,0.0,0.0,0.0,0.0,2.6386,2.6386,2.6386,2.6386,2.6386,2.6386,2.6386,2.6386,2.6386,2.6386,0.0,0.0,0.0,0.0,0.0,0.0,0.0,0.0,0.0,0.0,0.0,0.0,0.0,0.0,0.0,0.0,0.0,0.0,0.0,0.0,0.0,0.0,2.8136,2.8136,2.8136,2.8136,2.8136,0.0,0.0,0.0,0.0,0.0,0.0,0.0,0.0,0.0,0.0,0.0,2.8136,2.8136,2.8136,2.8136,2.8136,2.8136,2.8136,2.8136,2.8136,2.8136,2.8136,2.8136,0.0,0.0,0.0,0.0,0.0,0.0,0.0,0.0,0.0,0.0,0.0,0.0,0.0,0.0,0.0,0.0,0.0,0.0,0.0,0.0,0.0,0.0,0.0,0.0,0.0,0.0,0.0,0.0,0.0,0.0,0.0,0.0,0.2472,0.5239,0.0,0.0,0.0,0.0,0.0,0.0,0.0,0.0,0.0,0.0,0.0,0.0,0.0,2.3113,2.5568,2.5818,2.6136,2.6386,2.6386,2.6386,2.6386,2.6386,2.6386,2.6386,2.6386,0.0,2.6386,2.6386,0.0,0.0,0.0,0.0,0.0,0.0,0.0,0.0,0.0,0.0,0.0,0.0,0.0,0.0,0.0,0.0,0.0,0.0,0.0,0.0,0.0,0.0,2.8136,2.8136,2.8136,2.8136,2.8136,2.8136,2.8136,2.8136,2.8136,2.8136,0.0,0.0,0.0,0.0,0.0,0.0,2.8136,2.8136,2.8136,2.8136,2.8136,2.8136,2.8136,2.8136,2.8136,2.8136,2.8136,2.8136,2.8136,2.8136,0.0,0.0,0.0,0.0,0.0,0.0,0.0,0.0,0.0,0.0,0.0,0.0,0.0,0.0,0.0,0.0,0.0,0.0,0.0,0.0,0.0,0.0,0.0,0.0,0.0,0.0,0.0,0.0,0.0,0.2192,0.7145,0.9262,0.934,0.9873,0.0,0.0,0.0,0.0,0.0,0.0,0.0,0.0,0.0,2.1697,2.3329,2.471,2.5742,2.6235,2.6386,2.6386,2.6386,2.6386,2.6386,2.6386,2.6386,2.6386,2.6386,2.6386,2.6386,2.6386,2.6571,2.6865,0.0,0.0,0.0,0.0,2.8136,2.8136,2.8136,2.8136,2.8136,2.8136,0.0,0.0,0.0,0.0,0.0,0.0,0.0,2.8136,2.8136,2.8136,2.8136,2.8136,2.8136,2.8136,2.8136,2.8136,2.8136,2.8136,2.8136,2.8136,2.8136,2.8136,0.0,0.0,0.0,2.8136,2.8136,2.8136,2.8136,2.8136,2.8136,2.8136,2.8136,2.8136,2.8136,2.8136,2.8136,2.8136,2.8136,2.8136,2.8136,0.0,0.0,0.0,0.0,0.0,0.0,0.0,0.0,0.0,0.0,0.0,0.0,0.0,0.0,0.0,0.0,0.0,0.0,0.0,0.0,0.0,0.0,0.0,0.0,0.0,0.0,0.0,0.0,0.6096,1.0739,1.2863,1.174,1.2259,0.0,0.0,0.0,0.0,0.0,0.0,1.9333,2.1314,2.238,2.238,2.4446,2.5472,2.5431,2.6128,2.6386,2.6386,2.6386,2.6386,2.6386,2.6386,2.6386,2.6386,2.6386,2.6386,2.6386,2.6386,2.6571,2.6851,2.7139,2.7433,2.7746,2.8123,2.8136,2.8136,2.8136,2.8136,2.8136,2.8136,2.8136,2.8136,2.8136,0.0,0.0,0.0,0.0,2.8136,2.8136,2.8136,2.8136,2.8136,2.8136,2.8136,2.8136,2.8136,2.8136,2.8136,2.8136,2.8136,2.8136,2.8136,0.0,2.8136,2.8136,2.8136,2.8136,2.8136,2.8136,2.8136,2.8136,2.8136,2.8136,2.8136,2.8136,2.8136,2.8136,2.8136,2.8136,2.8136,2.8136,2.8136,0.0,0.0,0.0,0.0,0.0,0.0,0.0,0.0,0.0,0.0,0.0,0.0,0.0,0.0,0.0,0.0,0.0,0.0,0.0,0.0,0.0,0.0,0.0,0.0,0.0,0.0,0.0,0.0,0.0,1.4935,1.511,0.0,0.0,0.0,0.0,1.8541,2.0363,2.1488,2.1476,2.338,2.4502,2.4502,2.5147,2.5513,2.557,2.6175,2.6386,2.6386,2.6386,2.6386,2.6386,2.6386,2.6386,2.6386,2.6386,2.6386,2.6386,2.6386,2.6571,2.681,2.7243,2.745,2.7746,2.8123,2.8136,2.8136,2.8136,2.8136,2.8136,2.8136,2.8136,2.8136,2.8136,2.8136,0.0,0.0,2.8136,2.8136,2.8136,2.8136,2.8136,2.8136,2.8136,2.8136,2.8136,2.8136,2.8136,2.8136,2.8136,2.8136,2.8136,0.0,2.8136,2.8136,2.8136,2.8136,2.8136,2.8136,2.8136,2.8136,2.8136,2.8136,2.8136,2.8136,2.8136,2.8136,2.8136,2.8136,2.8136,2.8136,2.8136,2.8136,2.8136,0.0,0.0,0.0,0.0,0.0,0.0,0.0,0.0,0.0,0.0,0.0,0.0,0.0,0.0,0.0,0.0,0.0,0.0,0.0,0.0,0.0,0.0,0.0,0.0,0.0,0.0,0.0,0.0,1.3442,1.5776,0.0,1.8572,1.9746,2.1,2.242,2.3142,2.353,2.353,2.4284,2.4636,2.4636,2.5147,2.554,2.549,2.6043,2.6386,2.6386,2.6386,2.6386,2.6386,2.6386,2.6386,2.6386,2.6386,2.6386,2.6386,2.6386,2.64,2.6625,2.7041,2.7388,2.7437,2.8003,2.8136,2.8136,2.8136,2.8136,2.8136,2.8136,2.8136,2.8136,2.8136,2.8136,2.8136,2.8136,2.8136,2.8136,2.8136,2.8136,2.8136,2.8136,2.8136,2.8136,2.8136,2.8136,2.8136,2.8136,2.8136,2.8136,2.8136,2.8136,2.8136,2.8136,2.8136,2.8136,2.8136,2.8136,2.8136,2.8136,2.8136,2.8136,2.8136,2.8136,2.8136,2.8136,2.8136,2.8136,2.8136,2.8136,2.8136,2.8136,2.8136,2.8136,0.0,0.0,0.0,0.0,0.0,0.0,0.0,0.0,0.0,0.0,0.0,0.0,0.0,0.0,0.0,0.0,0.0,0.0,0.0,0.0,0.0,0.0,0.0,0.0,0.0,0.9766,1.262,1.3363,1.5863,1.8138,1.9414,2.0853,2.2408,2.4488,2.4636,2.4636,2.4636,2.4636,2.4636,2.4636,2.5133,2.5375,2.549,2.6069,2.6266,2.6386,2.6386,2.6386,2.6386,2.6386,2.6386,2.6386,2.6386,2.6386,2.6386,2.6386,2.6386,2.644,2.6921,2.7175,2.7321,2.7816,2.8056,2.8136,2.8136,2.8136,2.8136,2.8136,2.8136,2.8136,2.8136,2.8136,2.8136,2.8136,2.8136,2.8136,2.8136,2.8136,2.8136,2.8136,2.8136,2.8136,2.8136,2.8136,2.8136,2.8136,2.8136,2.8136,2.8136,2.8136,2.8136,2.8136,2.8136,2.8136,2.8136,2.8136,2.8136,2.8136,2.8136,2.8136,2.8136,2.8136,2.8136,2.8136,2.8136,2.8136,2.8136,2.8136,2.8136,2.8136,2.8136,2.8136,2.8136,0.0,0.0,0.0,0.0,0.0,0.0,0.0,0.0,0.0,0.0,0.0,0.0,0.0,0.0,0.0,0.0,0.0,0.0,0.0,0.0,0.0,0.0,0.0,0.6117,0.9866,1.3072,1.5159,1.5472,1.7105,2.1094,2.1526,2.2485,2.4475,2.4636,2.4636,2.4636,2.4636,2.4636,2.4636,2.4972,2.5197,2.5464,2.5816,2.6168,2.6386,2.6386,2.6386,2.6386,2.6386,2.6386,2.6386,2.6386,2.6386,2.6386,2.6386,2.6386,2.6413,2.6707,2.7001,2.7308,2.7589,2.7883,2.8136,2.8136,2.8136,2.8136,2.8136,2.8136,2.8136,2.8136,2.8136,2.8136,2.8136,2.8136,2.8136,2.8136,2.8136,2.8136,2.8136,2.8136,2.8136,2.8136,2.8136,2.8136,2.8136,2.8136,2.8136,2.8136,2.8136,2.8136,2.8136,2.8136,0.0,2.8136,2.8136,2.8136,2.8136,2.8136,2.8136,2.8136,2.8136,2.8136,2.8136,2.8136,2.8136,2.8136,2.8136,2.8136,2.8136,2.8136,2.8136,2.8136,0.0,0.0,0.0,0.0,0.0,0.0,0.0,0.0,0.0,0.0,0.0,0.0,0.0,0.0,0.0,0.0,0.0,0.0,0.0,0.0,0.0,0.2909,0.6349,1.0053,1.2719,1.4027,1.3355,1.5975,1.8251,1.9385,2.0807,2.2485,2.4475,2.4636,2.4636,2.4636,2.4636,2.4636,2.4636,2.4972,2.5173,2.5564,2.5798,2.6168,2.6386,2.6386,2.6386,2.6386,2.6386,2.6386,2.6386,2.6386,2.6386,2.6386,2.6386,2.6386,2.6413,2.6707,2.7001,2.7308,2.7589,2.7883,2.8136,2.8136,2.8136,2.8136,2.8136,2.8136,2.8136,2.8136,2.8136,2.8136,2.8136,2.8136,2.8136,2.8136,2.8136,2.8136,2.8136,2.8136,2.8136,2.8136,2.8136,2.8136,2.8136,2.8136,2.8136,2.8136,2.8136,2.8136,2.8136,2.8136,2.8136,2.8136,2.8136,2.8136,2.8136,2.8136,2.8136,2.8136,2.8136,2.8136,2.8136,2.8136,2.8136,2.8136,2.8136,2.8136,2.8136,2.8136,2.8136,0.0,0.0,0.0,0.0,0.0,0.0,0.0,0.0,0.0,0.0,0.0,0.0,0.0,0.0,0.0,0.0,0.0,0.0,0.0,0.0,0.0,0.0,0.3346,0.7088,1.0357,1.26,1.3611,1.2615,1.4678,1.6766,1.8461,1.9628,2.1514,2.4314,2.4636,2.4636,2.4636,2.4636,2.4636,2.4636,2.4811,2.5093,2.5504,2.5638,2.5932,2.6386,2.6386,2.6386,2.6386,2.6386,2.6386,2.6386,2.6386,2.6386,2.6386,2.6386,2.6386,2.6413,0.0,0.0,0.0,0.0,2.7989,2.8136,2.8136,2.8136,2.8136,2.8136,2.8136,2.8136,2.8136,2.8136,2.8136,2.8136,2.8136,2.8136,2.8136,2.8136,2.8136,2.8136,2.8136,2.8136,2.8136,2.8136,2.8136,2.8136,2.7448,0.0,2.7968,2.8136,2.8136,2.8136,2.8136,2.8136,2.8136,2.8136,2.8136,2.8136,2.8136,2.8136,2.8136,2.8136,0.0,0.0,0.0,2.8136,2.8136,2.8136,0.0,0.0,0.0,2.8136,2.8136,2.8136,0.0,0.0,2.8136,2.8136,0.0,0.0,0.0,0.0,0.0,0.0,0.0,0.0,0.0,0.0,0.0,0.0,0.0,0.0,0.0,0.0,0.348,0.6885,0.925,1.1208,1.2305,1.2481,1.2501,1.4099,1.8198,1.8356,1.9977,2.4314,2.4341,2.4341,2.4636,2.4636,0.0,0.0,0.0,2.4903,2.5464,2.5491,2.5785,2.6346,2.6373,2.6386,2.6386,2.6386,2.6386,2.6386,2.6386,2.6386,2.6386,2.6386,2.6386,2.64,2.6466,2.68,2.7335,2.7923,2.8136,2.8136,2.8136,0.0,0.0,2.8136,2.8136,2.8136,2.8136,2.8136,2.8136,2.8136,2.8136,2.8136,2.7799,2.7968,2.8136,2.7617,2.7617,2.7786,2.7448,2.7448,2.7448,2.7448,2.5714,2.5032,2.7096,2.7617,2.7799,2.7799,2.7968,2.8136,2.7799,2.7968,2.8136,2.8136,2.7968,0.0,2.7799,2.7617,2.7448,2.7799,2.7968,2.8136,2.8136,2.8136,2.8136,2.8136,2.8136,2.8136,2.8136,2.8136,2.8136,2.8136,2.8136,2.8136,0.0,0.0,0.0,0.0,0.0,0.0,0.0,0.0,0.0,0.0,0.0,0.0,0.0,0.0,0.0,0.1445,0.4511,0.7456,1.097,1.2128,1.2461,1.2494,1.2501,1.4099,1.8198,1.7105,1.8471,2.4179,2.3166,2.2868,2.4488,2.4636,2.4636,2.4636,2.4636,2.481,2.5157,2.5398,2.5692,2.6039,2.6279,0.0,2.6386,2.6386,2.6386,2.6386,2.6386,2.6386,2.6386,2.6386,2.6386,2.644,2.6907,2.7161,2.7335,2.7923,2.8136,2.8136,2.8136,2.8136,2.8136,2.8136,2.8136,2.8136,2.8136,2.8136,0.0,2.8136,2.8136,2.7799,2.5896,2.6758,2.7279,2.347,2.3984,2.4861,2.2944,2.26,2.26,2.26,2.2256,2.2084,2.2428,2.4166,2.5385,2.5385,2.6927,2.7448,2.5556,2.7096,2.8136,2.8136,2.6588,2.5385,2.5385,2.3641,2.3298,2.5203,2.7109,2.8136,2.8136,2.8136,2.8136,2.8136,2.8136,2.8136,2.8136,2.8136,2.8136,2.8136,2.8136,2.8136,0.0,0.0,0.0,0.0,0.0,0.0,0.0,0.0,0.0,0.0,0.0,-1.5827,-1.2095,0.0,-0.4174,0.0726,0.4231,0.6921,0.8984,1.106,1.2501,1.2501,1.2501,1.3699,1.6821,1.6142,1.7245,2.1302,2.1625,2.2085,2.3116,2.4031,2.4636,2.4636,2.4636,2.4783,2.5077,2.5371,2.5665,2.5959,2.6253,2.6386,2.6386,2.6386,2.6386,2.6386,2.6386,2.6386,2.6386,2.6386,2.6386,2.6426,2.6867,2.7134,2.7321,2.7762,2.733,2.6588,2.7799,2.7448,2.6588,2.7799,2.8136,2.8136,2.8136,2.8136,2.8136,2.8136,2.8136,2.7617,2.5373,2.5556,2.5543,2.2084,2.2084,2.2611,2.1394,2.1221,2.1221,2.1221,2.0356,1.9836,2.1048,2.1221,2.1566,2.2783,2.3984,2.4326,2.3126,2.3984,2.4679,2.4679,2.3641,2.2955,2.2955,2.1911,2.2256,2.452,2.5726,2.6927,2.8136,2.8136,2.8136,2.8136,2.8136,2.8136,2.8136,2.8136,2.8136,2.8136,2.8136,2.8136,0.0,0.0,0.0,0.0,0.0,0.0,0.0,-3.2919,-2.8949,-2.235,-1.81,-1.4001,-0.8965,-0.6486,-0.3928,0.0,0.3798,0.6382,0.6792,1.012,1.2501,1.2501,1.2501,1.3303,1.5236,1.5113,1.5955,1.8421,1.9779,2.0692,2.1601,2.3116,2.4179,2.4636,2.4636,2.4756,2.4997,2.5277,2.5571,2.5879,2.6159,2.6333,2.6386,2.6386,2.6386,2.6386,2.5898,2.574,2.574,2.5251,2.5092,2.5276,2.5827,2.6287,2.679,2.7423,2.6516,2.5032,2.6927,2.6066,2.4337,2.6236,2.6927,2.6927,2.6927,2.6927,2.6927,2.7448,2.7266,2.6406,2.4508,2.3995,2.3298,2.0529,2.0183,2.0356,2.0009,1.9836,1.9836,1.9836,1.8453,1.7763,1.9498,1.8279,1.7938,2.0183,2.0875,2.1048,2.0529,2.0875,2.1221,2.1221,2.0875,2.0356,1.9836,2.0356,2.1394,2.3298,2.4166,2.5556,2.7448,2.7968,2.8136,2.8136,2.8136,2.8136,2.8136,2.8136,2.8136,2.8136,2.8136,2.8136,-5.9716,-5.8134,-5.5051,-4.8909,-4.5683,-4.0889,0.0,-2.4968,-2.1925,-1.6482,-1.2316,-0.8918,-0.6622,-0.4496,-0.1896,0.1898,0.4679,0.6833,0.8659,1.0916,1.2501,1.2501,1.2501,1.3303,1.5236,1.3929,1.4475,1.827,1.7056,1.7815,2.144,2.1751,2.2806,2.4488,2.4636,2.4649,2.469,2.4983,2.5277,2.5558,2.5865,2.6146,2.6386,2.6386,2.6386,2.6228,2.4271,2.346,2.33,2.1362,2.0554,2.0878,2.2682,2.3806,2.4613,2.6913,2.6516,2.4691,2.5032,2.3641,2.1566,2.1911,2.1911,2.1911,2.1911,2.1911,2.2428,2.4508,2.3641,2.1911,2.1739,2.1566,2.0529,1.6034,1.6729,1.7588,1.5513,1.4992,1.4992,1.4992,1.4822,1.4822,1.4992,1.4822,1.5513,1.7763,1.9836,2.0529,1.8453,2.0009,2.1221,2.1221,1.9315,1.7422,1.5168,1.6896,1.8279,1.8627,2.2439,2.4861,2.5032,2.7109,2.8136,2.8136,2.8136,2.8136,2.8136,2.8136,2.8136,2.8136,2.8136,2.8136,-5.781,-5.5758,-5.2888,-4.7884,-4.4916,-4.0822,-3.1607,-2.7406,-2.3694,-1.7388,-1.3858,-1.0731,-0.6634,-0.5084,-0.336,0.0584,0.3066,0.5191,0.7257,0.9336,1.1071,1.234,1.2501,1.2824,1.3619,1.2979,1.3259,1.4935,1.5387,1.6751,1.9629,2.0991,2.2049,2.2806,2.4031,2.4031,2.2806,2.4318,2.5224,2.5518,2.5812,2.5466,2.4602,2.574,2.6386,2.6228,2.4111,2.314,2.298,2.0716,1.9907,2.0069,2.0878,2.1491,2.2244,2.4543,2.4327,2.2611,2.2611,2.1221,1.9488,2.0702,2.1221,2.1221,2.1221,2.1221,2.1394,2.2428,2.1911,2.0875,1.9488,1.9141,1.8453,1.4992,1.4992,1.5513,1.4476,1.4299,1.4299,1.4299,1.4299,1.4299,1.4299,1.4299,1.4646,1.569,1.6553,1.6904,1.5858,1.6553,1.7247,1.7247,1.6386,1.5344,1.4299,1.5168,1.6378,1.7763,1.9662,2.1221,2.2611,2.4861,2.6236,2.6236,2.6236,2.6236,2.6236,2.485,2.4155,2.4155,2.4155,2.4155,-5.7005,-5.4852,-5.2172,-4.7131,-4.3899,-4.003,-3.3047,-2.8804,-2.4592,-1.841,-1.5721,-1.2661,-0.6925,-0.5815,-0.4533,-0.0584,0.1752,0.3851,0.6015,0.8079,1.0125,1.2185,1.2501,1.2501,1.2501,1.2501,1.2501,1.2501,1.3868,1.554,1.7663,1.9629,2.0841,2.0841,2.2657,2.3116,2.1601,2.3317,2.4488,2.5398,2.5692,2.4867,2.3034,2.4087,2.4602,2.4442,2.2327,2.1351,2.119,1.8933,1.8118,1.8118,1.877,1.9309,1.9805,2.1379,2.1186,2.0183,2.0183,1.8802,1.7071,1.8802,1.9324,1.9324,1.9324,1.9324,1.9498,2.0009,1.9836,1.915,1.8104,1.7238,1.6378,1.4646,1.4299,1.4299,1.4299,1.4299,1.4299,1.4299,1.4299,1.4299,1.4299,1.4299,1.4299,1.4299,1.4299,1.4299,1.4299,1.4299,1.4299,1.4299,1.4299,1.4299,1.4299,1.4299,1.4992,1.6729,1.7413,1.8627,2.0183,2.2439,2.3652,2.3652,2.3652,2.3652,2.3652,2.2084,2.1221,2.1221,2.1221,2.1221,-5.8471,-5.6667,-5.3496,-4.646,-4.2198,-3.7804,-3.0049,-2.5525,-2.1782,-1.8024,-1.5775,-1.2661,-0.6925,-0.5815,-0.4533,-0.0584,0.1752,0.3851,0.6015,0.8079,1.0125,1.2185,1.2501,1.2501,1.2501,1.2501,1.2501,1.2501,1.2501,1.3414,1.554,1.7512,1.8723,1.8723,2.0692,2.1601,2.1601,2.1613,2.2805,2.5104,2.5384,2.4572,2.2618,2.0932,2.0069,1.9907,1.7783,1.6811,1.6647,1.4541,1.3562,1.3728,1.5835,1.6931,1.7285,1.7315,1.7622,1.7929,1.7929,1.6378,1.4476,1.4476,1.4476,1.4476,1.4476,1.4476,1.4992,1.7247,1.6202,1.4992,1.7238,1.6034,1.4476,1.4299,1.4299,1.4299,1.4299,1.4299,1.4299,1.4299,1.4299,1.4299,1.4299,1.4299,1.4299,1.4299,1.4299,1.4299,1.4299,1.4299,1.4299,1.4299,1.4299,1.4299,1.4299,1.4299,1.4299,1.4476,1.6553,1.7755,1.7929,2.0009,2.1394,2.1394,2.1394,2.1394,2.1394,2.1221,2.1221,2.1221,2.1221,2.1221,-5.7678,-5.6054,-5.3453,-4.7908,-4.3925,-3.9952,-3.412,-3.032,-2.6664,-2.1782,-2.0321,-1.8164,-1.2462,-0.9352,-0.6735,-0.4238,-0.1037,0.1807,0.3827,0.6035,0.8106,1.0153,1.1714,1.2501,1.2501,1.2501,1.2501,1.2501,1.2501,1.3414,1.5387,1.6142,1.6599,1.6599,1.8572,1.9025,1.7512,1.8874,2.0049,2.1063,1.9907,2.0686,2.2852,1.9381,1.8444,1.9745,1.7629,1.6647,1.6483,1.421,1.3403,1.3397,1.4217,1.4644,1.4806,1.4798,1.516,1.5366,1.5477,1.4992,1.4299,1.4299,1.4299,1.4299,1.4299,1.4299,1.4476,1.5344,1.4999,1.4476,1.5344,1.4822,1.4299,1.4299,1.4299,1.4299,1.4299,1.4299,1.4299,1.4299,1.4299,1.4299,1.4299,1.4299,1.4299,1.4299,1.4299,1.4299,1.4299,1.4299,1.4299,1.4299,1.4299,1.4299,1.4299,1.4299,1.4299,1.4299,1.4992,1.5513,1.5513,1.7763,1.8976,1.8976,1.8976,1.8976,1.8976,1.7422,1.6553,1.6553,1.6553,1.6553,-5.7687,-5.6375,-5.4276,-4.9254,-4.5928,-4.232,-3.6478,-3.3345,-2.9946,-2.3904,-2.3215,-2.1696,-1.5512,-1.1691,-0.876,-0.6068,-0.2551,0.0761,0.2768,0.4962,0.7022,0.9216,1.125,1.2501,1.2501,1.2501,1.2501,1.2501,1.2501,1.3112,1.4322,1.5081,1.5234,1.4475,1.6447,1.6904,1.554,1.6751,1.8074,1.906,1.7074,1.7815,2.059,1.7112,1.6164,1.7474,1.5999,1.5514,1.535,1.3887,1.3403,1.3403,1.3403,1.3458,1.3573,1.377,1.3905,1.4021,1.4231,1.4299,1.4299,1.4299,1.4299,1.4299,1.4299,1.4299,1.4299,1.4299,1.4299,1.4299,1.4299,1.4299,1.4299,1.4299,1.4299,1.4299,1.4299,1.4299,1.4299,1.4299,1.4299,1.4299,1.4299,1.4299,1.4299,1.4299,1.4299,1.4299,1.4299,1.4299,1.4299,1.4299,1.4299,1.4299,1.4299,1.4299,1.4299,1.4299,1.4299,1.4299,1.4299,1.569,1.6553,1.6553,1.6553,1.6553,1.6553,1.4992,1.4299,1.4299,1.4299,1.4299,-5.8643,-5.7639,-5.5762,-5.0546,-4.7857,-4.4523,-3.7283,-3.4498,-3.1425,-2.4589,-2.4462,-2.3393,-1.6215,-1.2998,-1.0275,-0.6623,-0.2572,0.0763,0.2649,0.4839,0.7022,0.9061,1.1095,1.2501,1.2501,1.2501,1.2501,1.2501,1.2501,1.2501,1.2501,1.433,1.4475,1.2501,1.433,1.5387,1.5387,1.5387,1.6545,1.8742,1.6782,1.604,1.6394,1.431,1.3403,1.3403,1.3403,1.3403,1.3403,1.3403,1.3403,1.3403,1.3403,1.3403,1.3437,1.3729,1.3838,1.3885,1.4197,1.4299,1.4299,1.4299,1.4299,1.4299,1.4299,1.4299,1.4299,1.4299,1.4299,1.4299,1.4299,1.4299,1.4299,1.4299,1.4299,1.4299,1.4299,1.4299,1.4299,1.4299,1.4299,1.4299,1.4299,1.4299,1.4299,1.4299,1.4299,1.4299,1.4299,1.4299,1.4299,1.4299,1.4299,1.4299,1.4299,1.4299,1.4299,1.4299,1.4299,1.4299,1.4299,1.4299,1.4299,1.4299,1.4299,1.4299,1.4299,1.4299,1.4299,1.4299,1.4299,1.4299,-5.925,-5.7834,-5.5927,-5.3729,-4.9734,-4.5688,-4.2846,-3.8519,-3.4266,-3.1117,-2.986,-2.8031,-2.3412,-1.7612,-1.27,-1.0287,-0.4305,0.0152,0.0764,0.4024,0.6562,0.7033,1.0308,1.2501,1.2501,1.2501,1.2501,1.2501,1.2501,1.2501,1.2501,1.2958,1.2958,1.2501,1.2958,1.3259,1.3259,1.3259,1.4415,1.6742,1.4766,1.4624,1.6394,1.431,1.3403,1.3403,1.3403,1.3403,1.3403,1.3403,1.3403,1.3403,1.3403,1.3403,1.3437,1.3729,1.3838,1.3885,1.4197,1.4299,1.4299,1.4299,1.4299,1.4299,1.4299,1.4299,1.4299,1.4299,1.4299,1.4299,1.4299,1.4299,1.4299,1.4299,1.4299,1.4299,1.4299,1.4299,1.4299,1.4299,1.4299,1.4299,1.4299,1.4299,1.4299,1.4299,1.4299,1.4299,1.4299,1.4299,1.4299,1.4299,1.4299,1.4299,1.4299,1.4299,1.4299,1.4299,1.4299,1.4299,1.4299,1.4299,1.4299,1.4299,1.4299,1.4299,1.4299,1.4299,1.4299,1.4299,1.4299,1.4299,-5.9237,-5.769,-5.6063,-5.49,-5.0963,-4.6914,-4.507,-4.1157,-3.7243,-3.48,-3.3532,-3.1653,-2.7471,-2.1094,-1.5477,-1.2114,-0.5806,-0.0911,-0.0154,0.2796,0.5318,0.6254,0.9216,1.156,1.2347,1.2501,1.2501,1.2501,1.2501,1.2501,1.2501,1.2501,1.2501,1.2501,1.2501,1.2501,1.2501,1.2501,1.3155,1.447,1.3411,1.3568,1.4838,1.3881,1.3336,1.3403,1.3403,1.3403,1.3403,1.3403,1.3403,1.3403,1.3403,1.3403,1.3431,1.3661,1.379,1.3871,1.4116,1.4245,1.4299,1.4299,1.4299,1.4299,1.4299,1.4299,1.4299,1.4299,1.4299,1.4299,1.4299,1.4299,1.4299,1.4299,1.4299,1.4299,1.4299,1.4299,1.4299,1.4299,1.4299,1.4299,1.4299,1.4299,1.4299,1.4299,1.4299,1.4299,1.4299,1.4299,1.4299,1.4299,1.4299,1.4299,1.4299,1.4299,1.4299,1.4299,1.4299,1.4299,1.4299,1.4299,1.4299,1.4299,1.4299,1.4299,1.4299,1.4299,1.4299,1.4299,1.4299,1.4333,-5.8896,-5.7529,-5.599,-5.4907,-5.1653,-4.8098,-4.5621,-4.2674,-3.9741,-3.6544,-3.5912,-3.4366,-2.9316,-2.3658,-1.7983,-1.2719,-0.6792,-0.229,-0.0312,0.1722,0.3912,0.6098,0.8128,1.0153,1.2347,1.2501,1.2501,1.2501,1.2501,1.2501,1.2501,1.2501,1.2501,1.2501,1.2501,1.2501,1.2501,1.2501,1.2501,1.2501,1.2657,1.2813,1.2969,1.3105,1.3254,1.3403,1.3403,1.3403,1.3403,1.3403,1.3403,1.3403,1.3403,1.3403,1.3417,1.3573,1.3715,1.3865,1.4021,1.417,1.4299,1.4299,1.4299,1.4299,1.4299,1.4299,1.4299,1.4299,1.4299,1.4299,1.4299,1.4299,1.4299,1.4299,1.4299,1.4299,1.4299,1.4299,1.4299,1.4299,1.4299,1.4299,1.4299,1.4299,1.4299,1.4299,1.4299,1.4299,1.4299,1.4299,1.4299,1.4299,1.4299,1.4299,1.4299,1.4299,1.4299,1.4299,1.4299,1.4299,1.4299,1.4299,1.4299,1.4299,1.4299,1.4299,1.4299,1.4299,1.4299,1.4299,1.4299,1.4373,-5.8854,-5.7526,-5.6057,-5.4907,-5.1668,-4.8439,-4.7026,-4.3534,-4.008,-3.8185,-3.7019,-3.4825,-2.9526,-2.3983,-1.8453,-1.2765,-0.6958,-0.2306,-0.0309,0.1713,0.3912,0.6098,0.8128,1.0153,1.2347,1.2501,1.2501,1.2501,1.2501,1.2501,1.2501,1.2501,1.2501,1.2501,1.2501,1.2501,1.2501,1.2501,1.2501,1.2501,1.2657,1.2813,1.2969,1.3105,1.3254,1.3403,1.3403,1.3403,1.3403,1.3403,1.3403,1.3403,1.3403,1.3403,1.3417,1.3573,1.3715,1.3865,1.4021,1.417,1.4299,1.4299,1.4299,1.4299,1.4299,1.4299,1.4299,1.4299,1.4299,1.4299,1.4299,1.4299,1.4299,1.4299,1.4299,1.4299,1.4299,1.4299,1.4299,1.4299,1.4299,1.4299,1.4299,1.4299,1.4299,1.4299,1.4299,1.4299,1.4299,1.4299,1.4299,1.4299,1.4299,1.4299,1.4299,1.4299,1.4299,1.4299,1.4299,1.4299,1.4299,1.4299,1.4299,1.4299,1.4299,1.4299,1.4299,1.4299,1.4299,1.4299,1.4299,1.4373,-5.9087,-5.7258,-5.511,-5.3798,-5.0657,-4.7567,-4.6265,-4.383,-4.1419,-3.9756,-3.8506,-3.6123,-3.0963,-2.6497,-2.142,-1.4778,-0.9434,-0.5219,-0.2017,0.0156,0.2664,0.5942,0.7189,0.9061,1.2185,1.2501,1.2501,1.2501,1.2501,1.2501,1.2501,1.2501,1.2501,1.2501,1.2501,1.2501,1.2501,1.2501,1.2501,1.2501,1.2576,1.2732,1.2963,1.303,1.3186,1.3403,1.3403,1.3403,1.3403,1.3403,1.3403,1.3403,1.3403,1.3403,1.341,1.3485,1.3648,1.3851,1.3926,1.4102,1.4299,1.4299,1.4299,1.4299,1.4299,1.4299,1.4299,1.4299,1.4299,1.4299,1.4299,1.4299,1.4299,1.4299,1.4299,1.4299,1.4299,1.4299,1.4299,1.4299,1.4299,1.4299,1.4299,1.4299,1.4299,1.4299,1.4299,1.4299,1.4299,1.4299,1.4299,1.4299,1.4299,1.4299,1.4299,1.4299,1.4299,1.4299,1.4299,1.4299,1.4299,1.4299,1.4299,1.4299,1.4299,1.4299,1.4299,1.4299,1.4299,1.4299,1.4373,1.4489,-5.9337,-5.6934,-5.4274,-5.2822,-4.9809,-4.6682,-4.5369,-4.4016,-4.2488,-4.0476,-3.9533,-3.7395,-3.1824,-2.8486,-2.4222,-1.7171,-1.2574,-0.8445,-0.4364,-0.2036,0.1097,0.5786,0.6254,0.7972,1.203,1.2501,1.2501,1.2501,1.2501,1.2501,1.2501,1.2501,1.2501,1.2501,1.2501,1.2501,1.2501,1.2501,1.2501,1.2501,1.2501,1.2644,1.2915,1.2942,1.3105,1.3356,1.339,1.3403,1.3403,1.3403,1.3403,1.3403,1.3403,1.3403,1.3403,1.3403,1.3566,1.3797,1.3831,1.4021,1.4258,1.4292,1.4299,1.4299,1.4299,1.4299,1.4299,1.4299,1.4299,1.4299,1.4299,1.4299,1.4299,1.4299,1.4299,1.4299,1.4299,1.4299,1.4299,1.4299,1.4299,1.4299,1.4299,1.4299,1.4299,1.4299,1.4299,1.4299,1.4299,1.4299,1.4299,1.4299,1.4299,1.4299,1.4299,1.4299,1.4299,1.4299,1.4299,1.4299,1.4299,1.4299,1.4299,1.4299,1.4299,1.4299,1.4299,1.4299,1.4299,1.4306,1.4448,1.459,-5.9442,-5.6934,-5.4274,-5.2822,-4.9809,-4.6709,-4.5395,-4.4042,-4.215,-3.9053,-3.8963,-3.7403,-3.0528,-2.8115,-2.5277,-1.9169,-1.4806,-1.0685,-0.6516,-0.4055,-0.0626,0.5627,0.6254,0.7972,1.203,1.2501,1.2501,1.2501,1.2501,1.2501,1.2501,1.2501,1.2501,1.2501,1.2501,1.2501,1.2501,1.2501,1.2501,1.2501,1.2501,1.2589,1.2759,1.2895,1.3044,1.32,1.3342,1.3403,1.3403,1.3403,1.3403,1.3403,1.3403,1.3403,1.3403,1.3403,1.3505,1.3668,1.3797,1.3953,1.4116,1.4251,1.4299,1.4299,1.4299,1.4299,1.4299,1.4299,1.4299,1.4299,1.4299,1.4299,1.4299,1.4299,1.4299,1.4299,1.4299,1.4299,1.4299,1.4299,1.4299,1.4299,1.4299,1.4299,1.4299,1.4299,1.4299,1.4299,1.4299,1.4299,1.4299,1.4299,1.4299,1.4299,1.4299,1.4299,1.4299,1.4299,1.4299,1.4299,1.4299,1.4299,1.4299,1.4299,1.4299,1.4299,1.4299,1.4299,1.4299,1.4306,1.4448,1.459,-6.0071,-5.7345,-5.4073,-5.1874,-4.9204,-4.6501,-4.4344,-4.3406,-4.211,-3.9203,-3.8139,-3.6044,-3.0429,-2.8255,-2.5923,-2.1061,-1.6963,-1.3151,-1.0383,-0.5919,-0.125,0.3739,0.5465,0.7972,1.203,1.2501,1.2501,1.2501,1.2501,1.2501,1.2501,1.2501,1.2501,1.2501,1.2501,1.2501,1.2501,1.2501,1.2501,1.2501,1.2501,1.2583,1.2732,1.2888,1.3037,1.318,1.3336,1.3403,1.3403,1.3403,1.3403,1.3403,1.3403,1.3403,1.3403,1.3403,1.3498,1.3648,1.379,1.3939,1.4095,1.4251,1.4299,1.4299,1.4299,1.4299,1.4299,1.4299,1.4299,1.4299,1.4299,1.4299,1.4299,1.4299,1.4299,1.4299,1.4299,1.4299,1.4299,1.4299,1.4299,1.4299,1.4299,1.4299,1.4299,1.4299,1.4299,1.4299,1.4299,1.4299,1.4299,1.4299,1.4299,1.4299,1.4299,1.4299,1.4299,1.4299,1.4299,1.4299,1.4299,1.4299,1.4299,1.4299,1.4299,1.4299,1.4299,1.4299,1.4346,1.4428,1.4577,1.4733,-6.0093,-5.7296,-5.3872,-5.0755,-4.8845,-4.6888,-4.3713,-4.2936,-4.211,-3.9454,-3.7356,-3.4662,-3.0496,-2.8538,-2.6328,-2.3091,-1.8974,-1.5607,-1.3625,-0.7933,-0.2499,0.1712,0.4057,0.7033,1.125,1.2185,1.2501,1.2501,1.2501,1.2501,1.2501,1.2501,1.2501,1.2501,1.2501,1.2501,1.2501,1.2501,1.2501,1.2501,1.2501,1.2556,1.2671,1.2868,1.3017,1.3119,1.3315,1.3403,1.3403,1.3403,1.3403,1.3403,1.3403,1.3403,1.3403,1.3403,1.3471,1.3587,1.3777,1.3912,1.4034,1.4238,1.4299,1.4299,1.4299,1.4299,1.4299,1.4299,1.4299,1.4299,1.4299,1.4299,1.4299,1.4299,1.4299,1.4299,1.4299,1.4299,1.4299,1.4299,1.4299,1.4299,1.4299,1.4299,1.4299,1.4299,1.4299,1.4299,1.4299,1.4299,1.4299,1.4299,1.4299,1.4299,1.4299,1.4299,1.4299,1.4299,1.4299,1.4299,1.4299,1.4299,1.4299,1.4299,1.4299,1.4299,1.4299,1.434,1.4414,1.4516,1.4713,1.4889,-5.9271,-5.6713,-5.3701,-4.9751,-4.8989,-4.8139,-4.3907,-4.2811,-4.1938,-3.9431,-3.6498,-3.3426,-3.0237,-2.8538,-2.6939,-2.4918,-2.1141,-1.7786,-1.5742,-1.0092,-0.4686,-0.0468,0.1875,0.4847,0.9061,1.125,1.2501,1.2501,1.2501,1.2501,1.2501,1.2501,1.2501,1.2501,1.2501,1.2501,1.2501,1.2501,1.2501,1.2501,1.2501,1.2501,1.2515,1.282,1.2963,1.2983,1.3275,1.3403,1.3403,1.3403,1.3403,1.3403,1.3403,1.3403,1.3403,1.3403,1.3403,1.3444,1.3736,1.3844,1.3892,1.4204,1.4299,1.4299,1.4299,1.4299,1.4299,1.4299,1.4299,1.4299,1.4299,1.4299,1.4299,1.4299,1.4299,1.4299,1.4299,1.4299,1.4299,1.4299,1.4299,1.4299,1.4299,1.4299,1.4299,1.4299,1.4299,1.4299,1.4299,1.4299,1.4299,1.4299,1.4299,1.4299,1.4299,1.4299,1.4299,1.4299,1.4299,1.4299,1.4299,1.4299,1.4299,1.4299,1.4299,1.4299,1.4299,1.4441,1.4509,1.4516,1.4828,1.5045,-6.0235,-5.733,-5.4073,-5.1907,-4.9552,-4.7197,-4.4941,-4.2699,-4.0874,-3.9643,-3.5605,-3.1846,-3.0416,-2.756,-2.4904,-2.2806,-2.0391,-1.7331,-1.3778,-0.8066,-0.2489,0.1555,0.6544,0.9998,1.1405,1.203,1.2501,1.2501,1.2501,1.2501,1.2501,1.2501,1.2501,1.2501,1.2501,1.2501,1.2501,1.2501,1.2501,1.2501,1.2501,1.2501,1.2515,1.282,1.2963,1.2976,1.3275,1.3403,1.3403,1.3403,1.3403,1.3403,1.3403,1.3403,1.3403,1.3403,1.3403,1.3431,1.3627,1.3756,1.3871,1.4075,1.4217,1.4299,1.4299,1.4299,1.4299,1.4299,1.4299,1.4299,1.4299,1.4299,1.4299,1.4299,1.4299,1.4299,1.4299,1.4299,1.4299,1.4299,1.4299,1.4299,1.4299,1.4299,1.4299,1.4299,1.4299,1.4299,1.4299,1.4299,1.4299,1.4299,1.4299,1.4299,1.4299,1.4299,1.4299,1.4299,1.4299,1.4299,1.4299,1.4299,1.4299,1.4299,1.4299,1.4299,1.4299,1.4441,1.4618,1.4828,1.5025,1.514,-5.9601,-5.6895,-5.4105,-5.1819,-4.9543,-4.7272,-4.4728,-4.2289,-4.0036,-3.8618,-3.4187,-3.0395,-3.012,-2.7112,-2.3883,-2.19,-1.993,-1.718,-1.3027,-0.698,-0.1243,0.3737,0.842,1.1405,1.1405,1.203,1.2501,1.2501,1.2501,1.2501,1.2501,1.2501,1.2501,1.2501,1.2501,1.2501,1.2501,1.2501,1.2501,1.2501,1.2501,1.2501,1.2508,1.2759,1.2908,1.2976,1.3214,1.3349,0.0,1.3403,1.3403,1.3403,1.3403,1.3403,1.3403,1.3403,1.3403,1.3424,1.3573,1.3722,1.3865,1.4021,1.4177,1.4299,1.4299,1.4299,1.4299,1.4299,1.4299,1.4299,1.4299,1.4299,1.4299,1.4299,1.4299,1.4299,1.4299,1.4299,1.4299,1.4299,1.4299,1.4299,1.4299,1.4299,1.4299,1.4299,1.4299,1.4299,1.4299,1.4299,1.4299,1.4299,1.4299,1.4299,1.4299,1.4299,1.4299,1.4299,1.4299,1.4299,1.4299,1.4299,1.4299,1.4299,1.4299,1.4326,1.438,1.4584,1.4808,1.5052,1.514,1.5181,0.0,-5.5809,-5.3765,-5.033,-4.9259,-4.7954,-4.3842,-4.1467,0.0,-3.7015,-3.2543,-2.9077,-2.9576,-2.6835,-2.3722,-2.1751,-1.9629,-1.6715,-1.2567,-0.6516,-0.0156,0.5936,0.8439,0.9687,0.9687,1.1405,1.2501,1.2501,1.2501,1.2501,1.2501,1.2501,1.2501,1.2501,1.2501,1.2501,1.2501,1.2501,1.2501,1.2501,1.2501,1.2501,1.2508,1.2657,1.2813,1.2969,1.3112,1.3261,1.3403,1.3403,1.3403,1.3403,1.3403,1.3403,1.3403,1.3403,1.3403,1.3424,1.3566,1.3709,1.3865,1.4034,1.4183,1.4299,1.4299,1.4299,1.4299,1.4299,1.4299,1.4299,1.4299,1.4299,1.4299,1.4299,1.4299,1.4299,1.4299,1.4299,1.4299,1.4299,1.4299,1.4299,1.4299,1.4299,1.4299,1.4299,1.4299,1.4299,1.4299,1.4299,1.4299,1.4299,1.4299,1.4299,1.4299,1.4299,1.4299,1.4299,1.4299,1.4299,1.4299,1.4299,1.4299,1.4299,1.4312,1.4387,1.4543,1.4835,1.5045,1.5181,1.5181,1.5181,-5.6875,0.0,-5.4137,-5.2483,-4.9823,-4.7039,0.0,-4.1379,-3.8313,-3.6809,-3.2543,-2.9077,-2.9576,-2.5622,-2.1601,-1.9629,-1.625,-1.2413,-0.8265,-0.0934,0.577,1.0463,1.1405,1.1721,1.1721,1.2192,1.2501,1.2501,1.2501,1.2501,1.2501,1.2501,1.2501,1.2501,1.2501,1.2501,1.2501,1.2501,1.2501,1.2501,1.2501,1.2501,1.2508,1.2657,1.2813,1.2969,1.3112,1.3261,1.3403,1.3403,1.3403,1.3403,1.3403,1.3403,1.3403,1.3403,1.3403,1.3403,1.3444,1.3627,1.3885,1.4156,1.4272,1.4299,1.4299,1.4299,1.4299,1.4299,1.4299,1.4299,1.4299,1.4299,1.4299,1.4299,1.4299,1.4299,1.4299,1.4299,1.4299,1.4299,1.4299,1.4299,1.4299,1.4299,1.4299,1.4299,1.4299,1.4299,1.4299,1.4299,1.4299,1.4299,1.4299,1.4299,1.4299,1.4299,1.4299,1.4299,1.4299,1.4299,1.4299,1.4299,1.4299,1.4299,1.4407,1.4597,1.4862,1.4936,1.5045,1.5181,1.5181,1.5181,-5.6496,-5.5215,-5.4052,-5.1759,-4.9173,-4.6288,-4.3413,-4.0378,-3.7429,-3.4498,-3.1235,-2.8357,-2.6985,-2.2988,-1.898,-1.6099,-1.3,-0.9178,-0.4174,0.14,0.6407,1.0624,1.1095,1.1405,1.2347,1.2501,1.2501,1.2501,1.2501,1.2501,1.2501,1.2501,1.2501,1.2501,1.2501,1.2501,1.2501,1.2501,1.2501,1.2501,1.2501,1.2501,1.2508,1.2589,1.2745,1.2963,1.3044,1.32,1.3403,1.3403,1.3403,1.3403,1.3403,1.3403,1.3403,1.3403,1.3403,1.3403,1.3403,1.3593,1.3878,1.4116,1.4245,1.4299,1.4299,1.4299,1.4299,1.4299,1.4299,1.4299,1.4299,1.4299,1.4299,1.4299,1.4299,1.4299,1.4299,1.4299,1.4299,1.4299,1.4299,1.4299,1.4299,1.4299,1.4299,1.4299,1.3401,1.304,1.4122,1.3401,1.304,1.4122,1.4299,1.4299,1.4299,1.4299,1.4299,1.4299,1.4299,1.4299,1.4299,1.4299,1.4333,1.4394,1.4611,1.4808,1.497,1.5038,1.5106,1.5181,1.5181,1.5181,-5.6193,-5.463,-5.2947,-4.9948,-4.8139,-4.5948,-4.1306,-3.9267,-3.6738,-3.1761,-2.9636,-2.7447,-2.3376,-1.9918,-1.6241,-1.2414,-0.9788,-0.6159,0.0,0.2474,0.5145,0.9351,0.9832,1.0624,1.2347,1.2501,1.2501,1.2501,1.2501,1.2501,1.2501,1.2501,1.2501,1.2501,1.2501,1.2501,1.2501,1.2501,1.2501,1.2501,1.2501,1.2501,1.2501,1.2501,1.2671,1.2963,1.2963,1.3125,1.3403,1.3403,1.3403,1.3403,1.3403,1.3403,1.3403,1.3403,1.3403,1.3403,1.3424,1.3614,1.3865,1.4021,1.4177,1.4299,1.4299,1.4299,1.4299,1.4299,1.4299,1.4299,1.4299,1.4299,1.4299,1.4299,1.4299,1.4299,1.4299,1.4299,1.4299,1.4299,1.4299,1.4299,1.4299,1.4299,1.4122,1.3761,1.1971,1.1255,1.304,1.1788,1.1433,1.3578,1.4122,1.4299,1.4299,1.4299,1.4299,1.4299,1.4299,1.4299,1.4299,1.4319,1.4401,1.4543,1.4828,1.4984,1.5004,1.5126,1.5181,1.5181,1.5181,1.5181,-5.5534,-5.214,-4.9355,-4.9242,-4.8139,-4.5948,-4.1306,-3.9267,-3.6738,-3.1761,-2.9636,-2.6978,-2.1559,-1.7857,-1.4147,-1.0334,-0.6612,-0.1958,0.4226,0.5498,0.739,1.1396,1.1959,1.2185,1.2501,1.2501,1.2501,1.2501,1.2501,1.2501,1.2501,1.2501,1.2501,1.2501,1.2501,1.2501,1.2501,1.2501,1.2501,1.2501,1.2501,1.2501,1.2501,1.2501,1.2671,1.2963,1.2963,1.3125,1.3403,1.3403,1.3403,1.3403,1.3403,1.3403,1.3403,1.3403,1.3403,1.3417,1.3546,1.3702,1.3865,1.4021,1.4177,1.4299,1.4299,1.4299,1.4299,1.4299,1.4299,1.4299,1.4299,1.4299,1.4299,1.4299,1.4299,1.4299,1.4299,1.4299,1.4299,1.4299,1.4299,1.4299,1.4299,1.4299,1.3584,1.161,1.0895,1.018,0.8397,0.9646,1.0895,1.125,1.3046,1.4299,1.4299,1.4299,1.4299,1.4299,1.4299,1.4299,1.4299,1.4414,1.455,1.4699,1.4882,1.5031,1.5153,1.5174,1.5181,1.5181,1.5181,1.5181,-5.5069,-5.1788,-4.8551,-4.7105,-4.436,-4.0765,-3.596,-3.3737,-3.1318,-2.721,-2.5935,-2.3679,-1.8036,-1.4893,-1.1089,-0.5296,-0.2691,-0.0151,0.3737,0.4379,0.5945,1.0123,1.0638,1.1164,1.2333,1.2501,1.2501,1.2501,1.2501,1.2501,1.2501,1.2501,1.2501,1.2501,1.2501,1.203,1.0779,1.1876,1.2501,1.2501,1.2501,1.2501,1.2501,1.2501,1.2671,1.2963,1.2963,1.3125,1.3403,1.3403,1.3403,1.3403,1.3403,1.3403,1.3403,1.3403,1.3403,1.341,1.3485,1.3654,1.3851,1.3926,1.4109,1.4299,1.4299,1.4299,1.4299,1.4299,1.4299,1.4299,1.4299,1.4299,1.4299,1.4299,1.4299,1.4299,1.4299,1.4299,1.4299,1.4299,1.4299,1.4299,1.4299,1.4299,1.3401,1.1072,0.9646,0.8397,0.7324,0.804,0.9286,1.054,1.2863,1.4299,1.4299,1.4299,1.4299,1.4299,1.4299,1.4333,1.4414,1.4557,1.4706,1.4862,1.5011,1.512,1.5181,1.5181,1.5181,1.5181,1.5181,1.5181,-5.4094,-5.1026,-4.7466,-4.4385,-4.095,-3.675,-3.1527,-2.9025,-2.6593,-2.2781,-2.1705,-1.9588,-1.4015,-1.0605,-0.6905,-0.16,0.0148,0.1344,0.325,0.4024,0.5725,0.9418,0.9937,1.0627,1.2286,1.2481,1.2501,1.2501,1.2501,1.2501,1.2501,1.203,1.1721,1.1721,1.125,1.0308,0.875,1.0308,1.125,1.1721,1.2347,1.2501,1.2501,1.2501,1.2671,1.2963,1.2963,1.3125,1.3403,1.3403,1.3403,1.3403,1.3403,1.3403,1.3403,1.3403,1.3403,1.3403,1.3403,1.3593,1.3838,1.3838,1.4048,1.4299,1.4299,1.4299,1.4299,1.4299,1.4299,1.4299,1.4299,1.4299,1.4299,1.4299,1.4299,1.4299,1.4299,1.4299,1.4299,1.4299,1.4299,1.4299,1.4299,1.4299,1.3224,1.0357,0.8219,0.6611,0.5544,0.6433,0.7862,0.9646,1.2509,1.4299,1.4299,1.4299,1.4312,1.4346,1.4346,1.4401,1.4509,1.4692,1.4848,1.497,1.5113,1.5181,1.5181,1.5181,1.5181,1.5181,1.5181,1.5201,-5.1938,-4.807,-4.4278,-4.1394,-4.023,-3.818,-3.1903,-2.9025,-2.6315,-2.1096,-1.8716,-1.5746,-1.0042,-0.4485,-0.1165,-0.2472,0.0291,0.335,0.5383,0.7202,0.9181,1.1417,1.1965,1.2139,1.2305,1.2427,1.2501,1.2501,1.2501,1.2501,1.2501,1.0624,0.9687,0.9687,0.7816,0.6722,0.6566,0.6722,0.7656,0.9687,1.156,1.2501,1.2501,1.2501,1.2671,1.2963,1.2963,1.3125,1.3403,1.3403,1.3403,1.3403,1.3403,1.3403,1.3403,1.3403,1.3403,1.3403,1.3403,1.3593,1.3838,1.3838,1.4048,1.4299,1.4299,1.4299,1.4299,1.4299,1.4299,1.4299,1.4299,1.4299,1.4299,1.4299,1.4299,1.4299,1.4299,1.4299,1.4299,1.4299,1.4299,1.4299,1.4299,1.4299,1.2686,0.804,0.7146,0.5544,0.1076,0.4293,0.7146,0.7324,1.1433,1.4299,1.4299,1.4299,1.4353,1.4489,1.4496,1.4502,1.4509,1.4794,1.4964,1.497,1.5113,1.5181,1.5181,1.5181,1.5181,1.5181,1.5181,1.5255,-5.1547,-4.7047,-4.2696,-4.0805,-3.6383,-3.1258,-2.6545,-2.4095,-2.159,-1.7296,-1.4894,-1.2172,-0.7625,-0.3045,-0.0292,-0.102,0.0146,0.2183,0.5373,0.6417,0.8207,1.1377,1.1932,1.2081,1.2271,1.2338,1.2406,1.2494,1.125,1.0624,1.0624,0.8594,0.7505,0.7505,0.6722,0.563,0.4381,0.563,0.6098,0.5471,0.7656,0.9998,1.2501,1.1095,1.1403,1.2963,1.2963,1.3125,1.3231,1.1884,1.2056,1.3403,1.3403,1.3403,1.3403,1.3403,1.3403,1.3403,1.3403,1.3539,1.3722,1.381,1.3987,1.4177,1.4272,1.4299,1.4299,1.4299,1.4299,1.4299,1.4299,1.4299,1.4299,1.4299,1.4299,1.4299,1.4299,1.4299,1.4299,1.4299,1.4299,1.4299,1.4299,1.304,1.0895,0.7684,0.5901,0.3759,0.0359,0.4116,0.7146,0.7146,1.1433,1.4299,1.4299,1.438,1.4455,1.4509,1.4509,1.4597,1.4787,1.4909,1.5011,1.5099,1.5153,1.5181,1.5181,1.5181,1.5181,1.5181,1.5181,1.5262,-4.9626,-4.5254,-4.0828,-3.7943,-3.2832,-2.7311,-2.1971,-1.9875,-1.7865,-1.3547,-1.0537,-0.794,-0.5345,-0.2179,-0.0146,-0.0875,0.0146,0.2039,0.5373,0.6387,0.8005,1.1312,1.1803,1.1932,1.2196,1.2264,1.2345,1.2488,1.0624,0.9376,0.9376,0.6722,0.5318,0.5318,0.4693,0.3601,0.2194,0.3601,0.3912,0.313,0.3912,0.6566,1.0469,0.9061,0.9641,1.1924,1.1961,1.2443,1.3164,1.0865,1.0882,1.2395,1.3065,1.3403,1.3403,1.3403,1.3403,1.3403,1.3403,1.3498,1.3654,1.3797,1.3946,1.4102,1.4251,1.4299,1.4299,1.4299,1.4299,1.4299,1.4299,1.4299,1.4299,1.4299,1.3761,1.3224,1.3224,1.2503,1.1971,1.1971,1.2686,1.2863,1.2148,1.1255,0.9646,0.6433,0.4651,0.2687,0.0359,0.4116,0.7681,0.9286,1.2325,1.4319,1.4367,1.4455,1.455,1.4652,1.4658,1.4753,1.4964,1.5011,1.5086,1.5181,1.5181,1.5181,1.5181,1.5181,1.5181,1.5181,1.5181,1.5289,-4.57,-4.2484,-3.8663,-3.2066,-3.032,-2.7944,-1.9118,-1.7187,-1.5539,-0.9844,-0.566,-0.2909,-0.2909,-0.1311,-0.0583,-0.2618,0.0291,0.3488,0.5518,0.7399,0.943,1.1325,1.1742,1.1891,1.2047,1.2196,1.2345,1.2488,1.0624,0.9371,0.9371,0.5315,0.313,0.313,0.1098,0.0,0.0,0.0,0.1098,0.2974,0.0941,0.2194,0.6254,0.6254,0.7554,0.955,0.9657,1.1074,1.3016,1.0832,1.0044,1.0211,1.2561,1.3403,1.3403,1.3403,1.3403,1.3403,1.3403,1.3498,1.3648,1.3797,1.3946,1.4095,1.4251,1.4299,1.4299,1.4299,1.4299,1.4299,1.4299,1.4299,1.4299,1.4299,1.2503,1.0717,1.0717,0.8753,0.7146,0.7146,0.9108,0.9824,0.7506,0.9108,0.9108,0.4295,0.358,0.2687,0.0359,0.4116,0.893,1.3761,1.4299,1.436,1.4502,1.4516,1.4645,1.495,1.497,1.497,1.497,1.5106,1.5181,1.5181,1.5181,1.5181,1.5181,1.5181,1.5181,1.5181,1.5181,1.535,-4.5962,-4.074,-3.5635,-3.1402,-2.6756,-2.2076,-1.809,-1.7147,-1.5184,-0.8102,-0.4649,-0.2472,-0.1166,-0.0438,-0.0146,-0.0729,0.0146,0.1602,0.349,0.5373,0.7399,0.9285,1.0775,1.1782,1.204,1.2101,1.223,1.2481,0.9216,0.7189,0.7189,0.3288,0.0941,0.0941,0.0314,0.0,0.0,0.0,0.0314,0.0941,0.0314,0.2194,0.6254,0.4693,0.535,0.7481,0.9172,1.026,1.1038,1.033,0.904,0.7873,1.0211,1.2056,1.3403,1.3403,1.3403,1.3403,1.3403,1.3431,1.3512,1.3763,1.3871,1.396,1.4217,1.4299,1.4299,1.4299,1.4299,1.4299,1.4299,1.304,1.1788,1.1788,1.1255,1.018,0.8575,0.7684,0.7146,0.7146,0.7681,0.7862,0.7146,0.6258,0.5186,0.3759,0.215,0.1971,0.4651,0.6255,0.893,1.3761,1.4299,1.436,1.4502,1.4611,1.476,1.4957,1.5065,1.512,1.512,1.516,1.5181,1.5181,1.5181,1.5181,1.5181,1.5181,1.5181,1.5181,1.5296,1.5452,-4.246,-3.7244,-3.2191,-2.7458,-2.3105,-1.886,-1.4753,-1.3193,-1.1057,-0.5798,-0.3054,-0.1456,-0.0146,0.0,0.0,0.0,0.0,0.0729,0.2618,0.4504,0.6532,0.8415,1.0449,1.1714,1.1945,1.2026,1.1854,1.1306,0.8106,0.5942,0.5006,0.1881,0.0,0.0,0.0,0.0,0.0,0.0,0.0,0.0,0.0,0.1255,0.3758,0.2507,0.3144,0.5376,0.8513,0.8978,0.7631,0.935,0.8207,0.57,0.8874,1.0882,1.2222,1.3065,1.3403,1.3403,1.3403,1.3403,1.3437,1.3682,1.3797,1.3885,1.4136,1.4251,1.4299,1.4299,1.4299,1.4122,1.3046,1.1788,1.0717,1.0717,0.9286,0.7506,0.6076,0.5008,0.4295,0.4295,0.5008,0.5365,0.4472,0.3938,0.3224,0.233,0.0897,0.1793,0.6433,0.7146,0.893,1.3761,1.4353,1.4441,1.459,1.4746,1.4896,1.5045,1.5133,1.5181,1.5181,1.5181,1.5181,1.5181,1.5181,1.5181,1.5181,1.5181,1.5181,1.5187,1.5337,1.5493,-3.7133,-3.3113,-2.885,-2.1654,-1.9485,-1.7256,-1.0114,-0.711,-0.5229,-0.3342,-0.1311,0.0,0.0,0.0,0.0,0.0,0.0,0.0583,0.2327,0.4358,0.6242,0.7977,0.9867,1.1089,1.1225,1.1366,1.0751,0.9041,0.7142,0.5162,0.313,0.1098,0.0,0.0,0.0,0.0,0.0,0.0,0.0,0.0,0.0,0.0,0.0,0.0,0.1099,0.3301,0.7373,0.7051,0.3692,0.7873,0.7034,0.3692,0.7873,0.9711,1.0382,1.2388,1.3231,1.3403,1.3403,1.3403,1.3424,1.358,1.3722,1.3871,1.4027,1.4177,1.4299,1.3945,1.3938,1.3401,1.1072,1.018,1.0002,1.0002,0.679,0.358,0.3401,0.1614,0.0,0.0,0.1793,0.2509,0.0359,0.1793,0.2507,0.0359,0.0,0.1793,0.6433,0.7146,0.8935,1.3781,1.4434,1.4577,1.4746,1.4889,1.5031,1.5174,1.5181,1.5181,1.5181,1.5181,1.5181,1.5181,1.5181,1.5181,1.5181,1.5181,1.5181,1.5187,1.5357,1.5506,-3.9617,-3.3699,-2.7146,-2.1382,-1.6607,-1.2137,-0.7539,-0.6098,-0.5229,-0.3342,-0.1311,0.0,0.0,0.0,0.0,0.0,0.0,0.0146,0.0583,0.2328,0.3633,0.4068,0.5808,0.7148,0.7235,0.7327,0.7268,0.6903,0.497,0.3599,0.313,0.1098,0.0,0.0,0.0,0.0,0.0,0.0,0.0,0.0,0.0,0.0,0.0,0.0,0.1268,0.3381,0.4367,0.427,0.3524,0.4363,0.4195,0.3524,0.436,0.6867,1.0044,1.0549,1.189,1.3403,1.3403,1.3403,1.3424,1.358,1.3722,1.3871,1.4027,1.4177,1.3938,1.1971,1.1433,1.0895,0.8575,0.6433,0.5186,0.5186,0.4295,0.3045,0.1256,0.0359,0.0,0.0,0.0359,0.0538,0.0,0.0359,0.0538,0.0,0.0,0.1793,0.6433,0.7146,0.8956,1.3911,1.4496,1.4624,1.4896,1.495,1.5031,1.5174,1.5181,1.5181,1.5181,1.5181,1.5181,1.5181,1.5181,1.5181,1.5181,1.5181,1.5181,1.5187,1.5466,1.5608,-3.7838,-3.2838,-2.7507,-2.0323,-1.5115,-1.0599,-0.6677,-0.5808,-0.4939,-0.2037,-0.0729,0.0,0.0,0.0,0.0,0.0,0.0,0.0,0.0,0.1602,0.2909,0.2909,0.4649,0.5822,0.5859,0.5965,0.5594,0.472,0.3719,0.2662,0.1725,0.0628,0.0,0.0,0.0,0.0,0.0,0.0,0.0,0.0,0.0,0.0,0.0,0.0,0.0636,0.1787,0.2921,0.2795,0.1849,0.2855,0.2687,0.1849,0.2855,0.4695,0.7034,0.9207,1.0882,1.189,1.3065,1.3403,1.341,1.3492,1.3661,1.368,1.2539,1.2348,1.2148,0.9646,0.893,0.8397,0.6079,0.4472,0.3222,0.215,0.1792,0.1614,0.0359,0.0,0.0,0.0,0.0,0.0,0.0,0.0,0.0,0.0,0.0,0.1793,0.6433,0.7146,0.8964,1.3951,1.4577,1.4719,1.495,1.5031,1.5106,1.5174,1.5181,1.5181,1.5181,1.5181,1.5181,1.5181,1.5181,1.5181,1.5181,1.5181,1.5221,1.5296,1.5527,1.5676,-3.5994,-3.1276,-2.6819,-1.9127,-1.4441,-1.0599,-0.7115,-0.6098,-0.4796,-0.1166,-0.0292,0.0,0.0,0.0,0.0,0.0,0.0,0.0,0.0,0.1456,0.2327,0.2327,0.3778,0.4796,0.4796,0.4906,0.4226,0.2568,0.2473,0.188,0.0157,0.0,0.0,0.0,0.0,0.0,0.0,0.0,0.0,0.0,0.0,0.0,0.0,0.0,0.0,0.0163,0.1949,0.1811,0.0168,0.2016,0.1681,0.0168,0.2016,0.3023,0.3692,0.7539,0.9378,1.0382,1.2222,1.3065,1.3403,1.2899,1.292,1.2797,1.0376,0.983,0.9646,0.7149,0.6433,0.5901,0.358,0.3045,0.2507,0.0538,0.0,0.0,0.0,0.0,0.0,0.0,0.0,0.0,0.0,0.0,0.0,0.0,0.0,0.1793,0.6433,0.716,0.899,1.399,1.4685,1.4841,1.4991,1.5113,1.5181,1.5181,1.5181,1.5181,1.5181,1.5181,1.5181,1.5181,1.5181,1.5181,1.5181,1.5181,1.5262,1.5411,1.5567,1.5716,-3.973,-3.0174,-2.071,-1.7917,-1.4441,-1.1031,-0.8848,-0.6966,-0.5229,-0.2909,-0.1166,0.0,0.0,0.0,0.0,0.0,0.0,0.0,0.0,0.0292,0.0438,0.0438,0.0583,0.0729,0.0729,0.0746,0.0757,0.0454,0.0465,0.0314,0.0,0.0,0.0,0.0,0.0,0.0,0.0,0.0,0.0,0.0,0.0,0.0,0.0,0.0,0.0,0.0,0.0325,0.033,0.0,0.0337,0.0337,0.0,0.0337,0.1681,0.3357,0.4027,0.67,1.0211,1.0377,1.1724,1.3065,1.1048,1.0535,1.0376,0.8129,0.7377,0.7146,0.4651,0.4116,0.358,0.1076,0.0538,0.0359,0.0,0.0,0.0,0.0,0.0,0.0,0.0,0.0,0.0,0.0,0.0,0.0,0.0,0.0,0.1793,0.6433,0.7207,0.9269,1.414,1.4848,1.4997,1.514,1.5174,1.5181,1.5181,1.5181,1.5181,1.5181,1.5181,1.5181,1.5181,1.5181,1.5181,1.5181,1.5181,1.5262,1.5411,1.5567,1.5716,-3.7882,-2.805,-1.9508,-1.7648,-1.4441,-1.1038,-0.9141,-0.7977,-0.6532,-0.3488,-0.2183,-0.1311,-0.0146,0.0,0.0,0.0,0.0,0.0,0.0,0.0,0.0,0.0,0.0,0.0,0.0,0.0,0.0,0.0,0.0,0.0,0.0,0.0,0.0,0.0,0.0,0.0,0.0,0.0,0.0,0.0,0.0,0.0,0.0,0.0,0.0,0.0,0.0,0.0,0.0,0.0,0.0,0.0,0.0,0.0673,0.1681,0.2855,0.4528,0.6536,0.7706,0.8874,0.9545,0.854,0.8327,0.7956,0.554,0.4924,0.4651,0.233,0.1614,0.1255,0.0359,0.0,0.0,0.0,0.0,0.0,0.0,0.0,0.0,0.0,0.0,0.0,0.0,0.0,0.0,0.0,0.0,0.1256,0.4651,0.6494,0.8746,1.2323,1.4132,1.5031,1.5167,1.5181,1.5181,1.5181,1.5181,1.5181,1.5181,1.5181,1.5181,1.5181,1.5181,1.5181,1.5181,1.5181,1.5303,1.554,1.5608,1.5764,-3.6469,-2.7814,-2.0723,-1.8454,-1.5124,-1.1743,-0.9862,-0.8992,-0.7833,-0.4936,-0.3633,-0.2472,-0.102,-0.0292,0.0,0.0,0.0,0.0,0.0,0.0,0.0,0.0,0.0,0.0,0.0,0.0,0.0,0.0,0.0,0.0,0.0,0.0,0.0,0.0,0.0,0.0,0.0,0.0,0.0,0.0,0.0,0.0,0.0,0.0,0.0,0.0,0.0,0.0,0.0,0.0,0.0,0.0,0.0,0.0,0.0168,0.1849,0.2855,0.3692,0.5365,0.6199,0.6533,0.6035,0.5954,0.554,0.3121,0.2642,0.233,0.0538,0.0,0.0,0.0,0.0,0.0,0.0,0.0,0.0,0.0,0.0,0.0,0.0,0.0,0.0,0.0,0.0,0.0,0.0,0.0,0.0898,0.3234,0.5798,0.841,1.0896,1.3437,1.5065,1.5174,1.5181,1.5181,1.5181,1.5181,1.5181,1.5181,1.5181,1.5181,1.5181,1.5181,1.5181,1.5181,1.5221,1.5377,1.5642,1.5676,1.5832,-3.8296,-3.1346,-2.4223,-2.0573,-1.7037,-1.3729,-1.1893,-1.0011,-0.8703,-0.841,-0.5515,-0.2909,-0.2763,-0.1311,0.0,0.0,0.0,0.0,0.0,0.0,0.0,0.0,0.0,0.0,0.0,0.0,0.0,0.0,0.0,0.0,0.0,0.0,0.0,0.0,0.0,0.0,0.0,0.0,0.0,0.0,0.0,0.0,0.0,0.0,0.0,0.0,0.0,0.0,0.0,0.0,0.0,0.0,0.0,0.0,0.0,0.0168,0.1513,0.3357,0.3524,0.4863,0.6366,0.4195,0.3576,0.3121,0.0868,0.0176,0.018,0.0,0.0,0.0,0.0,0.0,0.0,0.0,0.0,0.0,0.0,0.0,0.0,0.0,0.0,0.0,0.0,0.0,0.0,0.0,0.0,0.09,0.3267,0.5858,0.8496,1.1006,1.3572,1.5174,1.5181,1.5181,1.5181,1.5181,1.5181,1.5181,1.5181,1.5181,1.5181,1.5181,1.5181,1.5181,1.5181,1.533,1.5479,1.5642,1.5778,1.5927,-3.7421,-3.1785,-2.6222,-2.2659,-1.8955,-1.5643,-1.3863,-1.1879,-1.0161,-0.8992,-0.6532,-0.4358,-0.3197,-0.1311,0.0,0.0,0.0,0.0,0.0,0.0,0.0,0.0,0.0,0.0,0.0,0.0,0.0,0.0,0.0,0.0,0.0,0.0,0.0,0.0,0.0,0.0,0.0,0.0,0.0,0.0,0.0,0.0,0.0,0.0,0.0,0.0,0.0,0.0,0.0,0.0,0.0,0.0,0.0,0.0,0.0,0.0,0.0505,0.1178,0.1178,0.1681,0.2352,0.1513,0.1195,0.1042,0.0174,0.0,0.0,0.0,0.0,0.0,0.0,0.0,0.0,0.0,0.0,0.0,0.0,0.0,0.0,0.0,0.0,0.0,0.0,0.0,0.0,0.0,0.0,0.09,0.3451,0.6047,0.8504,1.1021,1.3584,1.5181,1.5181,1.5181,1.5181,1.5181,1.5181,1.5181,1.5181,1.5181,1.5181,1.5181,1.5181,1.5181,1.5181,1.5337,1.5493,1.5642,1.5784,1.5934,-3.7718,-3.3191,-2.8861,-2.5338,-2.168,-1.8389,-1.5924,-1.3855,-1.2029,-1.0011,-0.8126,-0.6387,-0.5081,-0.3199,-0.1457,-0.0146,0.0,0.0,0.0,0.0,0.0,0.0,0.0,0.0,0.0,0.0,0.0,0.0,0.0,0.0,0.0,0.0,0.0,0.0,0.0,0.0,0.0,0.0,0.0,0.0,0.0,0.0,0.0,0.0,0.0,0.0,0.0,0.0,0.0,0.0,0.0,0.0,0.0,0.0,0.0,0.0,0.0,0.0,0.0,0.0,0.0,0.0,0.0,0.0,0.0,0.0,0.0,0.0,0.0,0.0,0.0,0.0,0.0,0.0,0.0,0.0,0.0,0.0,0.0,0.0,0.0,0.0,0.0,0.0,0.0,0.0,0.0,0.0902,0.3467,0.6058,0.8516,1.1071,1.3609,1.5181,1.5181,1.5181,1.5181,1.5181,1.5181,1.5181,1.5181,1.5181,1.5181,1.5181,1.5235,1.5262,1.5262,1.5411,1.5567,1.5716,1.5859,1.5988,0.0,0.0,0.0,-2.8991,-2.5471,-2.1855,-1.809,-1.5924,-1.4006,-1.2043,-1.0155,-0.8698,-0.8703,-0.711,-0.4506,-0.0729,-0.0146,-0.0146,-0.0146,-0.0146,-0.0146,-0.0146,-0.0146,-0.0147,-0.0149,0.0,0.0,0.0,0.0,0.0,0.0,0.0,0.0,0.0,0.0,0.0,0.0,0.0,0.0,0.0,0.0,0.0,0.0,0.0,0.0,0.0,0.0,0.0,0.0,0.0,0.0,0.0,0.0,0.0,0.0,0.0,0.0,0.0,0.0,0.0,0.0,0.0,0.0,0.0,0.0,0.0,0.0,0.0,0.0,0.0,0.0,0.0,0.0,0.0,0.0,0.0,0.0,0.0,0.0,0.0,0.0,0.0,0.0,0.0,0.0,0.0,0.0,0.0904,0.35,0.6086,0.8543,1.1177,1.3664,1.5181,1.5181,1.5181,1.5181,1.5181,1.5181,1.5181,1.5181,1.5181,1.5181,1.5181,1.5337,1.5411,1.5418,1.5567,1.5716,1.5859,1.6008,1.6083,-3.9406,0.0,0.0,0.0,0.0,0.0,-2.1965,-1.9646,-1.7446,-1.4282,-1.213,-1.0263,-0.8987,-0.711,-0.5518,-0.4361,-0.4216,-0.3635,-0.2328,-0.3344,-0.3635,-0.2328,-0.2054,-0.2077,-0.2103,-0.0761,0.0,0.0,0.0,0.0,0.0,0.0,0.0,0.0,0.0,0.0,0.0,0.0,0.0,0.0,0.0,0.0,0.0,0.0,0.0,0.0,0.0,0.0,0.0,0.0,0.0,0.0,0.0,0.0,0.0,0.0,0.0,0.0,0.0,0.0,0.0,0.0,0.0,0.0,0.0,0.0,0.0,0.0,0.0,0.0,0.0,0.0,0.0,0.0,0.0,0.0,0.0,0.0,0.0,0.0,0.0,0.0,0.0,0.0,0.0,0.0,0.0,0.164,0.6072,0.7233,0.9356,1.3645,1.4798,1.5181,1.5181,1.5181,1.5181,1.5181,1.5181,1.5181,1.5181,1.5181,1.5181,1.5181,1.5337,1.5466,1.5574,1.5723,1.5811,1.5859,1.6008,1.6083,-3.9546,-3.7506,-3.603,-3.2708,0.0,0.0,-2.3565,-2.127,-1.8666,-1.414,-1.2294,-1.1142,-1.0155,-0.8997,-0.8271,-0.8271,-0.8271,-0.7259,-0.4504,-0.5084,-0.5373,-0.4213,-0.4114,-0.4166,-0.4219,-0.3206,-0.232,-0.141,-0.1254,-0.0941,0.0,0.0,0.0,0.0,0.0,0.0,0.0,0.0,0.0,0.0,0.0,0.0,0.0,0.0,0.0,0.0,0.0,0.0,0.0,0.0,0.0,0.0,0.0,0.0,0.0,0.0,0.0,0.0,0.0,0.0,0.0,0.0,0.0,0.0,0.0,0.0,0.0,0.0,0.0,0.0,0.0,0.0,0.0,0.0,0.0,0.0,0.0,0.0,0.0,0.0,0.0,0.0,0.0,0.0,0.0,0.0,0.0,0.1828,0.6993,0.7621,0.9568,1.4597,1.5181,1.5181,1.5181,1.5181,1.5181,1.5181,1.5181,1.5181,1.5181,1.5181,1.5215,1.5276,1.5432,1.5608,1.5825,1.5845,1.5886,1.5947,1.6042,1.6083,-3.9779,-3.8223,-3.7385,-3.4133,-3.2237,0.0,-2.4567,-2.2159,-1.9473,-1.3989,-1.2881,-1.2745,-1.2323,-1.2187,-1.2187,-1.2187,-1.2043,-1.0593,-0.6677,-0.6242,-0.6391,-0.6112,-0.618,-0.6403,-0.6334,-0.6263,-0.5411,-0.3285,-0.2819,-0.188,-0.0157,0.0,0.0,0.0,0.0,0.0,0.0,0.0,0.0,0.0,0.0,0.0,0.0,0.0,0.0,0.0,0.0,0.0,0.0,0.0,0.0,0.0,0.0,0.0,0.0,0.0,0.0,0.0,0.0,0.0,0.0,0.0,0.0,0.0,0.0,0.0,0.0,0.0,0.0,0.0,0.0,0.0,0.0,0.0,0.0,0.0,0.0,0.0,0.0,0.0,0.0,0.0,0.0,0.0,0.0,0.0,0.0,0.183,0.6993,0.7628,0.9581,1.4597,1.5181,1.5181,1.5181,1.5181,1.5181,1.5181,1.5181,1.5181,1.5181,1.5181,1.5255,1.5404,1.5574,1.5798,1.6083,1.5947,1.5947,1.6083,1.6083,1.6083,-3.9453,-3.8223,-3.7385,-3.4133,-3.3165,0.0,-2.9777,-2.898,-2.7094,-2.1718,-2.0496,-1.9681,-1.6676,-1.6131,-1.6131,-1.6131,-1.4858,-1.2573,-0.8698,-0.9435,-0.9908,-0.8538,-0.8345,-0.845,-0.855,-0.7269,-0.5459,-0.3286,-0.1568,-0.0471,0.0,0.0,0.0,0.0,0.0,0.0,0.0,0.0,0.0,0.0,0.0,0.0,0.0,0.0,0.0,0.0,0.0,0.0,0.0,0.0,0.0,0.0,0.0,0.0,0.0,0.0,0.0,0.0,0.0,0.0,0.0,0.0,0.0,0.0,0.0,0.0,0.0,0.0,0.0,0.0,0.0,0.0,0.0,0.0,0.0,0.0,0.0,0.0,0.0,0.0,0.0,0.0,0.0,0.0,0.0,0.0,0.0,0.1845,0.7,0.7673,0.9466,1.461,1.5181,1.5181,1.5181,1.5181,1.5181,1.5181,1.5181,1.5181,1.5181,1.5181,1.5255,1.5404,1.5676,1.59,1.6083,1.6049,1.6049,1.6083,1.6083,1.6083,-3.9476,-3.8223,-3.7385,-3.4133,-3.3418,0.0,0.0,-2.9353,-2.8129,-2.3551,-2.2619,-2.2076,-2.0173,-1.9104,-1.8582,-1.8582,-1.632,-1.4281,-1.3251,-1.2272,-1.1312,-1.0492,-1.053,-1.0672,-1.0738,-0.9927,-0.8123,-0.5006,-0.2662,-0.1098,0.0,0.0,0.0,0.0,0.0,0.0,0.0,0.0,0.0,0.0,0.0,0.0,0.0,0.0,0.0,0.0,0.0,0.0,0.0,0.0,0.0,0.0,0.0,0.0,0.0,0.0,0.0,0.0,0.0,0.0,0.0,0.0,0.0,0.0,0.0,0.0,0.0,0.0,0.0,0.0,0.0,0.0,0.0,0.0,0.0,0.0,0.0,0.0,0.0,0.0,0.0,0.0,0.0,0.0,0.0,0.0,0.0,0.1849,0.7,0.7687,0.9488,1.461,1.5181,1.5181,1.5181,1.5181,1.5181,1.5181,1.5181,1.5181,1.5181,1.5255,1.5404,1.5628,1.5852,1.6001,1.6083,1.6083,1.6083,1.6083,1.6083,1.6083,-3.9242,-3.8223,-3.7385,-3.4133,-3.3418,-3.26,0.0,0.0,0.0,-2.4834,-2.4166,-2.4032,-2.3644,-2.2457,-2.1394,-2.0947,-1.8325,-1.6692,-1.7948,-1.518,-1.2934,-1.2493,-1.2435,-1.2298,-1.2332,-1.2119,-1.0469,-0.7189,-0.4537,-0.2349,-0.0628,-0.0157,0.0,0.0,0.0,0.0,0.0,0.0,0.0,0.0,0.0,0.0,0.0,0.0,0.0,0.0,0.0,0.0,0.0,0.0,0.0,0.0,0.0,0.0,0.0,0.0,0.0,0.0,0.0,0.0,0.0,0.0,0.0,0.0,0.0,0.0,0.0,0.0,0.0,0.0,0.0,0.0,0.0,0.0,0.0,0.0,0.0,0.0,0.0,0.0,0.0,0.0,0.0,0.0,0.0,0.0,0.0,0.1664,0.6267,0.7313,0.9299,1.404,1.4993,1.5181,1.5181,1.5181,1.5181,1.5181,1.5181,1.5181,1.5181,1.5357,1.5581,1.5845,1.6001,1.6083,1.6083,1.6083,1.6083,1.6083,1.6083,1.6083,-3.8698,-3.8223,-3.7385,-3.4133,-3.3418,-3.3292,-3.2873,0.0,-3.22,-3.0201,0.0,-2.9405,-2.7851,0.0,0.0,-2.4834,-2.3215,-2.1545,-1.9982,-1.8507,-1.6963,-1.5043,-1.3302,-1.2338,-1.2467,-1.0773,-0.9532,-0.9061,-0.5315,-0.2974,-0.2819,-0.0941,0.0,0.0,0.0,0.0,0.0,0.0,0.0,0.0,0.0,0.0,0.0,0.0,0.0,0.0,0.0,0.0,0.0,0.0,0.0,0.0,0.0,0.0,0.0,0.0,0.0,0.0,0.0,0.0,0.0,0.0,0.0,0.0,0.0,0.0,0.0,0.0,0.0,0.0,0.0,0.0,0.0,0.0,0.0,0.0,0.0,0.0,0.0,0.0,0.0,0.0,0.0,0.0,0.0,0.0,0.0,0.1111,0.3879,0.6193,0.8731,1.1574,1.3852,1.5181,1.5181,1.5181,1.5181,1.5181,1.5181,1.5181,1.5181,1.5459,1.5689,1.5852,1.6001,1.6083,1.6083,1.6083,1.6083,1.6083,1.6083,1.6083,-3.8935,-3.7418,-3.6167,-3.4007,-3.2619,-3.2091,-3.3165,-3.3418,-3.3165,-3.2492,0.0,0.0,0.0,0.0,0.0,0.0,-2.4289,-2.2119,-2.2485,-2.0094,-1.8081,-1.7197,-1.6409,-1.5455,-1.4322,-1.3392,-1.1998,-0.9527,-0.7791,-0.5612,-0.3286,-0.1098,0.0,0.0,0.0,0.0,0.0,0.0,0.0,0.0,0.0,0.0,0.0,0.0,0.0,0.0,0.0,0.0,0.0,0.0,0.0,0.0,0.0,0.0,0.0,0.0,0.0,0.0,0.0,0.0,0.0,0.0,0.0,0.0,0.0,0.0,0.0,0.0,0.0,0.0,0.0,0.0,0.0,0.0,0.0,0.0,0.0,0.0,0.0,0.0,0.0,0.0,0.0,0.0,0.0,0.0,0.0,0.1479,0.5531,0.6939,0.9109,1.3093,1.461,1.5181,1.5181,1.5181,1.5181,1.5181,1.5262,1.5357,1.5445,1.5649,1.5832,1.5981,1.6049,1.6083,1.6083,1.6083,1.6083,1.6083,1.6083,1.6083,-3.7418,-3.5903,-3.4656,-3.3631,-3.2492,-3.1835,-3.3146,-3.3418,-3.3418,-3.3418,-3.3516,0.0,0.0,0.0,-3.0032,-2.9529,0.0,-2.4624,-2.547,-2.2974,-2.059,-1.9383,-1.8922,-1.7967,-1.6447,-1.6294,-1.4911,-1.138,-1.0566,-0.8548,-0.5003,-0.2819,-0.1412,-0.0941,-0.0784,-0.0628,0.0,0.0,0.0,0.0,0.0,0.0,0.0,0.0,0.0,0.0,0.0,0.0,0.0,0.0,0.0,0.0,0.0,0.0,0.0,0.0,0.0,0.0,0.0,0.0,0.0,0.0,0.0,0.0,0.0,0.0,0.0,0.0,0.0,0.0,0.0,0.0,0.0,0.0,0.0,0.0,0.0,0.0,0.0,0.0,0.0,0.0,0.0,0.0,0.0,0.0,0.0,0.1664,0.6083,0.6565,0.8538,1.3664,1.4234,1.4422,1.5181,1.5181,1.5181,1.5181,1.5323,1.5479,1.5635,1.5778,1.5927,1.6076,1.6083,1.6083,1.6083,1.6083,1.6083,1.6083,1.6083,1.6083,-3.3454,-3.3328,-3.3348,-3.3379,-3.3418,-3.3292,-3.3418,-3.3418,-3.3418,-3.3418,-3.375,-3.4043,-3.4043,-3.4264,-3.3858,-3.1851,-3.1917,0.0,0.0,-2.8051,-2.573,-2.1876,-1.9779,-1.8572,-1.8572,-1.8572,-1.7663,-1.5531,-1.3509,-1.1349,-0.9371,-0.7189,-0.5162,-0.313,-0.2974,-0.2037,0.0,0.0,0.0,0.0,0.0,0.0,0.0,0.0,0.0,0.0,0.0,0.0,0.0,0.0,0.0,0.0,0.0,0.0,0.0,0.0,0.0,0.0,0.0,0.0,0.0,0.0,0.0,0.0,0.0,0.0,0.0,0.0,0.0,0.0,0.0,0.0,0.0,0.0,0.0,0.0,0.0,0.0,0.0,0.0,0.0,0.0,0.0,0.0,0.0,0.0,0.0,0.0925,0.3509,0.3945,0.5889,1.1008,1.1579,1.2522,1.4993,1.5181,1.5181,1.5181,1.5323,1.5479,1.5635,1.5778,1.5927,1.6076,1.6083,1.6083,1.6083,1.6083,1.6083,1.6083,1.6083,1.6083,-3.1973,-3.0555,-3.0059,-3.1396,-3.0789,-3.0531,-3.2892,-3.3418,-3.3418,-3.3418,-3.3535,-3.373,-3.4023,-3.3481,-3.2703,-3.2295,-3.1495,-3.0376,0.0,-2.6648,-2.5051,-2.3722,-2.1751,-2.0542,-2.0542,-1.9327,-1.7815,-1.5693,-1.3509,-1.1503,-0.9527,-0.6095,-0.3912,-0.313,-0.1724,-0.0784,0.0,0.0,0.0,0.0,0.0,0.0,0.0,0.0,0.0,0.0,0.0,0.0,0.0,0.0,0.0,0.0,0.0,0.0,0.0,0.0,0.0,0.0,0.0,0.0,0.0,0.0,0.0,0.0,0.0,0.0,0.0,0.0,0.0,0.0,0.0,0.0,0.0,0.0,0.0,0.0,0.0,0.0,0.0,0.0,0.0,0.0,0.0,0.0,0.0,0.0,0.0,0.0928,0.354,0.3772,0.57,1.0819,1.139,1.2522,1.4993,1.5181,1.5181,1.5181,1.5418,1.5588,1.5635,1.5872,1.6029,1.6083,1.6083,1.6083,1.6083,1.6083,1.6083,1.6083,1.6083,1.6083,-2.9561,-2.7867,-2.7506,-2.944,-2.9083,-2.8952,-3.1835,-3.2492,-3.2346,-3.1633,-3.2185,-3.2152,-3.0557,-3.13,-3.2033,-3.165,-3.1966,-3.1456,0.0,-2.749,-2.605,-2.477,-2.3426,-2.236,-2.1601,-2.0391,-1.8572,-1.5693,-1.4283,-1.2594,-1.0618,-0.7968,-0.6095,-0.5315,-0.3288,-0.1881,-0.1098,-0.0314,0.0,0.0,0.0,0.0,0.0,0.0,0.0,0.0,0.0,0.0,0.0,0.0,0.0,0.0,0.0,0.0,0.0,0.0,0.0,0.0,0.0,0.0,0.0,0.0,0.0,0.0,0.0,0.0,0.0,0.0,0.0,0.0,0.0,0.0,0.0,0.0,0.0,0.0,0.0,0.0,0.0,0.0,0.0,0.0,0.0,0.0,0.0,0.0,0.0,0.0928,0.3555,0.3025,0.4753,1.0819,1.0625,1.1385,1.4993,1.5181,1.5208,1.5262,1.5499,1.5662,1.571,1.5954,1.611,1.6164,1.611,1.611,1.6164,1.611,1.6083,1.6083,1.6083,1.6083]}]]